<?xml version="1.0" encoding="UTF-8" standalone="no" ?>
<gpx xmlns="http://www.topografix.com/GPX/1/1" xmlns:xsi="http://www.w3.org/2001/XMLSchema-instance" xsi:schemaLocation="http://www.topografix.com/GPX/1/1 http://www.topografix.com/GPX/1/1/gpx.xsd" version="1.1" creator="VisuGPX - https://www.visugpx.com">
  <metadata>
    <name>Ile Réunion-Le Chemin des Anglais</name>
    <desc><![CDATA[Le Chemin des Anglais effectué à partir de St Bernard dans les hauts de St Denis et jusqu\'a la possession, prévoir de l\'eau, il y fait très chaud...]]></desc>
  </metadata>
  <trk>
    <name><![CDATA[Ile Réunion-Le Chemin des Anglais_1]]></name>
    <trkseg>
      <trkpt lat="-20.90362" lon="55.39122">
        <ele>384</ele>
        <time>2013-01-07T02:31:16Z</time>
      </trkpt>
      <trkpt lat="-20.90358" lon="55.39121">
        <ele>384</ele>
        <time>2013-01-07T02:31:21Z</time>
      </trkpt>
      <trkpt lat="-20.9035" lon="55.39118">
        <ele>384</ele>
        <time>2013-01-07T02:31:26Z</time>
      </trkpt>
      <trkpt lat="-20.90342" lon="55.39112">
        <ele>383</ele>
        <time>2013-01-07T02:31:31Z</time>
      </trkpt>
      <trkpt lat="-20.90333" lon="55.39106">
        <ele>381</ele>
        <time>2013-01-07T02:31:36Z</time>
      </trkpt>
      <trkpt lat="-20.90325" lon="55.39097">
        <ele>380</ele>
        <time>2013-01-07T02:31:41Z</time>
      </trkpt>
      <trkpt lat="-20.90317" lon="55.39088">
        <ele>379</ele>
        <time>2013-01-07T02:31:46Z</time>
      </trkpt>
      <trkpt lat="-20.90307" lon="55.39079">
        <ele>377</ele>
        <time>2013-01-07T02:31:51Z</time>
      </trkpt>
      <trkpt lat="-20.90299" lon="55.39069">
        <ele>377</ele>
        <time>2013-01-07T02:31:56Z</time>
      </trkpt>
      <trkpt lat="-20.90291" lon="55.39059">
        <ele>376</ele>
        <time>2013-01-07T02:32:01Z</time>
      </trkpt>
      <trkpt lat="-20.90284" lon="55.39048">
        <ele>376</ele>
        <time>2013-01-07T02:32:06Z</time>
      </trkpt>
      <trkpt lat="-20.90277" lon="55.39038">
        <ele>375</ele>
        <time>2013-01-07T02:32:11Z</time>
      </trkpt>
      <trkpt lat="-20.90272" lon="55.39027">
        <ele>375</ele>
        <time>2013-01-07T02:32:16Z</time>
      </trkpt>
      <trkpt lat="-20.90267" lon="55.39018">
        <ele>374</ele>
        <time>2013-01-07T02:32:21Z</time>
      </trkpt>
      <trkpt lat="-20.90259" lon="55.39009">
        <ele>373</ele>
        <time>2013-01-07T02:32:27Z</time>
      </trkpt>
      <trkpt lat="-20.90255" lon="55.38999">
        <ele>372</ele>
        <time>2013-01-07T02:32:32Z</time>
      </trkpt>
      <trkpt lat="-20.90249" lon="55.3899">
        <ele>370</ele>
        <time>2013-01-07T02:32:37Z</time>
      </trkpt>
      <trkpt lat="-20.90245" lon="55.3898">
        <ele>369</ele>
        <time>2013-01-07T02:32:42Z</time>
      </trkpt>
      <trkpt lat="-20.90241" lon="55.38969">
        <ele>367</ele>
        <time>2013-01-07T02:32:47Z</time>
      </trkpt>
      <trkpt lat="-20.90236" lon="55.38959">
        <ele>365</ele>
        <time>2013-01-07T02:32:52Z</time>
      </trkpt>
      <trkpt lat="-20.90232" lon="55.38949">
        <ele>364</ele>
        <time>2013-01-07T02:32:57Z</time>
      </trkpt>
      <trkpt lat="-20.90227" lon="55.38938">
        <ele>362</ele>
        <time>2013-01-07T02:33:02Z</time>
      </trkpt>
      <trkpt lat="-20.90221" lon="55.38926">
        <ele>361</ele>
        <time>2013-01-07T02:33:07Z</time>
      </trkpt>
      <trkpt lat="-20.90213" lon="55.38915">
        <ele>361</ele>
        <time>2013-01-07T02:33:12Z</time>
      </trkpt>
      <trkpt lat="-20.90204" lon="55.38907">
        <ele>360</ele>
        <time>2013-01-07T02:33:17Z</time>
      </trkpt>
      <trkpt lat="-20.90194" lon="55.38902">
        <ele>359</ele>
        <time>2013-01-07T02:33:22Z</time>
      </trkpt>
      <trkpt lat="-20.90187" lon="55.38893">
        <ele>358</ele>
        <time>2013-01-07T02:33:27Z</time>
      </trkpt>
      <trkpt lat="-20.90181" lon="55.38884">
        <ele>356</ele>
        <time>2013-01-07T02:33:32Z</time>
      </trkpt>
      <trkpt lat="-20.90171" lon="55.38877">
        <ele>353</ele>
        <time>2013-01-07T02:33:37Z</time>
      </trkpt>
      <trkpt lat="-20.90163" lon="55.38869">
        <ele>352</ele>
        <time>2013-01-07T02:33:42Z</time>
      </trkpt>
      <trkpt lat="-20.90153" lon="55.38863">
        <ele>352</ele>
        <time>2013-01-07T02:33:47Z</time>
      </trkpt>
      <trkpt lat="-20.90145" lon="55.38857">
        <ele>352</ele>
        <time>2013-01-07T02:33:52Z</time>
      </trkpt>
      <trkpt lat="-20.90137" lon="55.38844">
        <ele>352</ele>
        <time>2013-01-07T02:33:58Z</time>
      </trkpt>
      <trkpt lat="-20.90131" lon="55.38832">
        <ele>351</ele>
        <time>2013-01-07T02:34:03Z</time>
      </trkpt>
      <trkpt lat="-20.90125" lon="55.3882">
        <ele>351</ele>
        <time>2013-01-07T02:34:08Z</time>
      </trkpt>
      <trkpt lat="-20.90118" lon="55.38809">
        <ele>352</ele>
        <time>2013-01-07T02:34:13Z</time>
      </trkpt>
      <trkpt lat="-20.90111" lon="55.38799">
        <ele>353</ele>
        <time>2013-01-07T02:34:18Z</time>
      </trkpt>
      <trkpt lat="-20.90106" lon="55.38788">
        <ele>353</ele>
        <time>2013-01-07T02:34:23Z</time>
      </trkpt>
      <trkpt lat="-20.90098" lon="55.38776">
        <ele>354</ele>
        <time>2013-01-07T02:34:28Z</time>
      </trkpt>
      <trkpt lat="-20.90091" lon="55.38767">
        <ele>353</ele>
        <time>2013-01-07T02:34:33Z</time>
      </trkpt>
      <trkpt lat="-20.90083" lon="55.38758">
        <ele>351</ele>
        <time>2013-01-07T02:34:38Z</time>
      </trkpt>
      <trkpt lat="-20.90076" lon="55.38751">
        <ele>349</ele>
        <time>2013-01-07T02:34:43Z</time>
      </trkpt>
      <trkpt lat="-20.90069" lon="55.38742">
        <ele>347</ele>
        <time>2013-01-07T02:34:48Z</time>
      </trkpt>
      <trkpt lat="-20.9006" lon="55.3873">
        <ele>344</ele>
        <time>2013-01-07T02:34:53Z</time>
      </trkpt>
      <trkpt lat="-20.90051" lon="55.38718">
        <ele>342</ele>
        <time>2013-01-07T02:34:58Z</time>
      </trkpt>
      <trkpt lat="-20.90042" lon="55.38707">
        <ele>342</ele>
        <time>2013-01-07T02:35:03Z</time>
      </trkpt>
      <trkpt lat="-20.90033" lon="55.38696">
        <ele>341</ele>
        <time>2013-01-07T02:35:08Z</time>
      </trkpt>
      <trkpt lat="-20.90026" lon="55.38684">
        <ele>340</ele>
        <time>2013-01-07T02:35:13Z</time>
      </trkpt>
      <trkpt lat="-20.90017" lon="55.38673">
        <ele>339</ele>
        <time>2013-01-07T02:35:18Z</time>
      </trkpt>
      <trkpt lat="-20.90009" lon="55.38661">
        <ele>339</ele>
        <time>2013-01-07T02:35:23Z</time>
      </trkpt>
      <trkpt lat="-20.9" lon="55.38649">
        <ele>338</ele>
        <time>2013-01-07T02:35:28Z</time>
      </trkpt>
      <trkpt lat="-20.8999" lon="55.3864">
        <ele>337</ele>
        <time>2013-01-07T02:35:33Z</time>
      </trkpt>
      <trkpt lat="-20.8998" lon="55.38634">
        <ele>336</ele>
        <time>2013-01-07T02:35:38Z</time>
      </trkpt>
      <trkpt lat="-20.89969" lon="55.38625">
        <ele>333</ele>
        <time>2013-01-07T02:35:43Z</time>
      </trkpt>
      <trkpt lat="-20.89956" lon="55.38616">
        <ele>330</ele>
        <time>2013-01-07T02:35:49Z</time>
      </trkpt>
      <trkpt lat="-20.89945" lon="55.38608">
        <ele>328</ele>
        <time>2013-01-07T02:35:54Z</time>
      </trkpt>
      <trkpt lat="-20.89933" lon="55.38602">
        <ele>326</ele>
        <time>2013-01-07T02:35:59Z</time>
      </trkpt>
      <trkpt lat="-20.89923" lon="55.38597">
        <ele>325</ele>
        <time>2013-01-07T02:36:04Z</time>
      </trkpt>
      <trkpt lat="-20.89913" lon="55.38591">
        <ele>322</ele>
        <time>2013-01-07T02:36:09Z</time>
      </trkpt>
      <trkpt lat="-20.89902" lon="55.38585">
        <ele>320</ele>
        <time>2013-01-07T02:36:14Z</time>
      </trkpt>
      <trkpt lat="-20.89891" lon="55.3858">
        <ele>318</ele>
        <time>2013-01-07T02:36:19Z</time>
      </trkpt>
      <trkpt lat="-20.89882" lon="55.38574">
        <ele>316</ele>
        <time>2013-01-07T02:36:24Z</time>
      </trkpt>
      <trkpt lat="-20.89872" lon="55.38569">
        <ele>313</ele>
        <time>2013-01-07T02:36:29Z</time>
      </trkpt>
      <trkpt lat="-20.89864" lon="55.38564">
        <ele>310</ele>
        <time>2013-01-07T02:36:34Z</time>
      </trkpt>
      <trkpt lat="-20.89855" lon="55.38557">
        <ele>308</ele>
        <time>2013-01-07T02:36:39Z</time>
      </trkpt>
      <trkpt lat="-20.89846" lon="55.38552">
        <ele>306</ele>
        <time>2013-01-07T02:36:44Z</time>
      </trkpt>
      <trkpt lat="-20.89836" lon="55.3855">
        <ele>303</ele>
        <time>2013-01-07T02:36:49Z</time>
      </trkpt>
      <trkpt lat="-20.89824" lon="55.38544">
        <ele>301</ele>
        <time>2013-01-07T02:36:54Z</time>
      </trkpt>
      <trkpt lat="-20.89815" lon="55.38537">
        <ele>298</ele>
        <time>2013-01-07T02:36:59Z</time>
      </trkpt>
      <trkpt lat="-20.89805" lon="55.3853">
        <ele>296</ele>
        <time>2013-01-07T02:37:04Z</time>
      </trkpt>
      <trkpt lat="-20.89794" lon="55.38523">
        <ele>294</ele>
        <time>2013-01-07T02:37:09Z</time>
      </trkpt>
      <trkpt lat="-20.89782" lon="55.38514">
        <ele>293</ele>
        <time>2013-01-07T02:37:15Z</time>
      </trkpt>
      <trkpt lat="-20.89771" lon="55.38507">
        <ele>292</ele>
        <time>2013-01-07T02:37:20Z</time>
      </trkpt>
      <trkpt lat="-20.89762" lon="55.38501">
        <ele>291</ele>
        <time>2013-01-07T02:37:25Z</time>
      </trkpt>
      <trkpt lat="-20.89753" lon="55.38496">
        <ele>289</ele>
        <time>2013-01-07T02:37:30Z</time>
      </trkpt>
      <trkpt lat="-20.89745" lon="55.38486">
        <ele>287</ele>
        <time>2013-01-07T02:37:35Z</time>
      </trkpt>
      <trkpt lat="-20.89736" lon="55.38477">
        <ele>287</ele>
        <time>2013-01-07T02:37:40Z</time>
      </trkpt>
      <trkpt lat="-20.89728" lon="55.38468">
        <ele>285</ele>
        <time>2013-01-07T02:37:45Z</time>
      </trkpt>
      <trkpt lat="-20.8972" lon="55.38458">
        <ele>284</ele>
        <time>2013-01-07T02:37:50Z</time>
      </trkpt>
      <trkpt lat="-20.8971" lon="55.3845">
        <ele>284</ele>
        <time>2013-01-07T02:37:55Z</time>
      </trkpt>
      <trkpt lat="-20.89703" lon="55.38441">
        <ele>283</ele>
        <time>2013-01-07T02:38:00Z</time>
      </trkpt>
      <trkpt lat="-20.89695" lon="55.38432">
        <ele>282</ele>
        <time>2013-01-07T02:38:05Z</time>
      </trkpt>
      <trkpt lat="-20.89688" lon="55.38421">
        <ele>281</ele>
        <time>2013-01-07T02:38:10Z</time>
      </trkpt>
      <trkpt lat="-20.8968" lon="55.38412">
        <ele>280</ele>
        <time>2013-01-07T02:38:15Z</time>
      </trkpt>
      <trkpt lat="-20.89673" lon="55.38402">
        <ele>279</ele>
        <time>2013-01-07T02:38:20Z</time>
      </trkpt>
      <trkpt lat="-20.89665" lon="55.38396">
        <ele>277</ele>
        <time>2013-01-07T02:38:25Z</time>
      </trkpt>
      <trkpt lat="-20.89655" lon="55.3839">
        <ele>276</ele>
        <time>2013-01-07T02:38:30Z</time>
      </trkpt>
      <trkpt lat="-20.89648" lon="55.38385">
        <ele>274</ele>
        <time>2013-01-07T02:38:36Z</time>
      </trkpt>
      <trkpt lat="-20.8964" lon="55.3838">
        <ele>272</ele>
        <time>2013-01-07T02:38:41Z</time>
      </trkpt>
      <trkpt lat="-20.89631" lon="55.38372">
        <ele>270</ele>
        <time>2013-01-07T02:38:46Z</time>
      </trkpt>
      <trkpt lat="-20.89623" lon="55.38366">
        <ele>268</ele>
        <time>2013-01-07T02:38:51Z</time>
      </trkpt>
      <trkpt lat="-20.89617" lon="55.38358">
        <ele>267</ele>
        <time>2013-01-07T02:38:56Z</time>
      </trkpt>
      <trkpt lat="-20.8961" lon="55.38349">
        <ele>266</ele>
        <time>2013-01-07T02:39:01Z</time>
      </trkpt>
      <trkpt lat="-20.89604" lon="55.3834">
        <ele>264</ele>
        <time>2013-01-07T02:39:06Z</time>
      </trkpt>
      <trkpt lat="-20.89597" lon="55.3833">
        <ele>262</ele>
        <time>2013-01-07T02:39:11Z</time>
      </trkpt>
      <trkpt lat="-20.89591" lon="55.38322">
        <ele>261</ele>
        <time>2013-01-07T02:39:16Z</time>
      </trkpt>
      <trkpt lat="-20.89583" lon="55.38314">
        <ele>260</ele>
        <time>2013-01-07T02:39:21Z</time>
      </trkpt>
      <trkpt lat="-20.89577" lon="55.38306">
        <ele>257</ele>
        <time>2013-01-07T02:39:26Z</time>
      </trkpt>
      <trkpt lat="-20.8957" lon="55.38298">
        <ele>256</ele>
        <time>2013-01-07T02:39:31Z</time>
      </trkpt>
      <trkpt lat="-20.89563" lon="55.38291">
        <ele>254</ele>
        <time>2013-01-07T02:39:36Z</time>
      </trkpt>
      <trkpt lat="-20.89555" lon="55.38283">
        <ele>252</ele>
        <time>2013-01-07T02:39:41Z</time>
      </trkpt>
      <trkpt lat="-20.89549" lon="55.38276">
        <ele>250</ele>
        <time>2013-01-07T02:39:47Z</time>
      </trkpt>
      <trkpt lat="-20.89543" lon="55.38269">
        <ele>248</ele>
        <time>2013-01-07T02:39:52Z</time>
      </trkpt>
      <trkpt lat="-20.89538" lon="55.38263">
        <ele>247</ele>
        <time>2013-01-07T02:39:57Z</time>
      </trkpt>
      <trkpt lat="-20.89531" lon="55.38256">
        <ele>245</ele>
        <time>2013-01-07T02:40:02Z</time>
      </trkpt>
      <trkpt lat="-20.89525" lon="55.38248">
        <ele>244</ele>
        <time>2013-01-07T02:40:07Z</time>
      </trkpt>
      <trkpt lat="-20.8952" lon="55.38242">
        <ele>243</ele>
        <time>2013-01-07T02:40:12Z</time>
      </trkpt>
      <trkpt lat="-20.89513" lon="55.38235">
        <ele>241</ele>
        <time>2013-01-07T02:40:17Z</time>
      </trkpt>
      <trkpt lat="-20.89507" lon="55.38228">
        <ele>239</ele>
        <time>2013-01-07T02:40:22Z</time>
      </trkpt>
      <trkpt lat="-20.895" lon="55.38222">
        <ele>238</ele>
        <time>2013-01-07T02:40:27Z</time>
      </trkpt>
      <trkpt lat="-20.89494" lon="55.38215">
        <ele>236</ele>
        <time>2013-01-07T02:40:32Z</time>
      </trkpt>
      <trkpt lat="-20.89488" lon="55.38209">
        <ele>235</ele>
        <time>2013-01-07T02:40:37Z</time>
      </trkpt>
      <trkpt lat="-20.89482" lon="55.38202">
        <ele>233</ele>
        <time>2013-01-07T02:40:42Z</time>
      </trkpt>
      <trkpt lat="-20.89477" lon="55.38196">
        <ele>232</ele>
        <time>2013-01-07T02:40:47Z</time>
      </trkpt>
      <trkpt lat="-20.8947" lon="55.3819">
        <ele>231</ele>
        <time>2013-01-07T02:40:52Z</time>
      </trkpt>
      <trkpt lat="-20.89464" lon="55.38183">
        <ele>229</ele>
        <time>2013-01-07T02:40:57Z</time>
      </trkpt>
      <trkpt lat="-20.89458" lon="55.38177">
        <ele>228</ele>
        <time>2013-01-07T02:41:02Z</time>
      </trkpt>
      <trkpt lat="-20.89451" lon="55.3817">
        <ele>227</ele>
        <time>2013-01-07T02:41:07Z</time>
      </trkpt>
      <trkpt lat="-20.89445" lon="55.38164">
        <ele>226</ele>
        <time>2013-01-07T02:41:12Z</time>
      </trkpt>
      <trkpt lat="-20.89438" lon="55.38155">
        <ele>224</ele>
        <time>2013-01-07T02:41:17Z</time>
      </trkpt>
      <trkpt lat="-20.89431" lon="55.38148">
        <ele>223</ele>
        <time>2013-01-07T02:41:23Z</time>
      </trkpt>
      <trkpt lat="-20.89425" lon="55.38141">
        <ele>222</ele>
        <time>2013-01-07T02:41:28Z</time>
      </trkpt>
      <trkpt lat="-20.89419" lon="55.38134">
        <ele>220</ele>
        <time>2013-01-07T02:41:33Z</time>
      </trkpt>
      <trkpt lat="-20.89414" lon="55.38127">
        <ele>218</ele>
        <time>2013-01-07T02:41:38Z</time>
      </trkpt>
      <trkpt lat="-20.89415" lon="55.38123">
        <ele>218</ele>
        <time>2013-01-07T02:41:43Z</time>
      </trkpt>
      <trkpt lat="-20.89419" lon="55.38119">
        <ele>217</ele>
        <time>2013-01-07T02:41:48Z</time>
      </trkpt>
      <trkpt lat="-20.89422" lon="55.38113">
        <ele>215</ele>
        <time>2013-01-07T02:41:53Z</time>
      </trkpt>
      <trkpt lat="-20.89414" lon="55.38108">
        <ele>214</ele>
        <time>2013-01-07T02:41:58Z</time>
      </trkpt>
      <trkpt lat="-20.89406" lon="55.38104">
        <ele>212</ele>
        <time>2013-01-07T02:42:03Z</time>
      </trkpt>
      <trkpt lat="-20.89399" lon="55.38099">
        <ele>211</ele>
        <time>2013-01-07T02:42:08Z</time>
      </trkpt>
      <trkpt lat="-20.89393" lon="55.38095">
        <ele>210</ele>
        <time>2013-01-07T02:42:13Z</time>
      </trkpt>
      <trkpt lat="-20.89393" lon="55.38091">
        <ele>209</ele>
        <time>2013-01-07T02:42:18Z</time>
      </trkpt>
      <trkpt lat="-20.894" lon="55.38092">
        <ele>208</ele>
        <time>2013-01-07T02:42:23Z</time>
      </trkpt>
      <trkpt lat="-20.89406" lon="55.38094">
        <ele>206</ele>
        <time>2013-01-07T02:42:28Z</time>
      </trkpt>
      <trkpt lat="-20.89414" lon="55.38097">
        <ele>205</ele>
        <time>2013-01-07T02:42:33Z</time>
      </trkpt>
      <trkpt lat="-20.89421" lon="55.38097">
        <ele>203</ele>
        <time>2013-01-07T02:42:38Z</time>
      </trkpt>
      <trkpt lat="-20.89422" lon="55.38093">
        <ele>201</ele>
        <time>2013-01-07T02:42:43Z</time>
      </trkpt>
      <trkpt lat="-20.89418" lon="55.38087">
        <ele>200</ele>
        <time>2013-01-07T02:42:49Z</time>
      </trkpt>
      <trkpt lat="-20.89418" lon="55.38082">
        <ele>198</ele>
        <time>2013-01-07T02:42:54Z</time>
      </trkpt>
      <trkpt lat="-20.89425" lon="55.38079">
        <ele>197</ele>
        <time>2013-01-07T02:42:59Z</time>
      </trkpt>
      <trkpt lat="-20.89432" lon="55.38079">
        <ele>195</ele>
        <time>2013-01-07T02:43:04Z</time>
      </trkpt>
      <trkpt lat="-20.89437" lon="55.38077">
        <ele>192</ele>
        <time>2013-01-07T02:43:09Z</time>
      </trkpt>
      <trkpt lat="-20.89433" lon="55.38073">
        <ele>191</ele>
        <time>2013-01-07T02:43:14Z</time>
      </trkpt>
      <trkpt lat="-20.89429" lon="55.38069">
        <ele>189</ele>
        <time>2013-01-07T02:43:19Z</time>
      </trkpt>
      <trkpt lat="-20.89424" lon="55.38065">
        <ele>187</ele>
        <time>2013-01-07T02:43:24Z</time>
      </trkpt>
      <trkpt lat="-20.89418" lon="55.38059">
        <ele>185</ele>
        <time>2013-01-07T02:43:29Z</time>
      </trkpt>
      <trkpt lat="-20.89416" lon="55.38054">
        <ele>182</ele>
        <time>2013-01-07T02:43:34Z</time>
      </trkpt>
      <trkpt lat="-20.89417" lon="55.38051">
        <ele>181</ele>
        <time>2013-01-07T02:43:39Z</time>
      </trkpt>
      <trkpt lat="-20.89422" lon="55.3805">
        <ele>179</ele>
        <time>2013-01-07T02:43:44Z</time>
      </trkpt>
      <trkpt lat="-20.89429" lon="55.38052">
        <ele>178</ele>
        <time>2013-01-07T02:43:50Z</time>
      </trkpt>
      <trkpt lat="-20.89434" lon="55.38053">
        <ele>176</ele>
        <time>2013-01-07T02:43:55Z</time>
      </trkpt>
      <trkpt lat="-20.89438" lon="55.38054">
        <ele>175</ele>
        <time>2013-01-07T02:44:00Z</time>
      </trkpt>
      <trkpt lat="-20.89442" lon="55.38056">
        <ele>173</ele>
        <time>2013-01-07T02:44:05Z</time>
      </trkpt>
      <trkpt lat="-20.89451" lon="55.38057">
        <ele>172</ele>
        <time>2013-01-07T02:44:10Z</time>
      </trkpt>
      <trkpt lat="-20.89457" lon="55.38062">
        <ele>171</ele>
        <time>2013-01-07T02:44:15Z</time>
      </trkpt>
      <trkpt lat="-20.89462" lon="55.38064">
        <ele>170</ele>
        <time>2013-01-07T02:44:20Z</time>
      </trkpt>
      <trkpt lat="-20.89468" lon="55.38064">
        <ele>169</ele>
        <time>2013-01-07T02:44:25Z</time>
      </trkpt>
      <trkpt lat="-20.89473" lon="55.38062">
        <ele>167</ele>
        <time>2013-01-07T02:44:30Z</time>
      </trkpt>
      <trkpt lat="-20.89471" lon="55.38058">
        <ele>166</ele>
        <time>2013-01-07T02:44:35Z</time>
      </trkpt>
      <trkpt lat="-20.89469" lon="55.38052">
        <ele>164</ele>
        <time>2013-01-07T02:44:40Z</time>
      </trkpt>
      <trkpt lat="-20.89468" lon="55.38047">
        <ele>163</ele>
        <time>2013-01-07T02:44:45Z</time>
      </trkpt>
      <trkpt lat="-20.89468" lon="55.38045">
        <ele>161</ele>
        <time>2013-01-07T02:44:50Z</time>
      </trkpt>
      <trkpt lat="-20.89466" lon="55.38037">
        <ele>160</ele>
        <time>2013-01-07T02:44:55Z</time>
      </trkpt>
      <trkpt lat="-20.89463" lon="55.38031">
        <ele>158</ele>
        <time>2013-01-07T02:45:01Z</time>
      </trkpt>
      <trkpt lat="-20.8946" lon="55.38024">
        <ele>156</ele>
        <time>2013-01-07T02:45:06Z</time>
      </trkpt>
      <trkpt lat="-20.89454" lon="55.3802">
        <ele>154</ele>
        <time>2013-01-07T02:45:11Z</time>
      </trkpt>
      <trkpt lat="-20.8945" lon="55.38014">
        <ele>152</ele>
        <time>2013-01-07T02:45:16Z</time>
      </trkpt>
      <trkpt lat="-20.89446" lon="55.38009">
        <ele>151</ele>
        <time>2013-01-07T02:45:21Z</time>
      </trkpt>
      <trkpt lat="-20.89441" lon="55.38004">
        <ele>149</ele>
        <time>2013-01-07T02:45:26Z</time>
      </trkpt>
      <trkpt lat="-20.89443" lon="55.38002">
        <ele>148</ele>
        <time>2013-01-07T02:45:31Z</time>
      </trkpt>
      <trkpt lat="-20.89449" lon="55.38002">
        <ele>146</ele>
        <time>2013-01-07T02:45:36Z</time>
      </trkpt>
      <trkpt lat="-20.89456" lon="55.38003">
        <ele>145</ele>
        <time>2013-01-07T02:45:41Z</time>
      </trkpt>
      <trkpt lat="-20.89463" lon="55.38005">
        <ele>143</ele>
        <time>2013-01-07T02:45:46Z</time>
      </trkpt>
      <trkpt lat="-20.89468" lon="55.38005">
        <ele>140</ele>
        <time>2013-01-07T02:45:51Z</time>
      </trkpt>
      <trkpt lat="-20.89469" lon="55.38001">
        <ele>138</ele>
        <time>2013-01-07T02:45:56Z</time>
      </trkpt>
      <trkpt lat="-20.89465" lon="55.37997">
        <ele>137</ele>
        <time>2013-01-07T02:46:01Z</time>
      </trkpt>
      <trkpt lat="-20.89465" lon="55.37991">
        <ele>135</ele>
        <time>2013-01-07T02:46:06Z</time>
      </trkpt>
      <trkpt lat="-20.89462" lon="55.37984">
        <ele>133</ele>
        <time>2013-01-07T02:46:11Z</time>
      </trkpt>
      <trkpt lat="-20.89459" lon="55.37978">
        <ele>131</ele>
        <time>2013-01-07T02:46:16Z</time>
      </trkpt>
      <trkpt lat="-20.89455" lon="55.3797">
        <ele>129</ele>
        <time>2013-01-07T02:46:21Z</time>
      </trkpt>
      <trkpt lat="-20.8945" lon="55.37961">
        <ele>127</ele>
        <time>2013-01-07T02:46:26Z</time>
      </trkpt>
      <trkpt lat="-20.89445" lon="55.37954">
        <ele>125</ele>
        <time>2013-01-07T02:46:31Z</time>
      </trkpt>
      <trkpt lat="-20.89441" lon="55.37946">
        <ele>123</ele>
        <time>2013-01-07T02:46:36Z</time>
      </trkpt>
      <trkpt lat="-20.89446" lon="55.37944">
        <ele>121</ele>
        <time>2013-01-07T02:46:41Z</time>
      </trkpt>
      <trkpt lat="-20.89455" lon="55.37946">
        <ele>119</ele>
        <time>2013-01-07T02:46:47Z</time>
      </trkpt>
      <trkpt lat="-20.89463" lon="55.37948">
        <ele>117</ele>
        <time>2013-01-07T02:46:52Z</time>
      </trkpt>
      <trkpt lat="-20.89472" lon="55.37949">
        <ele>115</ele>
        <time>2013-01-07T02:46:57Z</time>
      </trkpt>
      <trkpt lat="-20.8948" lon="55.37954">
        <ele>113</ele>
        <time>2013-01-07T02:47:02Z</time>
      </trkpt>
      <trkpt lat="-20.89486" lon="55.37955">
        <ele>111</ele>
        <time>2013-01-07T02:47:07Z</time>
      </trkpt>
      <trkpt lat="-20.89493" lon="55.37957">
        <ele>109</ele>
        <time>2013-01-07T02:47:12Z</time>
      </trkpt>
      <trkpt lat="-20.895" lon="55.3796">
        <ele>106</ele>
        <time>2013-01-07T02:47:17Z</time>
      </trkpt>
      <trkpt lat="-20.89507" lon="55.37965">
        <ele>104</ele>
        <time>2013-01-07T02:47:22Z</time>
      </trkpt>
      <trkpt lat="-20.89515" lon="55.3797">
        <ele>102</ele>
        <time>2013-01-07T02:47:27Z</time>
      </trkpt>
      <trkpt lat="-20.8952" lon="55.37968">
        <ele>99</ele>
        <time>2013-01-07T02:47:32Z</time>
      </trkpt>
      <trkpt lat="-20.89519" lon="55.37958">
        <ele>97</ele>
        <time>2013-01-07T02:47:37Z</time>
      </trkpt>
      <trkpt lat="-20.89517" lon="55.37949">
        <ele>96</ele>
        <time>2013-01-07T02:47:43Z</time>
      </trkpt>
      <trkpt lat="-20.89517" lon="55.3794">
        <ele>94</ele>
        <time>2013-01-07T02:47:48Z</time>
      </trkpt>
      <trkpt lat="-20.89516" lon="55.37931">
        <ele>91</ele>
        <time>2013-01-07T02:47:53Z</time>
      </trkpt>
      <trkpt lat="-20.89516" lon="55.37922">
        <ele>89</ele>
        <time>2013-01-07T02:47:58Z</time>
      </trkpt>
      <trkpt lat="-20.89516" lon="55.37912">
        <ele>85</ele>
        <time>2013-01-07T02:48:03Z</time>
      </trkpt>
      <trkpt lat="-20.89513" lon="55.37903">
        <ele>83</ele>
        <time>2013-01-07T02:48:08Z</time>
      </trkpt>
      <trkpt lat="-20.89508" lon="55.37896">
        <ele>81</ele>
        <time>2013-01-07T02:48:13Z</time>
      </trkpt>
      <trkpt lat="-20.89503" lon="55.37888">
        <ele>78</ele>
        <time>2013-01-07T02:48:18Z</time>
      </trkpt>
      <trkpt lat="-20.89497" lon="55.37879">
        <ele>76</ele>
        <time>2013-01-07T02:48:23Z</time>
      </trkpt>
      <trkpt lat="-20.89496" lon="55.37873">
        <ele>73</ele>
        <time>2013-01-07T02:48:28Z</time>
      </trkpt>
      <trkpt lat="-20.89507" lon="55.37872">
        <ele>71</ele>
        <time>2013-01-07T02:48:33Z</time>
      </trkpt>
      <trkpt lat="-20.89515" lon="55.37871">
        <ele>68</ele>
        <time>2013-01-07T02:48:38Z</time>
      </trkpt>
      <trkpt lat="-20.89522" lon="55.37869">
        <ele>66</ele>
        <time>2013-01-07T02:48:43Z</time>
      </trkpt>
      <trkpt lat="-20.8953" lon="55.37866">
        <ele>64</ele>
        <time>2013-01-07T02:48:48Z</time>
      </trkpt>
      <trkpt lat="-20.89536" lon="55.37864">
        <ele>62</ele>
        <time>2013-01-07T02:48:53Z</time>
      </trkpt>
      <trkpt lat="-20.89543" lon="55.37865">
        <ele>61</ele>
        <time>2013-01-07T02:48:58Z</time>
      </trkpt>
      <trkpt lat="-20.89545" lon="55.3786">
        <ele>60</ele>
        <time>2013-01-07T02:49:03Z</time>
      </trkpt>
      <trkpt lat="-20.89547" lon="55.37856">
        <ele>59</ele>
        <time>2013-01-07T02:49:08Z</time>
      </trkpt>
      <trkpt lat="-20.89546" lon="55.3785">
        <ele>58</ele>
        <time>2013-01-07T02:49:13Z</time>
      </trkpt>
      <trkpt lat="-20.89546" lon="55.37843">
        <ele>56</ele>
        <time>2013-01-07T02:49:18Z</time>
      </trkpt>
      <trkpt lat="-20.89545" lon="55.37838">
        <ele>54</ele>
        <time>2013-01-07T02:49:24Z</time>
      </trkpt>
      <trkpt lat="-20.89544" lon="55.3783">
        <ele>51</ele>
        <time>2013-01-07T02:49:29Z</time>
      </trkpt>
      <trkpt lat="-20.89541" lon="55.37822">
        <ele>49</ele>
        <time>2013-01-07T02:49:34Z</time>
      </trkpt>
      <trkpt lat="-20.89539" lon="55.37815">
        <ele>48</ele>
        <time>2013-01-07T02:49:39Z</time>
      </trkpt>
      <trkpt lat="-20.89535" lon="55.37808">
        <ele>46</ele>
        <time>2013-01-07T02:49:44Z</time>
      </trkpt>
      <trkpt lat="-20.89533" lon="55.378">
        <ele>43</ele>
        <time>2013-01-07T02:49:49Z</time>
      </trkpt>
      <trkpt lat="-20.89531" lon="55.37793">
        <ele>42</ele>
        <time>2013-01-07T02:49:54Z</time>
      </trkpt>
      <trkpt lat="-20.89531" lon="55.37788">
        <ele>40</ele>
        <time>2013-01-07T02:49:59Z</time>
      </trkpt>
      <trkpt lat="-20.89534" lon="55.3778">
        <ele>38</ele>
        <time>2013-01-07T02:50:04Z</time>
      </trkpt>
      <trkpt lat="-20.89536" lon="55.37773">
        <ele>36</ele>
        <time>2013-01-07T02:50:09Z</time>
      </trkpt>
      <trkpt lat="-20.89539" lon="55.37766">
        <ele>34</ele>
        <time>2013-01-07T02:50:14Z</time>
      </trkpt>
      <trkpt lat="-20.89539" lon="55.37764">
        <ele>33</ele>
        <time>2013-01-07T02:50:19Z</time>
      </trkpt>
      <trkpt lat="-20.89539" lon="55.37763">
        <ele>33</ele>
        <time>2013-01-07T02:50:24Z</time>
      </trkpt>
      <trkpt lat="-20.8954" lon="55.37763">
        <ele>33</ele>
        <time>2013-01-07T02:50:29Z</time>
      </trkpt>
      <trkpt lat="-20.89543" lon="55.37761">
        <ele>33</ele>
        <time>2013-01-07T02:50:34Z</time>
      </trkpt>
      <trkpt lat="-20.89541" lon="55.37762">
        <ele>33</ele>
        <time>2013-01-07T02:50:39Z</time>
      </trkpt>
      <trkpt lat="-20.89536" lon="55.37758">
        <ele>32</ele>
        <time>2013-01-07T02:50:44Z</time>
      </trkpt>
      <trkpt lat="-20.89545" lon="55.37748">
        <ele>33</ele>
        <time>2013-01-07T02:50:49Z</time>
      </trkpt>
      <trkpt lat="-20.89555" lon="55.37741">
        <ele>33</ele>
        <time>2013-01-07T02:50:54Z</time>
      </trkpt>
      <trkpt lat="-20.89565" lon="55.37735">
        <ele>33</ele>
        <time>2013-01-07T02:51:00Z</time>
      </trkpt>
      <trkpt lat="-20.89576" lon="55.37726">
        <ele>33</ele>
        <time>2013-01-07T02:51:05Z</time>
      </trkpt>
      <trkpt lat="-20.89588" lon="55.37719">
        <ele>33</ele>
        <time>2013-01-07T02:51:10Z</time>
      </trkpt>
      <trkpt lat="-20.896" lon="55.37713">
        <ele>33</ele>
        <time>2013-01-07T02:51:15Z</time>
      </trkpt>
      <trkpt lat="-20.89611" lon="55.37706">
        <ele>33</ele>
        <time>2013-01-07T02:51:20Z</time>
      </trkpt>
      <trkpt lat="-20.8962" lon="55.37697">
        <ele>33</ele>
        <time>2013-01-07T02:51:25Z</time>
      </trkpt>
      <trkpt lat="-20.89628" lon="55.37686">
        <ele>33</ele>
        <time>2013-01-07T02:51:30Z</time>
      </trkpt>
      <trkpt lat="-20.89638" lon="55.37674">
        <ele>33</ele>
        <time>2013-01-07T02:51:35Z</time>
      </trkpt>
      <trkpt lat="-20.89646" lon="55.37661">
        <ele>33</ele>
        <time>2013-01-07T02:51:40Z</time>
      </trkpt>
      <trkpt lat="-20.89654" lon="55.37645">
        <ele>32</ele>
        <time>2013-01-07T02:51:45Z</time>
      </trkpt>
      <trkpt lat="-20.89659" lon="55.3763">
        <ele>32</ele>
        <time>2013-01-07T02:51:50Z</time>
      </trkpt>
      <trkpt lat="-20.89666" lon="55.37615">
        <ele>32</ele>
        <time>2013-01-07T02:51:55Z</time>
      </trkpt>
      <trkpt lat="-20.89671" lon="55.376">
        <ele>32</ele>
        <time>2013-01-07T02:52:00Z</time>
      </trkpt>
      <trkpt lat="-20.89677" lon="55.37584">
        <ele>31</ele>
        <time>2013-01-07T02:52:05Z</time>
      </trkpt>
      <trkpt lat="-20.89683" lon="55.3757">
        <ele>31</ele>
        <time>2013-01-07T02:52:10Z</time>
      </trkpt>
      <trkpt lat="-20.89689" lon="55.37558">
        <ele>31</ele>
        <time>2013-01-07T02:52:15Z</time>
      </trkpt>
      <trkpt lat="-20.89701" lon="55.37544">
        <ele>31</ele>
        <time>2013-01-07T02:52:20Z</time>
      </trkpt>
      <trkpt lat="-20.89715" lon="55.37543">
        <ele>31</ele>
        <time>2013-01-07T02:52:26Z</time>
      </trkpt>
      <trkpt lat="-20.89729" lon="55.37545">
        <ele>31</ele>
        <time>2013-01-07T02:52:31Z</time>
      </trkpt>
      <trkpt lat="-20.89741" lon="55.3755">
        <ele>31</ele>
        <time>2013-01-07T02:52:36Z</time>
      </trkpt>
      <trkpt lat="-20.89754" lon="55.37554">
        <ele>30</ele>
        <time>2013-01-07T02:52:41Z</time>
      </trkpt>
      <trkpt lat="-20.89767" lon="55.37559">
        <ele>30</ele>
        <time>2013-01-07T02:52:46Z</time>
      </trkpt>
      <trkpt lat="-20.89777" lon="55.37562">
        <ele>30</ele>
        <time>2013-01-07T02:52:51Z</time>
      </trkpt>
      <trkpt lat="-20.89784" lon="55.37564">
        <ele>31</ele>
        <time>2013-01-07T02:52:56Z</time>
      </trkpt>
      <trkpt lat="-20.89791" lon="55.37567">
        <ele>32</ele>
        <time>2013-01-07T02:53:01Z</time>
      </trkpt>
      <trkpt lat="-20.89799" lon="55.3757">
        <ele>32</ele>
        <time>2013-01-07T02:53:06Z</time>
      </trkpt>
      <trkpt lat="-20.89811" lon="55.37571">
        <ele>32</ele>
        <time>2013-01-07T02:53:11Z</time>
      </trkpt>
      <trkpt lat="-20.89824" lon="55.37569">
        <ele>32</ele>
        <time>2013-01-07T02:53:16Z</time>
      </trkpt>
      <trkpt lat="-20.89837" lon="55.37567">
        <ele>33</ele>
        <time>2013-01-07T02:53:21Z</time>
      </trkpt>
      <trkpt lat="-20.89849" lon="55.37564">
        <ele>33</ele>
        <time>2013-01-07T02:53:26Z</time>
      </trkpt>
      <trkpt lat="-20.89862" lon="55.37563">
        <ele>34</ele>
        <time>2013-01-07T02:53:31Z</time>
      </trkpt>
      <trkpt lat="-20.89874" lon="55.3756">
        <ele>34</ele>
        <time>2013-01-07T02:53:36Z</time>
      </trkpt>
      <trkpt lat="-20.89889" lon="55.37555">
        <ele>35</ele>
        <time>2013-01-07T02:53:41Z</time>
      </trkpt>
      <trkpt lat="-20.899" lon="55.37547">
        <ele>36</ele>
        <time>2013-01-07T02:53:46Z</time>
      </trkpt>
      <trkpt lat="-20.8991" lon="55.37538">
        <ele>36</ele>
        <time>2013-01-07T02:53:52Z</time>
      </trkpt>
      <trkpt lat="-20.89916" lon="55.37529">
        <ele>37</ele>
        <time>2013-01-07T02:53:57Z</time>
      </trkpt>
      <trkpt lat="-20.89927" lon="55.37526">
        <ele>38</ele>
        <time>2013-01-07T02:54:02Z</time>
      </trkpt>
      <trkpt lat="-20.89938" lon="55.37526">
        <ele>38</ele>
        <time>2013-01-07T02:54:07Z</time>
      </trkpt>
      <trkpt lat="-20.8995" lon="55.37527">
        <ele>39</ele>
        <time>2013-01-07T02:54:12Z</time>
      </trkpt>
      <trkpt lat="-20.89961" lon="55.37529">
        <ele>39</ele>
        <time>2013-01-07T02:54:17Z</time>
      </trkpt>
      <trkpt lat="-20.89972" lon="55.37532">
        <ele>40</ele>
        <time>2013-01-07T02:54:22Z</time>
      </trkpt>
      <trkpt lat="-20.89982" lon="55.37535">
        <ele>40</ele>
        <time>2013-01-07T02:54:27Z</time>
      </trkpt>
      <trkpt lat="-20.89994" lon="55.37539">
        <ele>41</ele>
        <time>2013-01-07T02:54:32Z</time>
      </trkpt>
      <trkpt lat="-20.90006" lon="55.37543">
        <ele>41</ele>
        <time>2013-01-07T02:54:37Z</time>
      </trkpt>
      <trkpt lat="-20.90017" lon="55.37548">
        <ele>41</ele>
        <time>2013-01-07T02:54:42Z</time>
      </trkpt>
      <trkpt lat="-20.90029" lon="55.37554">
        <ele>41</ele>
        <time>2013-01-07T02:54:47Z</time>
      </trkpt>
      <trkpt lat="-20.9004" lon="55.37559">
        <ele>41</ele>
        <time>2013-01-07T02:54:52Z</time>
      </trkpt>
      <trkpt lat="-20.90053" lon="55.37564">
        <ele>40</ele>
        <time>2013-01-07T02:54:57Z</time>
      </trkpt>
      <trkpt lat="-20.90064" lon="55.3757">
        <ele>40</ele>
        <time>2013-01-07T02:55:02Z</time>
      </trkpt>
      <trkpt lat="-20.90073" lon="55.37568">
        <ele>40</ele>
        <time>2013-01-07T02:55:08Z</time>
      </trkpt>
      <trkpt lat="-20.9008" lon="55.37566">
        <ele>40</ele>
        <time>2013-01-07T02:55:13Z</time>
      </trkpt>
      <trkpt lat="-20.90085" lon="55.37568">
        <ele>40</ele>
        <time>2013-01-07T02:55:18Z</time>
      </trkpt>
      <trkpt lat="-20.90091" lon="55.37568">
        <ele>41</ele>
        <time>2013-01-07T02:55:23Z</time>
      </trkpt>
      <trkpt lat="-20.90096" lon="55.37571">
        <ele>42</ele>
        <time>2013-01-07T02:55:28Z</time>
      </trkpt>
      <trkpt lat="-20.90101" lon="55.37572">
        <ele>43</ele>
        <time>2013-01-07T02:55:33Z</time>
      </trkpt>
      <trkpt lat="-20.90106" lon="55.37574">
        <ele>45</ele>
        <time>2013-01-07T02:55:38Z</time>
      </trkpt>
      <trkpt lat="-20.90111" lon="55.37572">
        <ele>46</ele>
        <time>2013-01-07T02:55:43Z</time>
      </trkpt>
      <trkpt lat="-20.90113" lon="55.3757">
        <ele>47</ele>
        <time>2013-01-07T02:55:48Z</time>
      </trkpt>
      <trkpt lat="-20.90115" lon="55.37566">
        <ele>48</ele>
        <time>2013-01-07T02:55:53Z</time>
      </trkpt>
      <trkpt lat="-20.90116" lon="55.37561">
        <ele>49</ele>
        <time>2013-01-07T02:55:58Z</time>
      </trkpt>
      <trkpt lat="-20.9012" lon="55.37561">
        <ele>50</ele>
        <time>2013-01-07T02:56:03Z</time>
      </trkpt>
      <trkpt lat="-20.90124" lon="55.37563">
        <ele>51</ele>
        <time>2013-01-07T02:56:08Z</time>
      </trkpt>
      <trkpt lat="-20.90128" lon="55.37566">
        <ele>52</ele>
        <time>2013-01-07T02:56:13Z</time>
      </trkpt>
      <trkpt lat="-20.90132" lon="55.3757">
        <ele>54</ele>
        <time>2013-01-07T02:56:18Z</time>
      </trkpt>
      <trkpt lat="-20.90136" lon="55.37572">
        <ele>55</ele>
        <time>2013-01-07T02:56:23Z</time>
      </trkpt>
      <trkpt lat="-20.90139" lon="55.37576">
        <ele>56</ele>
        <time>2013-01-07T02:56:29Z</time>
      </trkpt>
      <trkpt lat="-20.90142" lon="55.37579">
        <ele>57</ele>
        <time>2013-01-07T02:56:34Z</time>
      </trkpt>
      <trkpt lat="-20.90146" lon="55.37582">
        <ele>58</ele>
        <time>2013-01-07T02:56:39Z</time>
      </trkpt>
      <trkpt lat="-20.90149" lon="55.37585">
        <ele>59</ele>
        <time>2013-01-07T02:56:44Z</time>
      </trkpt>
      <trkpt lat="-20.90153" lon="55.37589">
        <ele>60</ele>
        <time>2013-01-07T02:56:49Z</time>
      </trkpt>
      <trkpt lat="-20.90157" lon="55.37591">
        <ele>61</ele>
        <time>2013-01-07T02:56:54Z</time>
      </trkpt>
      <trkpt lat="-20.9016" lon="55.3759">
        <ele>62</ele>
        <time>2013-01-07T02:56:59Z</time>
      </trkpt>
      <trkpt lat="-20.90162" lon="55.37586">
        <ele>64</ele>
        <time>2013-01-07T02:57:04Z</time>
      </trkpt>
      <trkpt lat="-20.90166" lon="55.37587">
        <ele>65</ele>
        <time>2013-01-07T02:57:09Z</time>
      </trkpt>
      <trkpt lat="-20.9017" lon="55.37589">
        <ele>66</ele>
        <time>2013-01-07T02:57:14Z</time>
      </trkpt>
      <trkpt lat="-20.90175" lon="55.37587">
        <ele>67</ele>
        <time>2013-01-07T02:57:19Z</time>
      </trkpt>
      <trkpt lat="-20.90181" lon="55.37585">
        <ele>68</ele>
        <time>2013-01-07T02:57:25Z</time>
      </trkpt>
      <trkpt lat="-20.90185" lon="55.37583">
        <ele>69</ele>
        <time>2013-01-07T02:57:30Z</time>
      </trkpt>
      <trkpt lat="-20.90188" lon="55.3758">
        <ele>70</ele>
        <time>2013-01-07T02:57:35Z</time>
      </trkpt>
      <trkpt lat="-20.90192" lon="55.37578">
        <ele>71</ele>
        <time>2013-01-07T02:57:40Z</time>
      </trkpt>
      <trkpt lat="-20.90196" lon="55.37577">
        <ele>72</ele>
        <time>2013-01-07T02:57:45Z</time>
      </trkpt>
      <trkpt lat="-20.90199" lon="55.37574">
        <ele>73</ele>
        <time>2013-01-07T02:57:50Z</time>
      </trkpt>
      <trkpt lat="-20.90202" lon="55.37571">
        <ele>75</ele>
        <time>2013-01-07T02:57:55Z</time>
      </trkpt>
      <trkpt lat="-20.90207" lon="55.3757">
        <ele>76</ele>
        <time>2013-01-07T02:58:00Z</time>
      </trkpt>
      <trkpt lat="-20.90211" lon="55.3757">
        <ele>77</ele>
        <time>2013-01-07T02:58:05Z</time>
      </trkpt>
      <trkpt lat="-20.90215" lon="55.37569">
        <ele>78</ele>
        <time>2013-01-07T02:58:10Z</time>
      </trkpt>
      <trkpt lat="-20.90219" lon="55.37568">
        <ele>79</ele>
        <time>2013-01-07T02:58:15Z</time>
      </trkpt>
      <trkpt lat="-20.90223" lon="55.37569">
        <ele>80</ele>
        <time>2013-01-07T02:58:20Z</time>
      </trkpt>
      <trkpt lat="-20.90227" lon="55.37567">
        <ele>81</ele>
        <time>2013-01-07T02:58:25Z</time>
      </trkpt>
      <trkpt lat="-20.9023" lon="55.37565">
        <ele>82</ele>
        <time>2013-01-07T02:58:30Z</time>
      </trkpt>
      <trkpt lat="-20.90229" lon="55.37561">
        <ele>83</ele>
        <time>2013-01-07T02:58:35Z</time>
      </trkpt>
      <trkpt lat="-20.90228" lon="55.37558">
        <ele>85</ele>
        <time>2013-01-07T02:58:40Z</time>
      </trkpt>
      <trkpt lat="-20.90225" lon="55.37558">
        <ele>86</ele>
        <time>2013-01-07T02:58:45Z</time>
      </trkpt>
      <trkpt lat="-20.90223" lon="55.37557">
        <ele>87</ele>
        <time>2013-01-07T02:58:50Z</time>
      </trkpt>
      <trkpt lat="-20.90219" lon="55.37555">
        <ele>88</ele>
        <time>2013-01-07T02:58:56Z</time>
      </trkpt>
      <trkpt lat="-20.90218" lon="55.37551">
        <ele>90</ele>
        <time>2013-01-07T02:59:01Z</time>
      </trkpt>
      <trkpt lat="-20.90215" lon="55.37548">
        <ele>91</ele>
        <time>2013-01-07T02:59:06Z</time>
      </trkpt>
      <trkpt lat="-20.90212" lon="55.37544">
        <ele>92</ele>
        <time>2013-01-07T02:59:11Z</time>
      </trkpt>
      <trkpt lat="-20.9021" lon="55.37541">
        <ele>93</ele>
        <time>2013-01-07T02:59:16Z</time>
      </trkpt>
      <trkpt lat="-20.90208" lon="55.37536">
        <ele>94</ele>
        <time>2013-01-07T02:59:21Z</time>
      </trkpt>
      <trkpt lat="-20.90211" lon="55.37533">
        <ele>95</ele>
        <time>2013-01-07T02:59:26Z</time>
      </trkpt>
      <trkpt lat="-20.90214" lon="55.37532">
        <ele>97</ele>
        <time>2013-01-07T02:59:31Z</time>
      </trkpt>
      <trkpt lat="-20.90216" lon="55.37531">
        <ele>98</ele>
        <time>2013-01-07T02:59:36Z</time>
      </trkpt>
      <trkpt lat="-20.9022" lon="55.37531">
        <ele>99</ele>
        <time>2013-01-07T02:59:41Z</time>
      </trkpt>
      <trkpt lat="-20.90225" lon="55.37531">
        <ele>100</ele>
        <time>2013-01-07T02:59:46Z</time>
      </trkpt>
      <trkpt lat="-20.90229" lon="55.37531">
        <ele>101</ele>
        <time>2013-01-07T02:59:51Z</time>
      </trkpt>
      <trkpt lat="-20.90232" lon="55.3753">
        <ele>102</ele>
        <time>2013-01-07T02:59:56Z</time>
      </trkpt>
      <trkpt lat="-20.90236" lon="55.3753">
        <ele>103</ele>
        <time>2013-01-07T03:00:02Z</time>
      </trkpt>
      <trkpt lat="-20.90239" lon="55.3753">
        <ele>105</ele>
        <time>2013-01-07T03:00:07Z</time>
      </trkpt>
      <trkpt lat="-20.90243" lon="55.3753">
        <ele>106</ele>
        <time>2013-01-07T03:00:12Z</time>
      </trkpt>
      <trkpt lat="-20.90246" lon="55.37529">
        <ele>107</ele>
        <time>2013-01-07T03:00:17Z</time>
      </trkpt>
      <trkpt lat="-20.90248" lon="55.37528">
        <ele>108</ele>
        <time>2013-01-07T03:00:22Z</time>
      </trkpt>
      <trkpt lat="-20.90249" lon="55.37526">
        <ele>109</ele>
        <time>2013-01-07T03:00:27Z</time>
      </trkpt>
      <trkpt lat="-20.90249" lon="55.37522">
        <ele>110</ele>
        <time>2013-01-07T03:00:32Z</time>
      </trkpt>
      <trkpt lat="-20.90247" lon="55.37519">
        <ele>111</ele>
        <time>2013-01-07T03:00:37Z</time>
      </trkpt>
      <trkpt lat="-20.90244" lon="55.37516">
        <ele>112</ele>
        <time>2013-01-07T03:00:42Z</time>
      </trkpt>
      <trkpt lat="-20.90241" lon="55.37513">
        <ele>113</ele>
        <time>2013-01-07T03:00:47Z</time>
      </trkpt>
      <trkpt lat="-20.90237" lon="55.3751">
        <ele>114</ele>
        <time>2013-01-07T03:00:52Z</time>
      </trkpt>
      <trkpt lat="-20.90233" lon="55.37506">
        <ele>115</ele>
        <time>2013-01-07T03:00:57Z</time>
      </trkpt>
      <trkpt lat="-20.90229" lon="55.37502">
        <ele>116</ele>
        <time>2013-01-07T03:01:02Z</time>
      </trkpt>
      <trkpt lat="-20.90229" lon="55.37498">
        <ele>117</ele>
        <time>2013-01-07T03:01:07Z</time>
      </trkpt>
      <trkpt lat="-20.90231" lon="55.37497">
        <ele>118</ele>
        <time>2013-01-07T03:01:12Z</time>
      </trkpt>
      <trkpt lat="-20.90234" lon="55.37496">
        <ele>119</ele>
        <time>2013-01-07T03:01:17Z</time>
      </trkpt>
      <trkpt lat="-20.90238" lon="55.37497">
        <ele>120</ele>
        <time>2013-01-07T03:01:22Z</time>
      </trkpt>
      <trkpt lat="-20.90241" lon="55.37498">
        <ele>121</ele>
        <time>2013-01-07T03:01:27Z</time>
      </trkpt>
      <trkpt lat="-20.90244" lon="55.37498">
        <ele>122</ele>
        <time>2013-01-07T03:01:32Z</time>
      </trkpt>
      <trkpt lat="-20.90246" lon="55.37499">
        <ele>124</ele>
        <time>2013-01-07T03:01:37Z</time>
      </trkpt>
      <trkpt lat="-20.90249" lon="55.37499">
        <ele>125</ele>
        <time>2013-01-07T03:01:43Z</time>
      </trkpt>
      <trkpt lat="-20.90253" lon="55.37499">
        <ele>126</ele>
        <time>2013-01-07T03:01:48Z</time>
      </trkpt>
      <trkpt lat="-20.90256" lon="55.37498">
        <ele>126</ele>
        <time>2013-01-07T03:01:53Z</time>
      </trkpt>
      <trkpt lat="-20.90259" lon="55.37498">
        <ele>128</ele>
        <time>2013-01-07T03:01:58Z</time>
      </trkpt>
      <trkpt lat="-20.90263" lon="55.37497">
        <ele>129</ele>
        <time>2013-01-07T03:02:03Z</time>
      </trkpt>
      <trkpt lat="-20.90266" lon="55.37497">
        <ele>130</ele>
        <time>2013-01-07T03:02:08Z</time>
      </trkpt>
      <trkpt lat="-20.90269" lon="55.37497">
        <ele>131</ele>
        <time>2013-01-07T03:02:13Z</time>
      </trkpt>
      <trkpt lat="-20.90271" lon="55.37496">
        <ele>132</ele>
        <time>2013-01-07T03:02:18Z</time>
      </trkpt>
      <trkpt lat="-20.90272" lon="55.37495">
        <ele>133</ele>
        <time>2013-01-07T03:02:23Z</time>
      </trkpt>
      <trkpt lat="-20.90272" lon="55.37492">
        <ele>134</ele>
        <time>2013-01-07T03:02:28Z</time>
      </trkpt>
      <trkpt lat="-20.90272" lon="55.3749">
        <ele>136</ele>
        <time>2013-01-07T03:02:33Z</time>
      </trkpt>
      <trkpt lat="-20.90271" lon="55.37488">
        <ele>136</ele>
        <time>2013-01-07T03:02:38Z</time>
      </trkpt>
      <trkpt lat="-20.9027" lon="55.37486">
        <ele>138</ele>
        <time>2013-01-07T03:02:43Z</time>
      </trkpt>
      <trkpt lat="-20.90269" lon="55.37483">
        <ele>138</ele>
        <time>2013-01-07T03:02:48Z</time>
      </trkpt>
      <trkpt lat="-20.90267" lon="55.3748">
        <ele>140</ele>
        <time>2013-01-07T03:02:53Z</time>
      </trkpt>
      <trkpt lat="-20.90266" lon="55.37476">
        <ele>141</ele>
        <time>2013-01-07T03:02:58Z</time>
      </trkpt>
      <trkpt lat="-20.90264" lon="55.37473">
        <ele>142</ele>
        <time>2013-01-07T03:03:03Z</time>
      </trkpt>
      <trkpt lat="-20.90263" lon="55.37469">
        <ele>142</ele>
        <time>2013-01-07T03:03:08Z</time>
      </trkpt>
      <trkpt lat="-20.90262" lon="55.37466">
        <ele>143</ele>
        <time>2013-01-07T03:03:13Z</time>
      </trkpt>
      <trkpt lat="-20.90261" lon="55.37462">
        <ele>145</ele>
        <time>2013-01-07T03:03:19Z</time>
      </trkpt>
      <trkpt lat="-20.90261" lon="55.37459">
        <ele>146</ele>
        <time>2013-01-07T03:03:24Z</time>
      </trkpt>
      <trkpt lat="-20.9026" lon="55.37456">
        <ele>147</ele>
        <time>2013-01-07T03:03:29Z</time>
      </trkpt>
      <trkpt lat="-20.9026" lon="55.37453">
        <ele>148</ele>
        <time>2013-01-07T03:03:34Z</time>
      </trkpt>
      <trkpt lat="-20.90262" lon="55.37453">
        <ele>149</ele>
        <time>2013-01-07T03:03:39Z</time>
      </trkpt>
      <trkpt lat="-20.90266" lon="55.37453">
        <ele>150</ele>
        <time>2013-01-07T03:03:44Z</time>
      </trkpt>
      <trkpt lat="-20.90268" lon="55.37454">
        <ele>151</ele>
        <time>2013-01-07T03:03:49Z</time>
      </trkpt>
      <trkpt lat="-20.90271" lon="55.37454">
        <ele>152</ele>
        <time>2013-01-07T03:03:54Z</time>
      </trkpt>
      <trkpt lat="-20.90275" lon="55.37455">
        <ele>153</ele>
        <time>2013-01-07T03:03:59Z</time>
      </trkpt>
      <trkpt lat="-20.90278" lon="55.37455">
        <ele>154</ele>
        <time>2013-01-07T03:04:04Z</time>
      </trkpt>
      <trkpt lat="-20.90283" lon="55.37456">
        <ele>155</ele>
        <time>2013-01-07T03:04:09Z</time>
      </trkpt>
      <trkpt lat="-20.90288" lon="55.37457">
        <ele>156</ele>
        <time>2013-01-07T03:04:14Z</time>
      </trkpt>
      <trkpt lat="-20.90292" lon="55.37457">
        <ele>157</ele>
        <time>2013-01-07T03:04:20Z</time>
      </trkpt>
      <trkpt lat="-20.90295" lon="55.37457">
        <ele>158</ele>
        <time>2013-01-07T03:04:25Z</time>
      </trkpt>
      <trkpt lat="-20.90299" lon="55.37458">
        <ele>159</ele>
        <time>2013-01-07T03:04:30Z</time>
      </trkpt>
      <trkpt lat="-20.90302" lon="55.37459">
        <ele>159</ele>
        <time>2013-01-07T03:04:35Z</time>
      </trkpt>
      <trkpt lat="-20.90306" lon="55.37459">
        <ele>161</ele>
        <time>2013-01-07T03:04:40Z</time>
      </trkpt>
      <trkpt lat="-20.90309" lon="55.37458">
        <ele>162</ele>
        <time>2013-01-07T03:04:45Z</time>
      </trkpt>
      <trkpt lat="-20.90312" lon="55.37457">
        <ele>163</ele>
        <time>2013-01-07T03:04:50Z</time>
      </trkpt>
      <trkpt lat="-20.90312" lon="55.37456">
        <ele>163</ele>
        <time>2013-01-07T03:04:55Z</time>
      </trkpt>
      <trkpt lat="-20.9031" lon="55.37455">
        <ele>165</ele>
        <time>2013-01-07T03:05:00Z</time>
      </trkpt>
      <trkpt lat="-20.90308" lon="55.37452">
        <ele>165</ele>
        <time>2013-01-07T03:05:05Z</time>
      </trkpt>
      <trkpt lat="-20.90305" lon="55.37449">
        <ele>166</ele>
        <time>2013-01-07T03:05:10Z</time>
      </trkpt>
      <trkpt lat="-20.90303" lon="55.37445">
        <ele>167</ele>
        <time>2013-01-07T03:05:15Z</time>
      </trkpt>
      <trkpt lat="-20.903" lon="55.37442">
        <ele>167</ele>
        <time>2013-01-07T03:05:20Z</time>
      </trkpt>
      <trkpt lat="-20.90298" lon="55.37439">
        <ele>168</ele>
        <time>2013-01-07T03:05:25Z</time>
      </trkpt>
      <trkpt lat="-20.90296" lon="55.37436">
        <ele>169</ele>
        <time>2013-01-07T03:05:30Z</time>
      </trkpt>
      <trkpt lat="-20.90294" lon="55.37433">
        <ele>170</ele>
        <time>2013-01-07T03:05:35Z</time>
      </trkpt>
      <trkpt lat="-20.90293" lon="55.37429">
        <ele>171</ele>
        <time>2013-01-07T03:05:41Z</time>
      </trkpt>
      <trkpt lat="-20.90295" lon="55.37427">
        <ele>173</ele>
        <time>2013-01-07T03:05:46Z</time>
      </trkpt>
      <trkpt lat="-20.90297" lon="55.37428">
        <ele>174</ele>
        <time>2013-01-07T03:05:51Z</time>
      </trkpt>
      <trkpt lat="-20.90301" lon="55.3743">
        <ele>175</ele>
        <time>2013-01-07T03:05:56Z</time>
      </trkpt>
      <trkpt lat="-20.90303" lon="55.37433">
        <ele>176</ele>
        <time>2013-01-07T03:06:01Z</time>
      </trkpt>
      <trkpt lat="-20.90307" lon="55.37436">
        <ele>177</ele>
        <time>2013-01-07T03:06:06Z</time>
      </trkpt>
      <trkpt lat="-20.9031" lon="55.37437">
        <ele>178</ele>
        <time>2013-01-07T03:06:11Z</time>
      </trkpt>
      <trkpt lat="-20.90314" lon="55.37438">
        <ele>179</ele>
        <time>2013-01-07T03:06:16Z</time>
      </trkpt>
      <trkpt lat="-20.90318" lon="55.3744">
        <ele>180</ele>
        <time>2013-01-07T03:06:21Z</time>
      </trkpt>
      <trkpt lat="-20.90322" lon="55.37441">
        <ele>181</ele>
        <time>2013-01-07T03:06:26Z</time>
      </trkpt>
      <trkpt lat="-20.90326" lon="55.37444">
        <ele>183</ele>
        <time>2013-01-07T03:06:31Z</time>
      </trkpt>
      <trkpt lat="-20.90329" lon="55.37447">
        <ele>184</ele>
        <time>2013-01-07T03:06:36Z</time>
      </trkpt>
      <trkpt lat="-20.90333" lon="55.37449">
        <ele>185</ele>
        <time>2013-01-07T03:06:41Z</time>
      </trkpt>
      <trkpt lat="-20.90336" lon="55.37451">
        <ele>187</ele>
        <time>2013-01-07T03:06:46Z</time>
      </trkpt>
      <trkpt lat="-20.9034" lon="55.37453">
        <ele>188</ele>
        <time>2013-01-07T03:06:51Z</time>
      </trkpt>
      <trkpt lat="-20.90343" lon="55.37453">
        <ele>189</ele>
        <time>2013-01-07T03:06:57Z</time>
      </trkpt>
      <trkpt lat="-20.90347" lon="55.37452">
        <ele>189</ele>
        <time>2013-01-07T03:07:02Z</time>
      </trkpt>
      <trkpt lat="-20.90346" lon="55.37448">
        <ele>190</ele>
        <time>2013-01-07T03:07:07Z</time>
      </trkpt>
      <trkpt lat="-20.90344" lon="55.37444">
        <ele>191</ele>
        <time>2013-01-07T03:07:12Z</time>
      </trkpt>
      <trkpt lat="-20.90343" lon="55.37439">
        <ele>192</ele>
        <time>2013-01-07T03:07:17Z</time>
      </trkpt>
      <trkpt lat="-20.90341" lon="55.37435">
        <ele>192</ele>
        <time>2013-01-07T03:07:22Z</time>
      </trkpt>
      <trkpt lat="-20.9034" lon="55.37431">
        <ele>193</ele>
        <time>2013-01-07T03:07:27Z</time>
      </trkpt>
      <trkpt lat="-20.9034" lon="55.37428">
        <ele>194</ele>
        <time>2013-01-07T03:07:32Z</time>
      </trkpt>
      <trkpt lat="-20.9034" lon="55.37424">
        <ele>195</ele>
        <time>2013-01-07T03:07:37Z</time>
      </trkpt>
      <trkpt lat="-20.90339" lon="55.37422">
        <ele>196</ele>
        <time>2013-01-07T03:07:42Z</time>
      </trkpt>
      <trkpt lat="-20.90338" lon="55.37417">
        <ele>197</ele>
        <time>2013-01-07T03:07:47Z</time>
      </trkpt>
      <trkpt lat="-20.90337" lon="55.37414">
        <ele>199</ele>
        <time>2013-01-07T03:07:52Z</time>
      </trkpt>
      <trkpt lat="-20.90336" lon="55.3741">
        <ele>200</ele>
        <time>2013-01-07T03:07:58Z</time>
      </trkpt>
      <trkpt lat="-20.90334" lon="55.37407">
        <ele>200</ele>
        <time>2013-01-07T03:08:03Z</time>
      </trkpt>
      <trkpt lat="-20.90332" lon="55.37404">
        <ele>202</ele>
        <time>2013-01-07T03:08:08Z</time>
      </trkpt>
      <trkpt lat="-20.9033" lon="55.374">
        <ele>203</ele>
        <time>2013-01-07T03:08:13Z</time>
      </trkpt>
      <trkpt lat="-20.90328" lon="55.37397">
        <ele>203</ele>
        <time>2013-01-07T03:08:18Z</time>
      </trkpt>
      <trkpt lat="-20.90325" lon="55.37394">
        <ele>205</ele>
        <time>2013-01-07T03:08:23Z</time>
      </trkpt>
      <trkpt lat="-20.90322" lon="55.3739">
        <ele>206</ele>
        <time>2013-01-07T03:08:28Z</time>
      </trkpt>
      <trkpt lat="-20.90319" lon="55.37386">
        <ele>207</ele>
        <time>2013-01-07T03:08:33Z</time>
      </trkpt>
      <trkpt lat="-20.90317" lon="55.37382">
        <ele>208</ele>
        <time>2013-01-07T03:08:38Z</time>
      </trkpt>
      <trkpt lat="-20.90319" lon="55.3738">
        <ele>209</ele>
        <time>2013-01-07T03:08:43Z</time>
      </trkpt>
      <trkpt lat="-20.90323" lon="55.37381">
        <ele>211</ele>
        <time>2013-01-07T03:08:48Z</time>
      </trkpt>
      <trkpt lat="-20.90327" lon="55.37383">
        <ele>212</ele>
        <time>2013-01-07T03:08:53Z</time>
      </trkpt>
      <trkpt lat="-20.9033" lon="55.37384">
        <ele>213</ele>
        <time>2013-01-07T03:08:58Z</time>
      </trkpt>
      <trkpt lat="-20.90333" lon="55.37385">
        <ele>215</ele>
        <time>2013-01-07T03:09:03Z</time>
      </trkpt>
      <trkpt lat="-20.90336" lon="55.37384">
        <ele>215</ele>
        <time>2013-01-07T03:09:08Z</time>
      </trkpt>
      <trkpt lat="-20.90336" lon="55.3738">
        <ele>215</ele>
        <time>2013-01-07T03:09:13Z</time>
      </trkpt>
      <trkpt lat="-20.90335" lon="55.37377">
        <ele>216</ele>
        <time>2013-01-07T03:09:18Z</time>
      </trkpt>
      <trkpt lat="-20.90333" lon="55.37373">
        <ele>217</ele>
        <time>2013-01-07T03:09:23Z</time>
      </trkpt>
      <trkpt lat="-20.90331" lon="55.37369">
        <ele>218</ele>
        <time>2013-01-07T03:09:28Z</time>
      </trkpt>
      <trkpt lat="-20.90328" lon="55.37365">
        <ele>219</ele>
        <time>2013-01-07T03:09:33Z</time>
      </trkpt>
      <trkpt lat="-20.90326" lon="55.37361">
        <ele>219</ele>
        <time>2013-01-07T03:09:38Z</time>
      </trkpt>
      <trkpt lat="-20.90322" lon="55.37356">
        <ele>220</ele>
        <time>2013-01-07T03:09:43Z</time>
      </trkpt>
      <trkpt lat="-20.90319" lon="55.37352">
        <ele>221</ele>
        <time>2013-01-07T03:09:48Z</time>
      </trkpt>
      <trkpt lat="-20.90317" lon="55.37348">
        <ele>221</ele>
        <time>2013-01-07T03:09:53Z</time>
      </trkpt>
      <trkpt lat="-20.90314" lon="55.37345">
        <ele>222</ele>
        <time>2013-01-07T03:09:59Z</time>
      </trkpt>
      <trkpt lat="-20.90311" lon="55.37342">
        <ele>223</ele>
        <time>2013-01-07T03:10:04Z</time>
      </trkpt>
      <trkpt lat="-20.90308" lon="55.37339">
        <ele>224</ele>
        <time>2013-01-07T03:10:09Z</time>
      </trkpt>
      <trkpt lat="-20.90305" lon="55.37335">
        <ele>225</ele>
        <time>2013-01-07T03:10:14Z</time>
      </trkpt>
      <trkpt lat="-20.90302" lon="55.37331">
        <ele>226</ele>
        <time>2013-01-07T03:10:19Z</time>
      </trkpt>
      <trkpt lat="-20.90299" lon="55.37327">
        <ele>226</ele>
        <time>2013-01-07T03:10:24Z</time>
      </trkpt>
      <trkpt lat="-20.90296" lon="55.37325">
        <ele>227</ele>
        <time>2013-01-07T03:10:29Z</time>
      </trkpt>
      <trkpt lat="-20.90294" lon="55.37321">
        <ele>228</ele>
        <time>2013-01-07T03:10:34Z</time>
      </trkpt>
      <trkpt lat="-20.90292" lon="55.37317">
        <ele>230</ele>
        <time>2013-01-07T03:10:39Z</time>
      </trkpt>
      <trkpt lat="-20.90291" lon="55.37313">
        <ele>231</ele>
        <time>2013-01-07T03:10:44Z</time>
      </trkpt>
      <trkpt lat="-20.90291" lon="55.3731">
        <ele>232</ele>
        <time>2013-01-07T03:10:49Z</time>
      </trkpt>
      <trkpt lat="-20.9029" lon="55.37307">
        <ele>233</ele>
        <time>2013-01-07T03:10:54Z</time>
      </trkpt>
      <trkpt lat="-20.90289" lon="55.37303">
        <ele>234</ele>
        <time>2013-01-07T03:10:59Z</time>
      </trkpt>
      <trkpt lat="-20.90287" lon="55.373">
        <ele>236</ele>
        <time>2013-01-07T03:11:04Z</time>
      </trkpt>
      <trkpt lat="-20.90285" lon="55.37297">
        <ele>237</ele>
        <time>2013-01-07T03:11:09Z</time>
      </trkpt>
      <trkpt lat="-20.90283" lon="55.37294">
        <ele>239</ele>
        <time>2013-01-07T03:11:14Z</time>
      </trkpt>
      <trkpt lat="-20.90282" lon="55.37289">
        <ele>239</ele>
        <time>2013-01-07T03:11:20Z</time>
      </trkpt>
      <trkpt lat="-20.90281" lon="55.37285">
        <ele>240</ele>
        <time>2013-01-07T03:11:25Z</time>
      </trkpt>
      <trkpt lat="-20.9028" lon="55.37281">
        <ele>240</ele>
        <time>2013-01-07T03:11:30Z</time>
      </trkpt>
      <trkpt lat="-20.90282" lon="55.37277">
        <ele>240</ele>
        <time>2013-01-07T03:11:35Z</time>
      </trkpt>
      <trkpt lat="-20.90282" lon="55.37272">
        <ele>240</ele>
        <time>2013-01-07T03:11:40Z</time>
      </trkpt>
      <trkpt lat="-20.90283" lon="55.37267">
        <ele>239</ele>
        <time>2013-01-07T03:11:45Z</time>
      </trkpt>
      <trkpt lat="-20.90283" lon="55.37263">
        <ele>238</ele>
        <time>2013-01-07T03:11:50Z</time>
      </trkpt>
      <trkpt lat="-20.90284" lon="55.37257">
        <ele>238</ele>
        <time>2013-01-07T03:11:55Z</time>
      </trkpt>
      <trkpt lat="-20.90285" lon="55.37249">
        <ele>238</ele>
        <time>2013-01-07T03:12:00Z</time>
      </trkpt>
      <trkpt lat="-20.90285" lon="55.37244">
        <ele>237</ele>
        <time>2013-01-07T03:12:05Z</time>
      </trkpt>
      <trkpt lat="-20.90285" lon="55.37238">
        <ele>237</ele>
        <time>2013-01-07T03:12:10Z</time>
      </trkpt>
      <trkpt lat="-20.90286" lon="55.37232">
        <ele>236</ele>
        <time>2013-01-07T03:12:15Z</time>
      </trkpt>
      <trkpt lat="-20.90287" lon="55.37226">
        <ele>236</ele>
        <time>2013-01-07T03:12:20Z</time>
      </trkpt>
      <trkpt lat="-20.90287" lon="55.37223">
        <ele>235</ele>
        <time>2013-01-07T03:12:25Z</time>
      </trkpt>
      <trkpt lat="-20.90288" lon="55.37223">
        <ele>235</ele>
        <time>2013-01-07T03:12:30Z</time>
      </trkpt>
      <trkpt lat="-20.90287" lon="55.37221">
        <ele>235</ele>
        <time>2013-01-07T03:12:36Z</time>
      </trkpt>
      <trkpt lat="-20.90288" lon="55.37215">
        <ele>235</ele>
        <time>2013-01-07T03:12:41Z</time>
      </trkpt>
      <trkpt lat="-20.90289" lon="55.37209">
        <ele>234</ele>
        <time>2013-01-07T03:12:46Z</time>
      </trkpt>
      <trkpt lat="-20.9029" lon="55.37203">
        <ele>233</ele>
        <time>2013-01-07T03:12:51Z</time>
      </trkpt>
      <trkpt lat="-20.9029" lon="55.37197">
        <ele>232</ele>
        <time>2013-01-07T03:12:56Z</time>
      </trkpt>
      <trkpt lat="-20.90291" lon="55.37191">
        <ele>232</ele>
        <time>2013-01-07T03:13:01Z</time>
      </trkpt>
      <trkpt lat="-20.90291" lon="55.37185">
        <ele>231</ele>
        <time>2013-01-07T03:13:06Z</time>
      </trkpt>
      <trkpt lat="-20.90292" lon="55.3718">
        <ele>230</ele>
        <time>2013-01-07T03:13:11Z</time>
      </trkpt>
      <trkpt lat="-20.90293" lon="55.37174">
        <ele>229</ele>
        <time>2013-01-07T03:13:16Z</time>
      </trkpt>
      <trkpt lat="-20.90294" lon="55.37168">
        <ele>228</ele>
        <time>2013-01-07T03:13:21Z</time>
      </trkpt>
      <trkpt lat="-20.90294" lon="55.37162">
        <ele>227</ele>
        <time>2013-01-07T03:13:26Z</time>
      </trkpt>
      <trkpt lat="-20.90294" lon="55.37154">
        <ele>227</ele>
        <time>2013-01-07T03:13:31Z</time>
      </trkpt>
      <trkpt lat="-20.90295" lon="55.37147">
        <ele>226</ele>
        <time>2013-01-07T03:13:37Z</time>
      </trkpt>
      <trkpt lat="-20.90297" lon="55.3714">
        <ele>225</ele>
        <time>2013-01-07T03:13:42Z</time>
      </trkpt>
      <trkpt lat="-20.90297" lon="55.37134">
        <ele>224</ele>
        <time>2013-01-07T03:13:47Z</time>
      </trkpt>
      <trkpt lat="-20.90298" lon="55.37127">
        <ele>223</ele>
        <time>2013-01-07T03:13:52Z</time>
      </trkpt>
      <trkpt lat="-20.90299" lon="55.3712">
        <ele>222</ele>
        <time>2013-01-07T03:13:57Z</time>
      </trkpt>
      <trkpt lat="-20.90301" lon="55.37116">
        <ele>222</ele>
        <time>2013-01-07T03:14:02Z</time>
      </trkpt>
      <trkpt lat="-20.90304" lon="55.37111">
        <ele>221</ele>
        <time>2013-01-07T03:14:07Z</time>
      </trkpt>
      <trkpt lat="-20.90307" lon="55.37106">
        <ele>221</ele>
        <time>2013-01-07T03:14:12Z</time>
      </trkpt>
      <trkpt lat="-20.90311" lon="55.37101">
        <ele>219</ele>
        <time>2013-01-07T03:14:17Z</time>
      </trkpt>
      <trkpt lat="-20.90314" lon="55.37097">
        <ele>219</ele>
        <time>2013-01-07T03:14:22Z</time>
      </trkpt>
      <trkpt lat="-20.90318" lon="55.37093">
        <ele>218</ele>
        <time>2013-01-07T03:14:27Z</time>
      </trkpt>
      <trkpt lat="-20.9032" lon="55.37088">
        <ele>216</ele>
        <time>2013-01-07T03:14:32Z</time>
      </trkpt>
      <trkpt lat="-20.90324" lon="55.37083">
        <ele>214</ele>
        <time>2013-01-07T03:14:37Z</time>
      </trkpt>
      <trkpt lat="-20.90327" lon="55.37078">
        <ele>213</ele>
        <time>2013-01-07T03:14:42Z</time>
      </trkpt>
      <trkpt lat="-20.90331" lon="55.37073">
        <ele>211</ele>
        <time>2013-01-07T03:14:47Z</time>
      </trkpt>
      <trkpt lat="-20.90337" lon="55.3707">
        <ele>210</ele>
        <time>2013-01-07T03:14:52Z</time>
      </trkpt>
      <trkpt lat="-20.90342" lon="55.37068">
        <ele>209</ele>
        <time>2013-01-07T03:14:57Z</time>
      </trkpt>
      <trkpt lat="-20.90345" lon="55.37064">
        <ele>207</ele>
        <time>2013-01-07T03:15:03Z</time>
      </trkpt>
      <trkpt lat="-20.90342" lon="55.37059">
        <ele>206</ele>
        <time>2013-01-07T03:15:08Z</time>
      </trkpt>
      <trkpt lat="-20.90338" lon="55.37056">
        <ele>205</ele>
        <time>2013-01-07T03:15:13Z</time>
      </trkpt>
      <trkpt lat="-20.90333" lon="55.37053">
        <ele>203</ele>
        <time>2013-01-07T03:15:18Z</time>
      </trkpt>
      <trkpt lat="-20.90328" lon="55.37049">
        <ele>202</ele>
        <time>2013-01-07T03:15:23Z</time>
      </trkpt>
      <trkpt lat="-20.90324" lon="55.37045">
        <ele>201</ele>
        <time>2013-01-07T03:15:28Z</time>
      </trkpt>
      <trkpt lat="-20.90321" lon="55.3704">
        <ele>199</ele>
        <time>2013-01-07T03:15:33Z</time>
      </trkpt>
      <trkpt lat="-20.90321" lon="55.37037">
        <ele>197</ele>
        <time>2013-01-07T03:15:38Z</time>
      </trkpt>
      <trkpt lat="-20.90326" lon="55.37036">
        <ele>196</ele>
        <time>2013-01-07T03:15:43Z</time>
      </trkpt>
      <trkpt lat="-20.90331" lon="55.37036">
        <ele>195</ele>
        <time>2013-01-07T03:15:48Z</time>
      </trkpt>
      <trkpt lat="-20.90336" lon="55.37035">
        <ele>194</ele>
        <time>2013-01-07T03:15:53Z</time>
      </trkpt>
      <trkpt lat="-20.9034" lon="55.37031">
        <ele>193</ele>
        <time>2013-01-07T03:15:58Z</time>
      </trkpt>
      <trkpt lat="-20.90345" lon="55.37028">
        <ele>192</ele>
        <time>2013-01-07T03:16:03Z</time>
      </trkpt>
      <trkpt lat="-20.90351" lon="55.37024">
        <ele>191</ele>
        <time>2013-01-07T03:16:08Z</time>
      </trkpt>
      <trkpt lat="-20.90351" lon="55.3702">
        <ele>189</ele>
        <time>2013-01-07T03:16:14Z</time>
      </trkpt>
      <trkpt lat="-20.90347" lon="55.37017">
        <ele>187</ele>
        <time>2013-01-07T03:16:19Z</time>
      </trkpt>
      <trkpt lat="-20.90343" lon="55.37013">
        <ele>186</ele>
        <time>2013-01-07T03:16:24Z</time>
      </trkpt>
      <trkpt lat="-20.90338" lon="55.37007">
        <ele>184</ele>
        <time>2013-01-07T03:16:29Z</time>
      </trkpt>
      <trkpt lat="-20.90335" lon="55.37">
        <ele>181</ele>
        <time>2013-01-07T03:16:34Z</time>
      </trkpt>
      <trkpt lat="-20.90332" lon="55.36995">
        <ele>179</ele>
        <time>2013-01-07T03:16:39Z</time>
      </trkpt>
      <trkpt lat="-20.9033" lon="55.3699">
        <ele>177</ele>
        <time>2013-01-07T03:16:44Z</time>
      </trkpt>
      <trkpt lat="-20.90331" lon="55.36984">
        <ele>175</ele>
        <time>2013-01-07T03:16:49Z</time>
      </trkpt>
      <trkpt lat="-20.90334" lon="55.36979">
        <ele>173</ele>
        <time>2013-01-07T03:16:54Z</time>
      </trkpt>
      <trkpt lat="-20.90339" lon="55.36976">
        <ele>172</ele>
        <time>2013-01-07T03:16:59Z</time>
      </trkpt>
      <trkpt lat="-20.90344" lon="55.36973">
        <ele>171</ele>
        <time>2013-01-07T03:17:04Z</time>
      </trkpt>
      <trkpt lat="-20.90351" lon="55.3697">
        <ele>170</ele>
        <time>2013-01-07T03:17:09Z</time>
      </trkpt>
      <trkpt lat="-20.90357" lon="55.36968">
        <ele>169</ele>
        <time>2013-01-07T03:17:14Z</time>
      </trkpt>
      <trkpt lat="-20.90364" lon="55.36967">
        <ele>169</ele>
        <time>2013-01-07T03:17:19Z</time>
      </trkpt>
      <trkpt lat="-20.90371" lon="55.36967">
        <ele>168</ele>
        <time>2013-01-07T03:17:24Z</time>
      </trkpt>
      <trkpt lat="-20.90375" lon="55.36965">
        <ele>168</ele>
        <time>2013-01-07T03:17:30Z</time>
      </trkpt>
      <trkpt lat="-20.90376" lon="55.36963">
        <ele>167</ele>
        <time>2013-01-07T03:17:35Z</time>
      </trkpt>
      <trkpt lat="-20.90376" lon="55.36958">
        <ele>167</ele>
        <time>2013-01-07T03:17:40Z</time>
      </trkpt>
      <trkpt lat="-20.90375" lon="55.36954">
        <ele>168</ele>
        <time>2013-01-07T03:17:45Z</time>
      </trkpt>
      <trkpt lat="-20.90372" lon="55.3695">
        <ele>167</ele>
        <time>2013-01-07T03:17:50Z</time>
      </trkpt>
      <trkpt lat="-20.9037" lon="55.36946">
        <ele>168</ele>
        <time>2013-01-07T03:17:55Z</time>
      </trkpt>
      <trkpt lat="-20.90372" lon="55.36944">
        <ele>169</ele>
        <time>2013-01-07T03:18:00Z</time>
      </trkpt>
      <trkpt lat="-20.90377" lon="55.36945">
        <ele>170</ele>
        <time>2013-01-07T03:18:05Z</time>
      </trkpt>
      <trkpt lat="-20.90382" lon="55.36947">
        <ele>171</ele>
        <time>2013-01-07T03:18:10Z</time>
      </trkpt>
      <trkpt lat="-20.90388" lon="55.36949">
        <ele>172</ele>
        <time>2013-01-07T03:18:15Z</time>
      </trkpt>
      <trkpt lat="-20.90393" lon="55.3695">
        <ele>172</ele>
        <time>2013-01-07T03:18:20Z</time>
      </trkpt>
      <trkpt lat="-20.90397" lon="55.3695">
        <ele>174</ele>
        <time>2013-01-07T03:18:25Z</time>
      </trkpt>
      <trkpt lat="-20.90402" lon="55.36951">
        <ele>175</ele>
        <time>2013-01-07T03:18:30Z</time>
      </trkpt>
      <trkpt lat="-20.90406" lon="55.36952">
        <ele>177</ele>
        <time>2013-01-07T03:18:36Z</time>
      </trkpt>
      <trkpt lat="-20.90411" lon="55.36953">
        <ele>178</ele>
        <time>2013-01-07T03:18:41Z</time>
      </trkpt>
      <trkpt lat="-20.90415" lon="55.36954">
        <ele>180</ele>
        <time>2013-01-07T03:18:46Z</time>
      </trkpt>
      <trkpt lat="-20.90419" lon="55.36955">
        <ele>181</ele>
        <time>2013-01-07T03:18:51Z</time>
      </trkpt>
      <trkpt lat="-20.90423" lon="55.36956">
        <ele>181</ele>
        <time>2013-01-07T03:18:56Z</time>
      </trkpt>
      <trkpt lat="-20.90427" lon="55.36958">
        <ele>182</ele>
        <time>2013-01-07T03:19:01Z</time>
      </trkpt>
      <trkpt lat="-20.90431" lon="55.36959">
        <ele>183</ele>
        <time>2013-01-07T03:19:06Z</time>
      </trkpt>
      <trkpt lat="-20.90434" lon="55.36959">
        <ele>184</ele>
        <time>2013-01-07T03:19:11Z</time>
      </trkpt>
      <trkpt lat="-20.90438" lon="55.3696">
        <ele>185</ele>
        <time>2013-01-07T03:19:16Z</time>
      </trkpt>
      <trkpt lat="-20.90442" lon="55.36961">
        <ele>186</ele>
        <time>2013-01-07T03:19:21Z</time>
      </trkpt>
      <trkpt lat="-20.90445" lon="55.36963">
        <ele>187</ele>
        <time>2013-01-07T03:19:26Z</time>
      </trkpt>
      <trkpt lat="-20.90449" lon="55.36963">
        <ele>188</ele>
        <time>2013-01-07T03:19:31Z</time>
      </trkpt>
      <trkpt lat="-20.90453" lon="55.36964">
        <ele>189</ele>
        <time>2013-01-07T03:19:36Z</time>
      </trkpt>
      <trkpt lat="-20.90457" lon="55.36966">
        <ele>190</ele>
        <time>2013-01-07T03:19:41Z</time>
      </trkpt>
      <trkpt lat="-20.90461" lon="55.36966">
        <ele>191</ele>
        <time>2013-01-07T03:19:46Z</time>
      </trkpt>
      <trkpt lat="-20.90464" lon="55.36964">
        <ele>192</ele>
        <time>2013-01-07T03:19:51Z</time>
      </trkpt>
      <trkpt lat="-20.90468" lon="55.36961">
        <ele>192</ele>
        <time>2013-01-07T03:19:57Z</time>
      </trkpt>
      <trkpt lat="-20.90472" lon="55.36959">
        <ele>193</ele>
        <time>2013-01-07T03:20:02Z</time>
      </trkpt>
      <trkpt lat="-20.90472" lon="55.36954">
        <ele>194</ele>
        <time>2013-01-07T03:20:07Z</time>
      </trkpt>
      <trkpt lat="-20.90471" lon="55.3695">
        <ele>195</ele>
        <time>2013-01-07T03:20:12Z</time>
      </trkpt>
      <trkpt lat="-20.9047" lon="55.36946">
        <ele>196</ele>
        <time>2013-01-07T03:20:17Z</time>
      </trkpt>
      <trkpt lat="-20.90468" lon="55.36942">
        <ele>196</ele>
        <time>2013-01-07T03:20:22Z</time>
      </trkpt>
      <trkpt lat="-20.90466" lon="55.36938">
        <ele>198</ele>
        <time>2013-01-07T03:20:27Z</time>
      </trkpt>
      <trkpt lat="-20.90465" lon="55.36934">
        <ele>199</ele>
        <time>2013-01-07T03:20:32Z</time>
      </trkpt>
      <trkpt lat="-20.90463" lon="55.3693">
        <ele>200</ele>
        <time>2013-01-07T03:20:37Z</time>
      </trkpt>
      <trkpt lat="-20.90462" lon="55.36926">
        <ele>200</ele>
        <time>2013-01-07T03:20:42Z</time>
      </trkpt>
      <trkpt lat="-20.90459" lon="55.36922">
        <ele>201</ele>
        <time>2013-01-07T03:20:47Z</time>
      </trkpt>
      <trkpt lat="-20.90458" lon="55.36918">
        <ele>202</ele>
        <time>2013-01-07T03:20:52Z</time>
      </trkpt>
      <trkpt lat="-20.90455" lon="55.36913">
        <ele>202</ele>
        <time>2013-01-07T03:20:57Z</time>
      </trkpt>
      <trkpt lat="-20.90453" lon="55.36909">
        <ele>203</ele>
        <time>2013-01-07T03:21:02Z</time>
      </trkpt>
      <trkpt lat="-20.90452" lon="55.36905">
        <ele>205</ele>
        <time>2013-01-07T03:21:07Z</time>
      </trkpt>
      <trkpt lat="-20.9045" lon="55.36901">
        <ele>206</ele>
        <time>2013-01-07T03:21:12Z</time>
      </trkpt>
      <trkpt lat="-20.90447" lon="55.36897">
        <ele>206</ele>
        <time>2013-01-07T03:21:17Z</time>
      </trkpt>
      <trkpt lat="-20.90443" lon="55.36892">
        <ele>207</ele>
        <time>2013-01-07T03:21:22Z</time>
      </trkpt>
      <trkpt lat="-20.90439" lon="55.36887">
        <ele>207</ele>
        <time>2013-01-07T03:21:28Z</time>
      </trkpt>
      <trkpt lat="-20.90434" lon="55.36883">
        <ele>208</ele>
        <time>2013-01-07T03:21:33Z</time>
      </trkpt>
      <trkpt lat="-20.90429" lon="55.36877">
        <ele>209</ele>
        <time>2013-01-07T03:21:38Z</time>
      </trkpt>
      <trkpt lat="-20.90429" lon="55.36872">
        <ele>210</ele>
        <time>2013-01-07T03:21:43Z</time>
      </trkpt>
      <trkpt lat="-20.9043" lon="55.36867">
        <ele>211</ele>
        <time>2013-01-07T03:21:48Z</time>
      </trkpt>
      <trkpt lat="-20.90432" lon="55.36863">
        <ele>212</ele>
        <time>2013-01-07T03:21:53Z</time>
      </trkpt>
      <trkpt lat="-20.90434" lon="55.36859">
        <ele>213</ele>
        <time>2013-01-07T03:21:58Z</time>
      </trkpt>
      <trkpt lat="-20.90436" lon="55.36854">
        <ele>214</ele>
        <time>2013-01-07T03:22:03Z</time>
      </trkpt>
      <trkpt lat="-20.90438" lon="55.3685">
        <ele>215</ele>
        <time>2013-01-07T03:22:08Z</time>
      </trkpt>
      <trkpt lat="-20.90443" lon="55.36846">
        <ele>216</ele>
        <time>2013-01-07T03:22:13Z</time>
      </trkpt>
      <trkpt lat="-20.90448" lon="55.36843">
        <ele>217</ele>
        <time>2013-01-07T03:22:18Z</time>
      </trkpt>
      <trkpt lat="-20.90453" lon="55.36839">
        <ele>218</ele>
        <time>2013-01-07T03:22:23Z</time>
      </trkpt>
      <trkpt lat="-20.9046" lon="55.36835">
        <ele>218</ele>
        <time>2013-01-07T03:22:28Z</time>
      </trkpt>
      <trkpt lat="-20.90465" lon="55.36831">
        <ele>219</ele>
        <time>2013-01-07T03:22:33Z</time>
      </trkpt>
      <trkpt lat="-20.9047" lon="55.36827">
        <ele>219</ele>
        <time>2013-01-07T03:22:39Z</time>
      </trkpt>
      <trkpt lat="-20.90474" lon="55.36823">
        <ele>219</ele>
        <time>2013-01-07T03:22:44Z</time>
      </trkpt>
      <trkpt lat="-20.90479" lon="55.36818">
        <ele>220</ele>
        <time>2013-01-07T03:22:49Z</time>
      </trkpt>
      <trkpt lat="-20.90483" lon="55.36813">
        <ele>220</ele>
        <time>2013-01-07T03:22:54Z</time>
      </trkpt>
      <trkpt lat="-20.90488" lon="55.36807">
        <ele>220</ele>
        <time>2013-01-07T03:22:59Z</time>
      </trkpt>
      <trkpt lat="-20.90492" lon="55.36801">
        <ele>220</ele>
        <time>2013-01-07T03:23:04Z</time>
      </trkpt>
      <trkpt lat="-20.90496" lon="55.36795">
        <ele>220</ele>
        <time>2013-01-07T03:23:09Z</time>
      </trkpt>
      <trkpt lat="-20.90502" lon="55.36788">
        <ele>220</ele>
        <time>2013-01-07T03:23:14Z</time>
      </trkpt>
      <trkpt lat="-20.90505" lon="55.36782">
        <ele>219</ele>
        <time>2013-01-07T03:23:19Z</time>
      </trkpt>
      <trkpt lat="-20.9051" lon="55.36777">
        <ele>219</ele>
        <time>2013-01-07T03:23:24Z</time>
      </trkpt>
      <trkpt lat="-20.90516" lon="55.36772">
        <ele>219</ele>
        <time>2013-01-07T03:23:29Z</time>
      </trkpt>
      <trkpt lat="-20.90522" lon="55.36767">
        <ele>219</ele>
        <time>2013-01-07T03:23:34Z</time>
      </trkpt>
      <trkpt lat="-20.90529" lon="55.36761">
        <ele>219</ele>
        <time>2013-01-07T03:23:39Z</time>
      </trkpt>
      <trkpt lat="-20.90534" lon="55.36757">
        <ele>219</ele>
        <time>2013-01-07T03:23:44Z</time>
      </trkpt>
      <trkpt lat="-20.9054" lon="55.36752">
        <ele>219</ele>
        <time>2013-01-07T03:23:50Z</time>
      </trkpt>
      <trkpt lat="-20.90546" lon="55.36747">
        <ele>219</ele>
        <time>2013-01-07T03:23:55Z</time>
      </trkpt>
      <trkpt lat="-20.90552" lon="55.36742">
        <ele>219</ele>
        <time>2013-01-07T03:24:00Z</time>
      </trkpt>
      <trkpt lat="-20.90559" lon="55.36738">
        <ele>219</ele>
        <time>2013-01-07T03:24:05Z</time>
      </trkpt>
      <trkpt lat="-20.90566" lon="55.36734">
        <ele>219</ele>
        <time>2013-01-07T03:24:10Z</time>
      </trkpt>
      <trkpt lat="-20.90573" lon="55.3673">
        <ele>219</ele>
        <time>2013-01-07T03:24:15Z</time>
      </trkpt>
      <trkpt lat="-20.90579" lon="55.36726">
        <ele>218</ele>
        <time>2013-01-07T03:24:20Z</time>
      </trkpt>
      <trkpt lat="-20.90586" lon="55.36723">
        <ele>218</ele>
        <time>2013-01-07T03:24:25Z</time>
      </trkpt>
      <trkpt lat="-20.90593" lon="55.36719">
        <ele>218</ele>
        <time>2013-01-07T03:24:30Z</time>
      </trkpt>
      <trkpt lat="-20.90599" lon="55.36715">
        <ele>218</ele>
        <time>2013-01-07T03:24:35Z</time>
      </trkpt>
      <trkpt lat="-20.90606" lon="55.36712">
        <ele>218</ele>
        <time>2013-01-07T03:24:40Z</time>
      </trkpt>
      <trkpt lat="-20.90614" lon="55.36707">
        <ele>218</ele>
        <time>2013-01-07T03:24:45Z</time>
      </trkpt>
      <trkpt lat="-20.90621" lon="55.36704">
        <ele>218</ele>
        <time>2013-01-07T03:24:50Z</time>
      </trkpt>
      <trkpt lat="-20.90627" lon="55.367">
        <ele>218</ele>
        <time>2013-01-07T03:24:55Z</time>
      </trkpt>
      <trkpt lat="-20.90635" lon="55.36697">
        <ele>217</ele>
        <time>2013-01-07T03:25:00Z</time>
      </trkpt>
      <trkpt lat="-20.90642" lon="55.36692">
        <ele>217</ele>
        <time>2013-01-07T03:25:05Z</time>
      </trkpt>
      <trkpt lat="-20.90649" lon="55.36688">
        <ele>217</ele>
        <time>2013-01-07T03:25:10Z</time>
      </trkpt>
      <trkpt lat="-20.90656" lon="55.36684">
        <ele>217</ele>
        <time>2013-01-07T03:25:15Z</time>
      </trkpt>
      <trkpt lat="-20.90664" lon="55.3668">
        <ele>216</ele>
        <time>2013-01-07T03:25:20Z</time>
      </trkpt>
      <trkpt lat="-20.9067" lon="55.36676">
        <ele>216</ele>
        <time>2013-01-07T03:25:25Z</time>
      </trkpt>
      <trkpt lat="-20.90677" lon="55.36672">
        <ele>216</ele>
        <time>2013-01-07T03:25:31Z</time>
      </trkpt>
      <trkpt lat="-20.90684" lon="55.36668">
        <ele>216</ele>
        <time>2013-01-07T03:25:36Z</time>
      </trkpt>
      <trkpt lat="-20.90689" lon="55.36664">
        <ele>216</ele>
        <time>2013-01-07T03:25:41Z</time>
      </trkpt>
      <trkpt lat="-20.90695" lon="55.36661">
        <ele>216</ele>
        <time>2013-01-07T03:25:46Z</time>
      </trkpt>
      <trkpt lat="-20.90701" lon="55.36657">
        <ele>216</ele>
        <time>2013-01-07T03:25:51Z</time>
      </trkpt>
      <trkpt lat="-20.90709" lon="55.36654">
        <ele>216</ele>
        <time>2013-01-07T03:25:56Z</time>
      </trkpt>
      <trkpt lat="-20.90713" lon="55.36649">
        <ele>216</ele>
        <time>2013-01-07T03:26:01Z</time>
      </trkpt>
      <trkpt lat="-20.90717" lon="55.36644">
        <ele>216</ele>
        <time>2013-01-07T03:26:06Z</time>
      </trkpt>
      <trkpt lat="-20.90722" lon="55.36638">
        <ele>216</ele>
        <time>2013-01-07T03:26:11Z</time>
      </trkpt>
      <trkpt lat="-20.90726" lon="55.36632">
        <ele>217</ele>
        <time>2013-01-07T03:26:16Z</time>
      </trkpt>
      <trkpt lat="-20.9073" lon="55.36626">
        <ele>217</ele>
        <time>2013-01-07T03:26:21Z</time>
      </trkpt>
      <trkpt lat="-20.90734" lon="55.36621">
        <ele>217</ele>
        <time>2013-01-07T03:26:26Z</time>
      </trkpt>
      <trkpt lat="-20.90736" lon="55.36615">
        <ele>217</ele>
        <time>2013-01-07T03:26:31Z</time>
      </trkpt>
      <trkpt lat="-20.90736" lon="55.36608">
        <ele>218</ele>
        <time>2013-01-07T03:26:36Z</time>
      </trkpt>
      <trkpt lat="-20.90739" lon="55.36602">
        <ele>218</ele>
        <time>2013-01-07T03:26:41Z</time>
      </trkpt>
      <trkpt lat="-20.90742" lon="55.36594">
        <ele>218</ele>
        <time>2013-01-07T03:26:47Z</time>
      </trkpt>
      <trkpt lat="-20.90745" lon="55.36586">
        <ele>218</ele>
        <time>2013-01-07T03:26:52Z</time>
      </trkpt>
      <trkpt lat="-20.90747" lon="55.36579">
        <ele>218</ele>
        <time>2013-01-07T03:26:57Z</time>
      </trkpt>
      <trkpt lat="-20.90748" lon="55.36572">
        <ele>218</ele>
        <time>2013-01-07T03:27:02Z</time>
      </trkpt>
      <trkpt lat="-20.90752" lon="55.36564">
        <ele>217</ele>
        <time>2013-01-07T03:27:07Z</time>
      </trkpt>
      <trkpt lat="-20.90758" lon="55.36559">
        <ele>218</ele>
        <time>2013-01-07T03:27:12Z</time>
      </trkpt>
      <trkpt lat="-20.90763" lon="55.36556">
        <ele>218</ele>
        <time>2013-01-07T03:27:17Z</time>
      </trkpt>
      <trkpt lat="-20.9077" lon="55.36554">
        <ele>218</ele>
        <time>2013-01-07T03:27:22Z</time>
      </trkpt>
      <trkpt lat="-20.90778" lon="55.36552">
        <ele>218</ele>
        <time>2013-01-07T03:27:27Z</time>
      </trkpt>
      <trkpt lat="-20.90785" lon="55.36549">
        <ele>219</ele>
        <time>2013-01-07T03:27:33Z</time>
      </trkpt>
      <trkpt lat="-20.90792" lon="55.36547">
        <ele>219</ele>
        <time>2013-01-07T03:27:38Z</time>
      </trkpt>
      <trkpt lat="-20.90799" lon="55.36545">
        <ele>220</ele>
        <time>2013-01-07T03:27:43Z</time>
      </trkpt>
      <trkpt lat="-20.90806" lon="55.36544">
        <ele>221</ele>
        <time>2013-01-07T03:27:48Z</time>
      </trkpt>
      <trkpt lat="-20.90812" lon="55.36541">
        <ele>221</ele>
        <time>2013-01-07T03:27:53Z</time>
      </trkpt>
      <trkpt lat="-20.90819" lon="55.36539">
        <ele>222</ele>
        <time>2013-01-07T03:27:58Z</time>
      </trkpt>
      <trkpt lat="-20.90824" lon="55.36536">
        <ele>222</ele>
        <time>2013-01-07T03:28:03Z</time>
      </trkpt>
      <trkpt lat="-20.9083" lon="55.36531">
        <ele>222</ele>
        <time>2013-01-07T03:28:08Z</time>
      </trkpt>
      <trkpt lat="-20.90835" lon="55.36526">
        <ele>222</ele>
        <time>2013-01-07T03:28:13Z</time>
      </trkpt>
      <trkpt lat="-20.90842" lon="55.36522">
        <ele>223</ele>
        <time>2013-01-07T03:28:18Z</time>
      </trkpt>
      <trkpt lat="-20.90848" lon="55.36517">
        <ele>224</ele>
        <time>2013-01-07T03:28:23Z</time>
      </trkpt>
      <trkpt lat="-20.90854" lon="55.36512">
        <ele>224</ele>
        <time>2013-01-07T03:28:29Z</time>
      </trkpt>
      <trkpt lat="-20.90861" lon="55.36507">
        <ele>224</ele>
        <time>2013-01-07T03:28:34Z</time>
      </trkpt>
      <trkpt lat="-20.90866" lon="55.36503">
        <ele>224</ele>
        <time>2013-01-07T03:28:39Z</time>
      </trkpt>
      <trkpt lat="-20.90873" lon="55.36498">
        <ele>225</ele>
        <time>2013-01-07T03:28:44Z</time>
      </trkpt>
      <trkpt lat="-20.90879" lon="55.36493">
        <ele>225</ele>
        <time>2013-01-07T03:28:49Z</time>
      </trkpt>
      <trkpt lat="-20.90886" lon="55.36488">
        <ele>225</ele>
        <time>2013-01-07T03:28:54Z</time>
      </trkpt>
      <trkpt lat="-20.90893" lon="55.36483">
        <ele>226</ele>
        <time>2013-01-07T03:28:59Z</time>
      </trkpt>
      <trkpt lat="-20.90899" lon="55.36479">
        <ele>226</ele>
        <time>2013-01-07T03:29:04Z</time>
      </trkpt>
      <trkpt lat="-20.90904" lon="55.36475">
        <ele>226</ele>
        <time>2013-01-07T03:29:09Z</time>
      </trkpt>
      <trkpt lat="-20.9091" lon="55.36471">
        <ele>227</ele>
        <time>2013-01-07T03:29:14Z</time>
      </trkpt>
      <trkpt lat="-20.90916" lon="55.36467">
        <ele>227</ele>
        <time>2013-01-07T03:29:19Z</time>
      </trkpt>
      <trkpt lat="-20.90922" lon="55.36463">
        <ele>228</ele>
        <time>2013-01-07T03:29:24Z</time>
      </trkpt>
      <trkpt lat="-20.90927" lon="55.36459">
        <ele>229</ele>
        <time>2013-01-07T03:29:29Z</time>
      </trkpt>
      <trkpt lat="-20.90931" lon="55.36455">
        <ele>229</ele>
        <time>2013-01-07T03:29:34Z</time>
      </trkpt>
      <trkpt lat="-20.90938" lon="55.3645">
        <ele>230</ele>
        <time>2013-01-07T03:29:39Z</time>
      </trkpt>
      <trkpt lat="-20.90944" lon="55.36446">
        <ele>230</ele>
        <time>2013-01-07T03:29:44Z</time>
      </trkpt>
      <trkpt lat="-20.90949" lon="55.36442">
        <ele>231</ele>
        <time>2013-01-07T03:29:50Z</time>
      </trkpt>
      <trkpt lat="-20.90954" lon="55.36438">
        <ele>232</ele>
        <time>2013-01-07T03:29:55Z</time>
      </trkpt>
      <trkpt lat="-20.9096" lon="55.36434">
        <ele>233</ele>
        <time>2013-01-07T03:30:00Z</time>
      </trkpt>
      <trkpt lat="-20.90966" lon="55.3643">
        <ele>234</ele>
        <time>2013-01-07T03:30:05Z</time>
      </trkpt>
      <trkpt lat="-20.90972" lon="55.36425">
        <ele>234</ele>
        <time>2013-01-07T03:30:10Z</time>
      </trkpt>
      <trkpt lat="-20.90978" lon="55.3642">
        <ele>234</ele>
        <time>2013-01-07T03:30:15Z</time>
      </trkpt>
      <trkpt lat="-20.90984" lon="55.36415">
        <ele>236</ele>
        <time>2013-01-07T03:30:20Z</time>
      </trkpt>
      <trkpt lat="-20.9099" lon="55.36411">
        <ele>236</ele>
        <time>2013-01-07T03:30:25Z</time>
      </trkpt>
      <trkpt lat="-20.90993" lon="55.36408">
        <ele>236</ele>
        <time>2013-01-07T03:30:30Z</time>
      </trkpt>
      <trkpt lat="-20.90998" lon="55.36404">
        <ele>237</ele>
        <time>2013-01-07T03:30:36Z</time>
      </trkpt>
      <trkpt lat="-20.91001" lon="55.36399">
        <ele>237</ele>
        <time>2013-01-07T03:30:41Z</time>
      </trkpt>
      <trkpt lat="-20.91004" lon="55.36392">
        <ele>237</ele>
        <time>2013-01-07T03:30:46Z</time>
      </trkpt>
      <trkpt lat="-20.91008" lon="55.36385">
        <ele>238</ele>
        <time>2013-01-07T03:30:51Z</time>
      </trkpt>
      <trkpt lat="-20.91011" lon="55.36379">
        <ele>238</ele>
        <time>2013-01-07T03:30:56Z</time>
      </trkpt>
      <trkpt lat="-20.91014" lon="55.36372">
        <ele>238</ele>
        <time>2013-01-07T03:31:01Z</time>
      </trkpt>
      <trkpt lat="-20.91018" lon="55.36365">
        <ele>238</ele>
        <time>2013-01-07T03:31:06Z</time>
      </trkpt>
      <trkpt lat="-20.91022" lon="55.36358">
        <ele>238</ele>
        <time>2013-01-07T03:31:11Z</time>
      </trkpt>
      <trkpt lat="-20.91026" lon="55.36351">
        <ele>239</ele>
        <time>2013-01-07T03:31:16Z</time>
      </trkpt>
      <trkpt lat="-20.91029" lon="55.36346">
        <ele>239</ele>
        <time>2013-01-07T03:31:21Z</time>
      </trkpt>
      <trkpt lat="-20.91033" lon="55.36337">
        <ele>239</ele>
        <time>2013-01-07T03:31:26Z</time>
      </trkpt>
      <trkpt lat="-20.91037" lon="55.36332">
        <ele>240</ele>
        <time>2013-01-07T03:31:31Z</time>
      </trkpt>
      <trkpt lat="-20.91042" lon="55.36327">
        <ele>240</ele>
        <time>2013-01-07T03:31:36Z</time>
      </trkpt>
      <trkpt lat="-20.91047" lon="55.36321">
        <ele>240</ele>
        <time>2013-01-07T03:31:41Z</time>
      </trkpt>
      <trkpt lat="-20.91053" lon="55.36317">
        <ele>241</ele>
        <time>2013-01-07T03:31:46Z</time>
      </trkpt>
      <trkpt lat="-20.91058" lon="55.36312">
        <ele>242</ele>
        <time>2013-01-07T03:31:52Z</time>
      </trkpt>
      <trkpt lat="-20.91063" lon="55.36306">
        <ele>242</ele>
        <time>2013-01-07T03:31:57Z</time>
      </trkpt>
      <trkpt lat="-20.91069" lon="55.363">
        <ele>242</ele>
        <time>2013-01-07T03:32:02Z</time>
      </trkpt>
      <trkpt lat="-20.91074" lon="55.36295">
        <ele>242</ele>
        <time>2013-01-07T03:32:07Z</time>
      </trkpt>
      <trkpt lat="-20.91077" lon="55.3629">
        <ele>241</ele>
        <time>2013-01-07T03:32:12Z</time>
      </trkpt>
      <trkpt lat="-20.91079" lon="55.36283">
        <ele>241</ele>
        <time>2013-01-07T03:32:17Z</time>
      </trkpt>
      <trkpt lat="-20.91081" lon="55.36275">
        <ele>240</ele>
        <time>2013-01-07T03:32:22Z</time>
      </trkpt>
      <trkpt lat="-20.91083" lon="55.36269">
        <ele>238</ele>
        <time>2013-01-07T03:32:27Z</time>
      </trkpt>
      <trkpt lat="-20.91085" lon="55.3626">
        <ele>238</ele>
        <time>2013-01-07T03:32:32Z</time>
      </trkpt>
      <trkpt lat="-20.91088" lon="55.36253">
        <ele>237</ele>
        <time>2013-01-07T03:32:37Z</time>
      </trkpt>
      <trkpt lat="-20.9109" lon="55.36244">
        <ele>236</ele>
        <time>2013-01-07T03:32:42Z</time>
      </trkpt>
      <trkpt lat="-20.91092" lon="55.36234">
        <ele>236</ele>
        <time>2013-01-07T03:32:47Z</time>
      </trkpt>
      <trkpt lat="-20.91095" lon="55.36225">
        <ele>235</ele>
        <time>2013-01-07T03:32:52Z</time>
      </trkpt>
      <trkpt lat="-20.91097" lon="55.36218">
        <ele>234</ele>
        <time>2013-01-07T03:32:57Z</time>
      </trkpt>
      <trkpt lat="-20.91099" lon="55.3621">
        <ele>233</ele>
        <time>2013-01-07T03:33:03Z</time>
      </trkpt>
      <trkpt lat="-20.91102" lon="55.36203">
        <ele>233</ele>
        <time>2013-01-07T03:33:08Z</time>
      </trkpt>
      <trkpt lat="-20.91104" lon="55.36196">
        <ele>232</ele>
        <time>2013-01-07T03:33:13Z</time>
      </trkpt>
      <trkpt lat="-20.91105" lon="55.36189">
        <ele>231</ele>
        <time>2013-01-07T03:33:18Z</time>
      </trkpt>
      <trkpt lat="-20.91109" lon="55.36181">
        <ele>230</ele>
        <time>2013-01-07T03:33:23Z</time>
      </trkpt>
      <trkpt lat="-20.91109" lon="55.36172">
        <ele>229</ele>
        <time>2013-01-07T03:33:28Z</time>
      </trkpt>
      <trkpt lat="-20.9111" lon="55.36164">
        <ele>229</ele>
        <time>2013-01-07T03:33:33Z</time>
      </trkpt>
      <trkpt lat="-20.91112" lon="55.36156">
        <ele>227</ele>
        <time>2013-01-07T03:33:38Z</time>
      </trkpt>
      <trkpt lat="-20.91114" lon="55.36147">
        <ele>227</ele>
        <time>2013-01-07T03:33:43Z</time>
      </trkpt>
      <trkpt lat="-20.91114" lon="55.3614">
        <ele>226</ele>
        <time>2013-01-07T03:33:48Z</time>
      </trkpt>
      <trkpt lat="-20.91116" lon="55.36132">
        <ele>225</ele>
        <time>2013-01-07T03:33:53Z</time>
      </trkpt>
      <trkpt lat="-20.91116" lon="55.36123">
        <ele>224</ele>
        <time>2013-01-07T03:33:58Z</time>
      </trkpt>
      <trkpt lat="-20.91117" lon="55.36114">
        <ele>224</ele>
        <time>2013-01-07T03:34:03Z</time>
      </trkpt>
      <trkpt lat="-20.91118" lon="55.36104">
        <ele>223</ele>
        <time>2013-01-07T03:34:08Z</time>
      </trkpt>
      <trkpt lat="-20.9112" lon="55.36095">
        <ele>223</ele>
        <time>2013-01-07T03:34:13Z</time>
      </trkpt>
      <trkpt lat="-20.91124" lon="55.36088">
        <ele>223</ele>
        <time>2013-01-07T03:34:19Z</time>
      </trkpt>
      <trkpt lat="-20.91128" lon="55.36082">
        <ele>223</ele>
        <time>2013-01-07T03:34:24Z</time>
      </trkpt>
      <trkpt lat="-20.91133" lon="55.36076">
        <ele>222</ele>
        <time>2013-01-07T03:34:29Z</time>
      </trkpt>
      <trkpt lat="-20.91136" lon="55.36068">
        <ele>221</ele>
        <time>2013-01-07T03:34:34Z</time>
      </trkpt>
      <trkpt lat="-20.91139" lon="55.36062">
        <ele>221</ele>
        <time>2013-01-07T03:34:39Z</time>
      </trkpt>
      <trkpt lat="-20.9114" lon="55.36055">
        <ele>219</ele>
        <time>2013-01-07T03:34:44Z</time>
      </trkpt>
      <trkpt lat="-20.91136" lon="55.36049">
        <ele>217</ele>
        <time>2013-01-07T03:34:49Z</time>
      </trkpt>
      <trkpt lat="-20.9113" lon="55.36044">
        <ele>215</ele>
        <time>2013-01-07T03:34:54Z</time>
      </trkpt>
      <trkpt lat="-20.91125" lon="55.36037">
        <ele>213</ele>
        <time>2013-01-07T03:34:59Z</time>
      </trkpt>
      <trkpt lat="-20.91125" lon="55.3603">
        <ele>211</ele>
        <time>2013-01-07T03:35:04Z</time>
      </trkpt>
      <trkpt lat="-20.91124" lon="55.36023">
        <ele>209</ele>
        <time>2013-01-07T03:35:09Z</time>
      </trkpt>
      <trkpt lat="-20.91118" lon="55.36017">
        <ele>207</ele>
        <time>2013-01-07T03:35:14Z</time>
      </trkpt>
      <trkpt lat="-20.91112" lon="55.36012">
        <ele>205</ele>
        <time>2013-01-07T03:35:19Z</time>
      </trkpt>
      <trkpt lat="-20.91112" lon="55.36005">
        <ele>203</ele>
        <time>2013-01-07T03:35:24Z</time>
      </trkpt>
      <trkpt lat="-20.91115" lon="55.35997">
        <ele>201</ele>
        <time>2013-01-07T03:35:29Z</time>
      </trkpt>
      <trkpt lat="-20.91118" lon="55.35991">
        <ele>199</ele>
        <time>2013-01-07T03:35:34Z</time>
      </trkpt>
      <trkpt lat="-20.91115" lon="55.35984">
        <ele>196</ele>
        <time>2013-01-07T03:35:40Z</time>
      </trkpt>
      <trkpt lat="-20.91109" lon="55.35978">
        <ele>194</ele>
        <time>2013-01-07T03:35:45Z</time>
      </trkpt>
      <trkpt lat="-20.91104" lon="55.3597">
        <ele>192</ele>
        <time>2013-01-07T03:35:50Z</time>
      </trkpt>
      <trkpt lat="-20.91099" lon="55.35963">
        <ele>190</ele>
        <time>2013-01-07T03:35:55Z</time>
      </trkpt>
      <trkpt lat="-20.91093" lon="55.35954">
        <ele>188</ele>
        <time>2013-01-07T03:36:00Z</time>
      </trkpt>
      <trkpt lat="-20.91087" lon="55.35947">
        <ele>186</ele>
        <time>2013-01-07T03:36:05Z</time>
      </trkpt>
      <trkpt lat="-20.9108" lon="55.35939">
        <ele>184</ele>
        <time>2013-01-07T03:36:10Z</time>
      </trkpt>
      <trkpt lat="-20.91075" lon="55.35933">
        <ele>182</ele>
        <time>2013-01-07T03:36:15Z</time>
      </trkpt>
      <trkpt lat="-20.91075" lon="55.35926">
        <ele>181</ele>
        <time>2013-01-07T03:36:20Z</time>
      </trkpt>
      <trkpt lat="-20.91081" lon="55.35921">
        <ele>180</ele>
        <time>2013-01-07T03:36:25Z</time>
      </trkpt>
      <trkpt lat="-20.91087" lon="55.35916">
        <ele>178</ele>
        <time>2013-01-07T03:36:30Z</time>
      </trkpt>
      <trkpt lat="-20.91095" lon="55.3591">
        <ele>177</ele>
        <time>2013-01-07T03:36:35Z</time>
      </trkpt>
      <trkpt lat="-20.91102" lon="55.35907">
        <ele>177</ele>
        <time>2013-01-07T03:36:40Z</time>
      </trkpt>
      <trkpt lat="-20.91109" lon="55.359">
        <ele>176</ele>
        <time>2013-01-07T03:36:46Z</time>
      </trkpt>
      <trkpt lat="-20.91114" lon="55.35894">
        <ele>175</ele>
        <time>2013-01-07T03:36:51Z</time>
      </trkpt>
      <trkpt lat="-20.91119" lon="55.35887">
        <ele>175</ele>
        <time>2013-01-07T03:36:56Z</time>
      </trkpt>
      <trkpt lat="-20.91124" lon="55.35879">
        <ele>174</ele>
        <time>2013-01-07T03:37:01Z</time>
      </trkpt>
      <trkpt lat="-20.91127" lon="55.35869">
        <ele>173</ele>
        <time>2013-01-07T03:37:06Z</time>
      </trkpt>
      <trkpt lat="-20.91129" lon="55.3586">
        <ele>173</ele>
        <time>2013-01-07T03:37:11Z</time>
      </trkpt>
      <trkpt lat="-20.91131" lon="55.3585">
        <ele>172</ele>
        <time>2013-01-07T03:37:16Z</time>
      </trkpt>
      <trkpt lat="-20.91133" lon="55.3584">
        <ele>171</ele>
        <time>2013-01-07T03:37:21Z</time>
      </trkpt>
      <trkpt lat="-20.91135" lon="55.35831">
        <ele>170</ele>
        <time>2013-01-07T03:37:26Z</time>
      </trkpt>
      <trkpt lat="-20.91137" lon="55.3582">
        <ele>169</ele>
        <time>2013-01-07T03:37:31Z</time>
      </trkpt>
      <trkpt lat="-20.9114" lon="55.3581">
        <ele>168</ele>
        <time>2013-01-07T03:37:36Z</time>
      </trkpt>
      <trkpt lat="-20.91142" lon="55.358">
        <ele>167</ele>
        <time>2013-01-07T03:37:41Z</time>
      </trkpt>
      <trkpt lat="-20.91145" lon="55.35789">
        <ele>166</ele>
        <time>2013-01-07T03:37:46Z</time>
      </trkpt>
      <trkpt lat="-20.91147" lon="55.35779">
        <ele>165</ele>
        <time>2013-01-07T03:37:51Z</time>
      </trkpt>
      <trkpt lat="-20.9115" lon="55.35769">
        <ele>165</ele>
        <time>2013-01-07T03:37:56Z</time>
      </trkpt>
      <trkpt lat="-20.91152" lon="55.3576">
        <ele>164</ele>
        <time>2013-01-07T03:38:01Z</time>
      </trkpt>
      <trkpt lat="-20.91154" lon="55.3575">
        <ele>163</ele>
        <time>2013-01-07T03:38:06Z</time>
      </trkpt>
      <trkpt lat="-20.91157" lon="55.3574">
        <ele>162</ele>
        <time>2013-01-07T03:38:11Z</time>
      </trkpt>
      <trkpt lat="-20.9116" lon="55.35729">
        <ele>161</ele>
        <time>2013-01-07T03:38:17Z</time>
      </trkpt>
      <trkpt lat="-20.91164" lon="55.35719">
        <ele>161</ele>
        <time>2013-01-07T03:38:22Z</time>
      </trkpt>
      <trkpt lat="-20.91168" lon="55.35711">
        <ele>160</ele>
        <time>2013-01-07T03:38:27Z</time>
      </trkpt>
      <trkpt lat="-20.91172" lon="55.35703">
        <ele>160</ele>
        <time>2013-01-07T03:38:32Z</time>
      </trkpt>
      <trkpt lat="-20.91178" lon="55.35695">
        <ele>160</ele>
        <time>2013-01-07T03:38:37Z</time>
      </trkpt>
      <trkpt lat="-20.91184" lon="55.35687">
        <ele>160</ele>
        <time>2013-01-07T03:38:42Z</time>
      </trkpt>
      <trkpt lat="-20.91191" lon="55.35679">
        <ele>159</ele>
        <time>2013-01-07T03:38:47Z</time>
      </trkpt>
      <trkpt lat="-20.91197" lon="55.35671">
        <ele>159</ele>
        <time>2013-01-07T03:38:52Z</time>
      </trkpt>
      <trkpt lat="-20.91202" lon="55.35663">
        <ele>159</ele>
        <time>2013-01-07T03:38:57Z</time>
      </trkpt>
      <trkpt lat="-20.91207" lon="55.35654">
        <ele>158</ele>
        <time>2013-01-07T03:39:02Z</time>
      </trkpt>
      <trkpt lat="-20.91213" lon="55.35646">
        <ele>158</ele>
        <time>2013-01-07T03:39:07Z</time>
      </trkpt>
      <trkpt lat="-20.9122" lon="55.35638">
        <ele>158</ele>
        <time>2013-01-07T03:39:12Z</time>
      </trkpt>
      <trkpt lat="-20.91225" lon="55.3563">
        <ele>158</ele>
        <time>2013-01-07T03:39:17Z</time>
      </trkpt>
      <trkpt lat="-20.91232" lon="55.35622">
        <ele>157</ele>
        <time>2013-01-07T03:39:22Z</time>
      </trkpt>
      <trkpt lat="-20.91238" lon="55.35614">
        <ele>157</ele>
        <time>2013-01-07T03:39:27Z</time>
      </trkpt>
      <trkpt lat="-20.91246" lon="55.35606">
        <ele>157</ele>
        <time>2013-01-07T03:39:32Z</time>
      </trkpt>
      <trkpt lat="-20.91247" lon="55.356">
        <ele>156</ele>
        <time>2013-01-07T03:39:37Z</time>
      </trkpt>
      <trkpt lat="-20.91244" lon="55.35596">
        <ele>155</ele>
        <time>2013-01-07T03:39:43Z</time>
      </trkpt>
      <trkpt lat="-20.91245" lon="55.35592">
        <ele>153</ele>
        <time>2013-01-07T03:39:48Z</time>
      </trkpt>
      <trkpt lat="-20.91252" lon="55.35588">
        <ele>152</ele>
        <time>2013-01-07T03:39:53Z</time>
      </trkpt>
      <trkpt lat="-20.9125" lon="55.35582">
        <ele>150</ele>
        <time>2013-01-07T03:39:58Z</time>
      </trkpt>
      <trkpt lat="-20.91247" lon="55.35575">
        <ele>148</ele>
        <time>2013-01-07T03:40:03Z</time>
      </trkpt>
      <trkpt lat="-20.91242" lon="55.35569">
        <ele>146</ele>
        <time>2013-01-07T03:40:08Z</time>
      </trkpt>
      <trkpt lat="-20.91246" lon="55.35566">
        <ele>145</ele>
        <time>2013-01-07T03:40:13Z</time>
      </trkpt>
      <trkpt lat="-20.91252" lon="55.35563">
        <ele>143</ele>
        <time>2013-01-07T03:40:18Z</time>
      </trkpt>
      <trkpt lat="-20.91257" lon="55.35561">
        <ele>140</ele>
        <time>2013-01-07T03:40:23Z</time>
      </trkpt>
      <trkpt lat="-20.91262" lon="55.35557">
        <ele>138</ele>
        <time>2013-01-07T03:40:28Z</time>
      </trkpt>
      <trkpt lat="-20.91257" lon="55.35552">
        <ele>136</ele>
        <time>2013-01-07T03:40:33Z</time>
      </trkpt>
      <trkpt lat="-20.91252" lon="55.35545">
        <ele>134</ele>
        <time>2013-01-07T03:40:38Z</time>
      </trkpt>
      <trkpt lat="-20.91248" lon="55.35539">
        <ele>133</ele>
        <time>2013-01-07T03:40:44Z</time>
      </trkpt>
      <trkpt lat="-20.91242" lon="55.35533">
        <ele>131</ele>
        <time>2013-01-07T03:40:49Z</time>
      </trkpt>
      <trkpt lat="-20.91243" lon="55.35527">
        <ele>129</ele>
        <time>2013-01-07T03:40:54Z</time>
      </trkpt>
      <trkpt lat="-20.91248" lon="55.35523">
        <ele>127</ele>
        <time>2013-01-07T03:40:59Z</time>
      </trkpt>
      <trkpt lat="-20.91253" lon="55.35518">
        <ele>125</ele>
        <time>2013-01-07T03:41:04Z</time>
      </trkpt>
      <trkpt lat="-20.91253" lon="55.35511">
        <ele>123</ele>
        <time>2013-01-07T03:41:09Z</time>
      </trkpt>
      <trkpt lat="-20.91258" lon="55.35507">
        <ele>122</ele>
        <time>2013-01-07T03:41:14Z</time>
      </trkpt>
      <trkpt lat="-20.91266" lon="55.35507">
        <ele>120</ele>
        <time>2013-01-07T03:41:19Z</time>
      </trkpt>
      <trkpt lat="-20.91275" lon="55.35511">
        <ele>119</ele>
        <time>2013-01-07T03:41:24Z</time>
      </trkpt>
      <trkpt lat="-20.91284" lon="55.35514">
        <ele>119</ele>
        <time>2013-01-07T03:41:29Z</time>
      </trkpt>
      <trkpt lat="-20.91293" lon="55.35516">
        <ele>118</ele>
        <time>2013-01-07T03:41:34Z</time>
      </trkpt>
      <trkpt lat="-20.91299" lon="55.35515">
        <ele>117</ele>
        <time>2013-01-07T03:41:40Z</time>
      </trkpt>
      <trkpt lat="-20.91304" lon="55.35511">
        <ele>116</ele>
        <time>2013-01-07T03:41:45Z</time>
      </trkpt>
      <trkpt lat="-20.91309" lon="55.35506">
        <ele>114</ele>
        <time>2013-01-07T03:41:50Z</time>
      </trkpt>
      <trkpt lat="-20.91315" lon="55.35505">
        <ele>112</ele>
        <time>2013-01-07T03:41:55Z</time>
      </trkpt>
      <trkpt lat="-20.91322" lon="55.35505">
        <ele>110</ele>
        <time>2013-01-07T03:42:00Z</time>
      </trkpt>
      <trkpt lat="-20.9133" lon="55.35505">
        <ele>109</ele>
        <time>2013-01-07T03:42:05Z</time>
      </trkpt>
      <trkpt lat="-20.91338" lon="55.35506">
        <ele>107</ele>
        <time>2013-01-07T03:42:10Z</time>
      </trkpt>
      <trkpt lat="-20.91346" lon="55.35504">
        <ele>106</ele>
        <time>2013-01-07T03:42:15Z</time>
      </trkpt>
      <trkpt lat="-20.91352" lon="55.35503">
        <ele>104</ele>
        <time>2013-01-07T03:42:20Z</time>
      </trkpt>
      <trkpt lat="-20.91356" lon="55.35503">
        <ele>103</ele>
        <time>2013-01-07T03:42:25Z</time>
      </trkpt>
      <trkpt lat="-20.9136" lon="55.35501">
        <ele>101</ele>
        <time>2013-01-07T03:42:30Z</time>
      </trkpt>
      <trkpt lat="-20.91362" lon="55.355">
        <ele>100</ele>
        <time>2013-01-07T03:42:35Z</time>
      </trkpt>
      <trkpt lat="-20.91363" lon="55.35498">
        <ele>100</ele>
        <time>2013-01-07T03:42:40Z</time>
      </trkpt>
      <trkpt lat="-20.91364" lon="55.35495">
        <ele>101</ele>
        <time>2013-01-07T03:42:45Z</time>
      </trkpt>
      <trkpt lat="-20.91365" lon="55.35492">
        <ele>102</ele>
        <time>2013-01-07T03:42:50Z</time>
      </trkpt>
      <trkpt lat="-20.91366" lon="55.35489">
        <ele>103</ele>
        <time>2013-01-07T03:42:55Z</time>
      </trkpt>
      <trkpt lat="-20.91365" lon="55.35482">
        <ele>103</ele>
        <time>2013-01-07T03:43:00Z</time>
      </trkpt>
      <trkpt lat="-20.91364" lon="55.35477">
        <ele>104</ele>
        <time>2013-01-07T03:43:05Z</time>
      </trkpt>
      <trkpt lat="-20.91363" lon="55.3547">
        <ele>105</ele>
        <time>2013-01-07T03:43:10Z</time>
      </trkpt>
      <trkpt lat="-20.91362" lon="55.35465">
        <ele>106</ele>
        <time>2013-01-07T03:43:15Z</time>
      </trkpt>
      <trkpt lat="-20.91361" lon="55.35459">
        <ele>106</ele>
        <time>2013-01-07T03:43:21Z</time>
      </trkpt>
      <trkpt lat="-20.91361" lon="55.35453">
        <ele>107</ele>
        <time>2013-01-07T03:43:26Z</time>
      </trkpt>
      <trkpt lat="-20.9136" lon="55.35447">
        <ele>108</ele>
        <time>2013-01-07T03:43:31Z</time>
      </trkpt>
      <trkpt lat="-20.91358" lon="55.35442">
        <ele>108</ele>
        <time>2013-01-07T03:43:36Z</time>
      </trkpt>
      <trkpt lat="-20.91357" lon="55.35437">
        <ele>110</ele>
        <time>2013-01-07T03:43:41Z</time>
      </trkpt>
      <trkpt lat="-20.91356" lon="55.35432">
        <ele>110</ele>
        <time>2013-01-07T03:43:46Z</time>
      </trkpt>
      <trkpt lat="-20.91355" lon="55.35428">
        <ele>112</ele>
        <time>2013-01-07T03:43:51Z</time>
      </trkpt>
      <trkpt lat="-20.91354" lon="55.35423">
        <ele>113</ele>
        <time>2013-01-07T03:43:56Z</time>
      </trkpt>
      <trkpt lat="-20.91353" lon="55.35418">
        <ele>114</ele>
        <time>2013-01-07T03:44:01Z</time>
      </trkpt>
      <trkpt lat="-20.91352" lon="55.35412">
        <ele>115</ele>
        <time>2013-01-07T03:44:06Z</time>
      </trkpt>
      <trkpt lat="-20.91351" lon="55.35406">
        <ele>116</ele>
        <time>2013-01-07T03:44:11Z</time>
      </trkpt>
      <trkpt lat="-20.91351" lon="55.354">
        <ele>117</ele>
        <time>2013-01-07T03:44:16Z</time>
      </trkpt>
      <trkpt lat="-20.91351" lon="55.35395">
        <ele>117</ele>
        <time>2013-01-07T03:44:21Z</time>
      </trkpt>
      <trkpt lat="-20.91349" lon="55.35389">
        <ele>118</ele>
        <time>2013-01-07T03:44:26Z</time>
      </trkpt>
      <trkpt lat="-20.91349" lon="55.35384">
        <ele>119</ele>
        <time>2013-01-07T03:44:31Z</time>
      </trkpt>
      <trkpt lat="-20.91349" lon="55.35379">
        <ele>120</ele>
        <time>2013-01-07T03:44:36Z</time>
      </trkpt>
      <trkpt lat="-20.91348" lon="55.35372">
        <ele>120</ele>
        <time>2013-01-07T03:44:41Z</time>
      </trkpt>
      <trkpt lat="-20.91347" lon="55.35366">
        <ele>121</ele>
        <time>2013-01-07T03:44:46Z</time>
      </trkpt>
      <trkpt lat="-20.91346" lon="55.35361">
        <ele>122</ele>
        <time>2013-01-07T03:44:51Z</time>
      </trkpt>
      <trkpt lat="-20.91345" lon="55.35356">
        <ele>122</ele>
        <time>2013-01-07T03:44:56Z</time>
      </trkpt>
      <trkpt lat="-20.91345" lon="55.35351">
        <ele>123</ele>
        <time>2013-01-07T03:45:02Z</time>
      </trkpt>
      <trkpt lat="-20.91344" lon="55.35345">
        <ele>124</ele>
        <time>2013-01-07T03:45:07Z</time>
      </trkpt>
      <trkpt lat="-20.91343" lon="55.35339">
        <ele>125</ele>
        <time>2013-01-07T03:45:12Z</time>
      </trkpt>
      <trkpt lat="-20.91343" lon="55.35334">
        <ele>125</ele>
        <time>2013-01-07T03:45:17Z</time>
      </trkpt>
      <trkpt lat="-20.91342" lon="55.35328">
        <ele>127</ele>
        <time>2013-01-07T03:45:22Z</time>
      </trkpt>
      <trkpt lat="-20.91341" lon="55.35322">
        <ele>128</ele>
        <time>2013-01-07T03:45:27Z</time>
      </trkpt>
      <trkpt lat="-20.91341" lon="55.35316">
        <ele>128</ele>
        <time>2013-01-07T03:45:32Z</time>
      </trkpt>
      <trkpt lat="-20.9134" lon="55.35311">
        <ele>129</ele>
        <time>2013-01-07T03:45:37Z</time>
      </trkpt>
      <trkpt lat="-20.91343" lon="55.35307">
        <ele>130</ele>
        <time>2013-01-07T03:45:42Z</time>
      </trkpt>
      <trkpt lat="-20.91347" lon="55.35308">
        <ele>132</ele>
        <time>2013-01-07T03:45:47Z</time>
      </trkpt>
      <trkpt lat="-20.91353" lon="55.3531">
        <ele>133</ele>
        <time>2013-01-07T03:45:52Z</time>
      </trkpt>
      <trkpt lat="-20.91357" lon="55.35312">
        <ele>134</ele>
        <time>2013-01-07T03:45:57Z</time>
      </trkpt>
      <trkpt lat="-20.91362" lon="55.35314">
        <ele>135</ele>
        <time>2013-01-07T03:46:02Z</time>
      </trkpt>
      <trkpt lat="-20.91368" lon="55.35316">
        <ele>135</ele>
        <time>2013-01-07T03:46:07Z</time>
      </trkpt>
      <trkpt lat="-20.91373" lon="55.35319">
        <ele>135</ele>
        <time>2013-01-07T03:46:12Z</time>
      </trkpt>
      <trkpt lat="-20.91379" lon="55.35321">
        <ele>136</ele>
        <time>2013-01-07T03:46:17Z</time>
      </trkpt>
      <trkpt lat="-20.91385" lon="55.3532">
        <ele>137</ele>
        <time>2013-01-07T03:46:23Z</time>
      </trkpt>
      <trkpt lat="-20.91386" lon="55.35315">
        <ele>138</ele>
        <time>2013-01-07T03:46:28Z</time>
      </trkpt>
      <trkpt lat="-20.91387" lon="55.3531">
        <ele>138</ele>
        <time>2013-01-07T03:46:33Z</time>
      </trkpt>
      <trkpt lat="-20.91388" lon="55.35305">
        <ele>139</ele>
        <time>2013-01-07T03:46:38Z</time>
      </trkpt>
      <trkpt lat="-20.91393" lon="55.35301">
        <ele>141</ele>
        <time>2013-01-07T03:46:43Z</time>
      </trkpt>
      <trkpt lat="-20.91399" lon="55.35298">
        <ele>141</ele>
        <time>2013-01-07T03:46:48Z</time>
      </trkpt>
      <trkpt lat="-20.91405" lon="55.35295">
        <ele>142</ele>
        <time>2013-01-07T03:46:53Z</time>
      </trkpt>
      <trkpt lat="-20.91412" lon="55.35292">
        <ele>142</ele>
        <time>2013-01-07T03:46:58Z</time>
      </trkpt>
      <trkpt lat="-20.91418" lon="55.3529">
        <ele>142</ele>
        <time>2013-01-07T03:47:03Z</time>
      </trkpt>
      <trkpt lat="-20.91426" lon="55.35291">
        <ele>142</ele>
        <time>2013-01-07T03:47:08Z</time>
      </trkpt>
      <trkpt lat="-20.91433" lon="55.3529">
        <ele>141</ele>
        <time>2013-01-07T03:47:13Z</time>
      </trkpt>
      <trkpt lat="-20.91439" lon="55.3529">
        <ele>141</ele>
        <time>2013-01-07T03:47:18Z</time>
      </trkpt>
      <trkpt lat="-20.91446" lon="55.35289">
        <ele>141</ele>
        <time>2013-01-07T03:47:23Z</time>
      </trkpt>
      <trkpt lat="-20.91455" lon="55.35289">
        <ele>141</ele>
        <time>2013-01-07T03:47:28Z</time>
      </trkpt>
      <trkpt lat="-20.91462" lon="55.3529">
        <ele>141</ele>
        <time>2013-01-07T03:47:33Z</time>
      </trkpt>
      <trkpt lat="-20.91469" lon="55.35289">
        <ele>141</ele>
        <time>2013-01-07T03:47:38Z</time>
      </trkpt>
      <trkpt lat="-20.91476" lon="55.35288">
        <ele>141</ele>
        <time>2013-01-07T03:47:43Z</time>
      </trkpt>
      <trkpt lat="-20.91484" lon="55.35286">
        <ele>140</ele>
        <time>2013-01-07T03:47:48Z</time>
      </trkpt>
      <trkpt lat="-20.91486" lon="55.35286">
        <ele>140</ele>
        <time>2013-01-07T03:47:54Z</time>
      </trkpt>
      <trkpt lat="-20.91488" lon="55.35286">
        <ele>141</ele>
        <time>2013-01-07T03:47:59Z</time>
      </trkpt>
      <trkpt lat="-20.91495" lon="55.35285">
        <ele>142</ele>
        <time>2013-01-07T03:48:04Z</time>
      </trkpt>
      <trkpt lat="-20.91501" lon="55.35284">
        <ele>142</ele>
        <time>2013-01-07T03:48:09Z</time>
      </trkpt>
      <trkpt lat="-20.91508" lon="55.35284">
        <ele>142</ele>
        <time>2013-01-07T03:48:14Z</time>
      </trkpt>
      <trkpt lat="-20.91516" lon="55.35284">
        <ele>143</ele>
        <time>2013-01-07T03:48:19Z</time>
      </trkpt>
      <trkpt lat="-20.91522" lon="55.35283">
        <ele>143</ele>
        <time>2013-01-07T03:48:24Z</time>
      </trkpt>
      <trkpt lat="-20.91529" lon="55.35283">
        <ele>144</ele>
        <time>2013-01-07T03:48:29Z</time>
      </trkpt>
      <trkpt lat="-20.91535" lon="55.35282">
        <ele>144</ele>
        <time>2013-01-07T03:48:34Z</time>
      </trkpt>
      <trkpt lat="-20.91542" lon="55.35281">
        <ele>145</ele>
        <time>2013-01-07T03:48:39Z</time>
      </trkpt>
      <trkpt lat="-20.91551" lon="55.3528">
        <ele>145</ele>
        <time>2013-01-07T03:48:44Z</time>
      </trkpt>
      <trkpt lat="-20.91558" lon="55.35279">
        <ele>146</ele>
        <time>2013-01-07T03:48:49Z</time>
      </trkpt>
      <trkpt lat="-20.91565" lon="55.35278">
        <ele>146</ele>
        <time>2013-01-07T03:48:55Z</time>
      </trkpt>
      <trkpt lat="-20.91571" lon="55.35278">
        <ele>147</ele>
        <time>2013-01-07T03:49:00Z</time>
      </trkpt>
      <trkpt lat="-20.91578" lon="55.35276">
        <ele>148</ele>
        <time>2013-01-07T03:49:05Z</time>
      </trkpt>
      <trkpt lat="-20.91585" lon="55.35275">
        <ele>148</ele>
        <time>2013-01-07T03:49:10Z</time>
      </trkpt>
      <trkpt lat="-20.9159" lon="55.35272">
        <ele>149</ele>
        <time>2013-01-07T03:49:15Z</time>
      </trkpt>
      <trkpt lat="-20.91596" lon="55.35268">
        <ele>149</ele>
        <time>2013-01-07T03:49:20Z</time>
      </trkpt>
      <trkpt lat="-20.91602" lon="55.35265">
        <ele>150</ele>
        <time>2013-01-07T03:49:25Z</time>
      </trkpt>
      <trkpt lat="-20.91607" lon="55.35262">
        <ele>150</ele>
        <time>2013-01-07T03:49:30Z</time>
      </trkpt>
      <trkpt lat="-20.91614" lon="55.35259">
        <ele>151</ele>
        <time>2013-01-07T03:49:35Z</time>
      </trkpt>
      <trkpt lat="-20.9162" lon="55.35255">
        <ele>151</ele>
        <time>2013-01-07T03:49:40Z</time>
      </trkpt>
      <trkpt lat="-20.91628" lon="55.35252">
        <ele>152</ele>
        <time>2013-01-07T03:49:45Z</time>
      </trkpt>
      <trkpt lat="-20.91633" lon="55.35249">
        <ele>152</ele>
        <time>2013-01-07T03:49:50Z</time>
      </trkpt>
      <trkpt lat="-20.91639" lon="55.35246">
        <ele>152</ele>
        <time>2013-01-07T03:49:55Z</time>
      </trkpt>
      <trkpt lat="-20.91645" lon="55.35243">
        <ele>154</ele>
        <time>2013-01-07T03:50:00Z</time>
      </trkpt>
      <trkpt lat="-20.91649" lon="55.35238">
        <ele>155</ele>
        <time>2013-01-07T03:50:05Z</time>
      </trkpt>
      <trkpt lat="-20.91651" lon="55.35231">
        <ele>155</ele>
        <time>2013-01-07T03:50:11Z</time>
      </trkpt>
      <trkpt lat="-20.91654" lon="55.35226">
        <ele>156</ele>
        <time>2013-01-07T03:50:16Z</time>
      </trkpt>
      <trkpt lat="-20.91656" lon="55.35219">
        <ele>157</ele>
        <time>2013-01-07T03:50:21Z</time>
      </trkpt>
      <trkpt lat="-20.9166" lon="55.35213">
        <ele>158</ele>
        <time>2013-01-07T03:50:26Z</time>
      </trkpt>
      <trkpt lat="-20.91662" lon="55.35207">
        <ele>159</ele>
        <time>2013-01-07T03:50:31Z</time>
      </trkpt>
      <trkpt lat="-20.91665" lon="55.35199">
        <ele>159</ele>
        <time>2013-01-07T03:50:36Z</time>
      </trkpt>
      <trkpt lat="-20.91668" lon="55.35192">
        <ele>160</ele>
        <time>2013-01-07T03:50:41Z</time>
      </trkpt>
      <trkpt lat="-20.91671" lon="55.35186">
        <ele>160</ele>
        <time>2013-01-07T03:50:46Z</time>
      </trkpt>
      <trkpt lat="-20.91674" lon="55.35178">
        <ele>160</ele>
        <time>2013-01-07T03:50:51Z</time>
      </trkpt>
      <trkpt lat="-20.91678" lon="55.3517">
        <ele>159</ele>
        <time>2013-01-07T03:50:56Z</time>
      </trkpt>
      <trkpt lat="-20.91681" lon="55.35161">
        <ele>158</ele>
        <time>2013-01-07T03:51:01Z</time>
      </trkpt>
      <trkpt lat="-20.91685" lon="55.35153">
        <ele>158</ele>
        <time>2013-01-07T03:51:06Z</time>
      </trkpt>
      <trkpt lat="-20.91689" lon="55.35144">
        <ele>157</ele>
        <time>2013-01-07T03:51:11Z</time>
      </trkpt>
      <trkpt lat="-20.91693" lon="55.35136">
        <ele>157</ele>
        <time>2013-01-07T03:51:16Z</time>
      </trkpt>
      <trkpt lat="-20.91698" lon="55.35129">
        <ele>156</ele>
        <time>2013-01-07T03:51:22Z</time>
      </trkpt>
      <trkpt lat="-20.91706" lon="55.35123">
        <ele>156</ele>
        <time>2013-01-07T03:51:27Z</time>
      </trkpt>
      <trkpt lat="-20.91712" lon="55.35119">
        <ele>155</ele>
        <time>2013-01-07T03:51:32Z</time>
      </trkpt>
      <trkpt lat="-20.9172" lon="55.35115">
        <ele>154</ele>
        <time>2013-01-07T03:51:37Z</time>
      </trkpt>
      <trkpt lat="-20.91727" lon="55.35109">
        <ele>154</ele>
        <time>2013-01-07T03:51:42Z</time>
      </trkpt>
      <trkpt lat="-20.91735" lon="55.35104">
        <ele>153</ele>
        <time>2013-01-07T03:51:47Z</time>
      </trkpt>
      <trkpt lat="-20.91743" lon="55.35101">
        <ele>153</ele>
        <time>2013-01-07T03:51:52Z</time>
      </trkpt>
      <trkpt lat="-20.91751" lon="55.35097">
        <ele>153</ele>
        <time>2013-01-07T03:51:57Z</time>
      </trkpt>
      <trkpt lat="-20.91757" lon="55.35091">
        <ele>152</ele>
        <time>2013-01-07T03:52:02Z</time>
      </trkpt>
      <trkpt lat="-20.91764" lon="55.35085">
        <ele>152</ele>
        <time>2013-01-07T03:52:07Z</time>
      </trkpt>
      <trkpt lat="-20.91772" lon="55.35081">
        <ele>152</ele>
        <time>2013-01-07T03:52:12Z</time>
      </trkpt>
      <trkpt lat="-20.91779" lon="55.35077">
        <ele>152</ele>
        <time>2013-01-07T03:52:17Z</time>
      </trkpt>
      <trkpt lat="-20.91788" lon="55.35072">
        <ele>152</ele>
        <time>2013-01-07T03:52:22Z</time>
      </trkpt>
      <trkpt lat="-20.91797" lon="55.35066">
        <ele>152</ele>
        <time>2013-01-07T03:52:27Z</time>
      </trkpt>
      <trkpt lat="-20.91804" lon="55.35062">
        <ele>152</ele>
        <time>2013-01-07T03:52:33Z</time>
      </trkpt>
      <trkpt lat="-20.9181" lon="55.35058">
        <ele>152</ele>
        <time>2013-01-07T03:52:38Z</time>
      </trkpt>
      <trkpt lat="-20.91813" lon="55.35057">
        <ele>152</ele>
        <time>2013-01-07T03:52:43Z</time>
      </trkpt>
      <trkpt lat="-20.91818" lon="55.35052">
        <ele>153</ele>
        <time>2013-01-07T03:52:48Z</time>
      </trkpt>
      <trkpt lat="-20.91824" lon="55.35049">
        <ele>153</ele>
        <time>2013-01-07T03:52:53Z</time>
      </trkpt>
      <trkpt lat="-20.9183" lon="55.35045">
        <ele>154</ele>
        <time>2013-01-07T03:52:58Z</time>
      </trkpt>
      <trkpt lat="-20.91835" lon="55.35041">
        <ele>154</ele>
        <time>2013-01-07T03:53:03Z</time>
      </trkpt>
      <trkpt lat="-20.91841" lon="55.35037">
        <ele>155</ele>
        <time>2013-01-07T03:53:08Z</time>
      </trkpt>
      <trkpt lat="-20.91847" lon="55.35033">
        <ele>155</ele>
        <time>2013-01-07T03:53:13Z</time>
      </trkpt>
      <trkpt lat="-20.91854" lon="55.35029">
        <ele>155</ele>
        <time>2013-01-07T03:53:18Z</time>
      </trkpt>
      <trkpt lat="-20.9186" lon="55.35024">
        <ele>155</ele>
        <time>2013-01-07T03:53:23Z</time>
      </trkpt>
      <trkpt lat="-20.91866" lon="55.3502">
        <ele>155</ele>
        <time>2013-01-07T03:53:28Z</time>
      </trkpt>
      <trkpt lat="-20.91872" lon="55.35015">
        <ele>155</ele>
        <time>2013-01-07T03:53:34Z</time>
      </trkpt>
      <trkpt lat="-20.91875" lon="55.35012">
        <ele>156</ele>
        <time>2013-01-07T03:53:39Z</time>
      </trkpt>
      <trkpt lat="-20.9188" lon="55.35009">
        <ele>155</ele>
        <time>2013-01-07T03:53:44Z</time>
      </trkpt>
      <trkpt lat="-20.91886" lon="55.35005">
        <ele>156</ele>
        <time>2013-01-07T03:53:49Z</time>
      </trkpt>
      <trkpt lat="-20.9189" lon="55.35002">
        <ele>155</ele>
        <time>2013-01-07T03:53:54Z</time>
      </trkpt>
      <trkpt lat="-20.91896" lon="55.34999">
        <ele>154</ele>
        <time>2013-01-07T03:53:59Z</time>
      </trkpt>
      <trkpt lat="-20.91902" lon="55.34994">
        <ele>155</ele>
        <time>2013-01-07T03:54:04Z</time>
      </trkpt>
      <trkpt lat="-20.91906" lon="55.3499">
        <ele>155</ele>
        <time>2013-01-07T03:54:09Z</time>
      </trkpt>
      <trkpt lat="-20.91911" lon="55.34987">
        <ele>154</ele>
        <time>2013-01-07T03:54:14Z</time>
      </trkpt>
      <trkpt lat="-20.91916" lon="55.34982">
        <ele>154</ele>
        <time>2013-01-07T03:54:19Z</time>
      </trkpt>
      <trkpt lat="-20.91922" lon="55.34977">
        <ele>154</ele>
        <time>2013-01-07T03:54:24Z</time>
      </trkpt>
      <trkpt lat="-20.91927" lon="55.34973">
        <ele>154</ele>
        <time>2013-01-07T03:54:29Z</time>
      </trkpt>
      <trkpt lat="-20.91934" lon="55.34968">
        <ele>154</ele>
        <time>2013-01-07T03:54:34Z</time>
      </trkpt>
      <trkpt lat="-20.91939" lon="55.34963">
        <ele>154</ele>
        <time>2013-01-07T03:54:39Z</time>
      </trkpt>
      <trkpt lat="-20.91945" lon="55.34959">
        <ele>155</ele>
        <time>2013-01-07T03:54:44Z</time>
      </trkpt>
      <trkpt lat="-20.91951" lon="55.34954">
        <ele>156</ele>
        <time>2013-01-07T03:54:49Z</time>
      </trkpt>
      <trkpt lat="-20.91957" lon="55.34949">
        <ele>156</ele>
        <time>2013-01-07T03:54:54Z</time>
      </trkpt>
      <trkpt lat="-20.91963" lon="55.34945">
        <ele>155</ele>
        <time>2013-01-07T03:55:00Z</time>
      </trkpt>
      <trkpt lat="-20.91971" lon="55.34942">
        <ele>154</ele>
        <time>2013-01-07T03:55:05Z</time>
      </trkpt>
      <trkpt lat="-20.91978" lon="55.3494">
        <ele>152</ele>
        <time>2013-01-07T03:55:10Z</time>
      </trkpt>
      <trkpt lat="-20.91986" lon="55.34938">
        <ele>151</ele>
        <time>2013-01-07T03:55:15Z</time>
      </trkpt>
      <trkpt lat="-20.91994" lon="55.34937">
        <ele>150</ele>
        <time>2013-01-07T03:55:20Z</time>
      </trkpt>
      <trkpt lat="-20.91996" lon="55.34932">
        <ele>149</ele>
        <time>2013-01-07T03:55:25Z</time>
      </trkpt>
      <trkpt lat="-20.91991" lon="55.34927">
        <ele>147</ele>
        <time>2013-01-07T03:55:30Z</time>
      </trkpt>
      <trkpt lat="-20.91985" lon="55.34922">
        <ele>145</ele>
        <time>2013-01-07T03:55:35Z</time>
      </trkpt>
      <trkpt lat="-20.91983" lon="55.34915">
        <ele>144</ele>
        <time>2013-01-07T03:55:40Z</time>
      </trkpt>
      <trkpt lat="-20.91986" lon="55.34906">
        <ele>142</ele>
        <time>2013-01-07T03:55:45Z</time>
      </trkpt>
      <trkpt lat="-20.9199" lon="55.34896">
        <ele>140</ele>
        <time>2013-01-07T03:55:50Z</time>
      </trkpt>
      <trkpt lat="-20.91993" lon="55.34887">
        <ele>138</ele>
        <time>2013-01-07T03:55:55Z</time>
      </trkpt>
      <trkpt lat="-20.91999" lon="55.3488">
        <ele>136</ele>
        <time>2013-01-07T03:56:00Z</time>
      </trkpt>
      <trkpt lat="-20.92004" lon="55.34874">
        <ele>135</ele>
        <time>2013-01-07T03:56:05Z</time>
      </trkpt>
      <trkpt lat="-20.92011" lon="55.34866">
        <ele>133</ele>
        <time>2013-01-07T03:56:10Z</time>
      </trkpt>
      <trkpt lat="-20.92017" lon="55.34861">
        <ele>132</ele>
        <time>2013-01-07T03:56:15Z</time>
      </trkpt>
      <trkpt lat="-20.92024" lon="55.34854">
        <ele>131</ele>
        <time>2013-01-07T03:56:20Z</time>
      </trkpt>
      <trkpt lat="-20.92031" lon="55.34848">
        <ele>130</ele>
        <time>2013-01-07T03:56:25Z</time>
      </trkpt>
      <trkpt lat="-20.92037" lon="55.34842">
        <ele>128</ele>
        <time>2013-01-07T03:56:30Z</time>
      </trkpt>
      <trkpt lat="-20.92043" lon="55.34835">
        <ele>127</ele>
        <time>2013-01-07T03:56:36Z</time>
      </trkpt>
      <trkpt lat="-20.9205" lon="55.34829">
        <ele>126</ele>
        <time>2013-01-07T03:56:41Z</time>
      </trkpt>
      <trkpt lat="-20.92057" lon="55.34824">
        <ele>125</ele>
        <time>2013-01-07T03:56:46Z</time>
      </trkpt>
      <trkpt lat="-20.92063" lon="55.34819">
        <ele>123</ele>
        <time>2013-01-07T03:56:51Z</time>
      </trkpt>
      <trkpt lat="-20.92069" lon="55.34813">
        <ele>121</ele>
        <time>2013-01-07T03:56:56Z</time>
      </trkpt>
      <trkpt lat="-20.92073" lon="55.34806">
        <ele>119</ele>
        <time>2013-01-07T03:57:01Z</time>
      </trkpt>
      <trkpt lat="-20.92071" lon="55.348">
        <ele>117</ele>
        <time>2013-01-07T03:57:06Z</time>
      </trkpt>
      <trkpt lat="-20.92068" lon="55.34793">
        <ele>115</ele>
        <time>2013-01-07T03:57:11Z</time>
      </trkpt>
      <trkpt lat="-20.92066" lon="55.34782">
        <ele>114</ele>
        <time>2013-01-07T03:57:16Z</time>
      </trkpt>
      <trkpt lat="-20.92069" lon="55.34776">
        <ele>112</ele>
        <time>2013-01-07T03:57:21Z</time>
      </trkpt>
      <trkpt lat="-20.92075" lon="55.34769">
        <ele>110</ele>
        <time>2013-01-07T03:57:26Z</time>
      </trkpt>
      <trkpt lat="-20.92081" lon="55.34762">
        <ele>108</ele>
        <time>2013-01-07T03:57:31Z</time>
      </trkpt>
      <trkpt lat="-20.92088" lon="55.34759">
        <ele>105</ele>
        <time>2013-01-07T03:57:37Z</time>
      </trkpt>
      <trkpt lat="-20.92093" lon="55.34763">
        <ele>104</ele>
        <time>2013-01-07T03:57:42Z</time>
      </trkpt>
      <trkpt lat="-20.921" lon="55.34766">
        <ele>102</ele>
        <time>2013-01-07T03:57:47Z</time>
      </trkpt>
      <trkpt lat="-20.92102" lon="55.34759">
        <ele>100</ele>
        <time>2013-01-07T03:57:52Z</time>
      </trkpt>
      <trkpt lat="-20.92103" lon="55.34751">
        <ele>98</ele>
        <time>2013-01-07T03:57:57Z</time>
      </trkpt>
      <trkpt lat="-20.92101" lon="55.34744">
        <ele>96</ele>
        <time>2013-01-07T03:58:02Z</time>
      </trkpt>
      <trkpt lat="-20.92102" lon="55.34738">
        <ele>94</ele>
        <time>2013-01-07T03:58:07Z</time>
      </trkpt>
      <trkpt lat="-20.92109" lon="55.3474">
        <ele>93</ele>
        <time>2013-01-07T03:58:12Z</time>
      </trkpt>
      <trkpt lat="-20.92114" lon="55.34743">
        <ele>91</ele>
        <time>2013-01-07T03:58:17Z</time>
      </trkpt>
      <trkpt lat="-20.92119" lon="55.34748">
        <ele>90</ele>
        <time>2013-01-07T03:58:22Z</time>
      </trkpt>
      <trkpt lat="-20.92126" lon="55.34755">
        <ele>88</ele>
        <time>2013-01-07T03:58:27Z</time>
      </trkpt>
      <trkpt lat="-20.92136" lon="55.34761">
        <ele>86</ele>
        <time>2013-01-07T03:58:32Z</time>
      </trkpt>
      <trkpt lat="-20.92142" lon="55.34766">
        <ele>83</ele>
        <time>2013-01-07T03:58:37Z</time>
      </trkpt>
      <trkpt lat="-20.9215" lon="55.3477">
        <ele>82</ele>
        <time>2013-01-07T03:58:42Z</time>
      </trkpt>
      <trkpt lat="-20.92155" lon="55.34774">
        <ele>80</ele>
        <time>2013-01-07T03:58:47Z</time>
      </trkpt>
      <trkpt lat="-20.92154" lon="55.34767">
        <ele>78</ele>
        <time>2013-01-07T03:58:53Z</time>
      </trkpt>
      <trkpt lat="-20.92151" lon="55.34761">
        <ele>77</ele>
        <time>2013-01-07T03:58:58Z</time>
      </trkpt>
      <trkpt lat="-20.92153" lon="55.34758">
        <ele>75</ele>
        <time>2013-01-07T03:59:03Z</time>
      </trkpt>
      <trkpt lat="-20.92159" lon="55.34761">
        <ele>73</ele>
        <time>2013-01-07T03:59:08Z</time>
      </trkpt>
      <trkpt lat="-20.92161" lon="55.34756">
        <ele>71</ele>
        <time>2013-01-07T03:59:13Z</time>
      </trkpt>
      <trkpt lat="-20.92159" lon="55.34753">
        <ele>70</ele>
        <time>2013-01-07T03:59:18Z</time>
      </trkpt>
      <trkpt lat="-20.92156" lon="55.34749">
        <ele>69</ele>
        <time>2013-01-07T03:59:23Z</time>
      </trkpt>
      <trkpt lat="-20.92161" lon="55.3475">
        <ele>67</ele>
        <time>2013-01-07T03:59:28Z</time>
      </trkpt>
      <trkpt lat="-20.92166" lon="55.3475">
        <ele>66</ele>
        <time>2013-01-07T03:59:33Z</time>
      </trkpt>
      <trkpt lat="-20.92164" lon="55.34744">
        <ele>65</ele>
        <time>2013-01-07T03:59:38Z</time>
      </trkpt>
      <trkpt lat="-20.92162" lon="55.34739">
        <ele>63</ele>
        <time>2013-01-07T03:59:43Z</time>
      </trkpt>
      <trkpt lat="-20.92163" lon="55.34732">
        <ele>61</ele>
        <time>2013-01-07T03:59:48Z</time>
      </trkpt>
      <trkpt lat="-20.92162" lon="55.34726">
        <ele>60</ele>
        <time>2013-01-07T03:59:53Z</time>
      </trkpt>
      <trkpt lat="-20.9216" lon="55.34721">
        <ele>58</ele>
        <time>2013-01-07T03:59:58Z</time>
      </trkpt>
      <trkpt lat="-20.92162" lon="55.34718">
        <ele>56</ele>
        <time>2013-01-07T04:00:03Z</time>
      </trkpt>
      <trkpt lat="-20.92167" lon="55.3472">
        <ele>54</ele>
        <time>2013-01-07T04:00:09Z</time>
      </trkpt>
      <trkpt lat="-20.92169" lon="55.34718">
        <ele>52</ele>
        <time>2013-01-07T04:00:14Z</time>
      </trkpt>
      <trkpt lat="-20.92169" lon="55.34713">
        <ele>51</ele>
        <time>2013-01-07T04:00:19Z</time>
      </trkpt>
      <trkpt lat="-20.92168" lon="55.34708">
        <ele>50</ele>
        <time>2013-01-07T04:00:24Z</time>
      </trkpt>
      <trkpt lat="-20.92167" lon="55.34701">
        <ele>49</ele>
        <time>2013-01-07T04:00:29Z</time>
      </trkpt>
      <trkpt lat="-20.92165" lon="55.34695">
        <ele>47</ele>
        <time>2013-01-07T04:00:34Z</time>
      </trkpt>
      <trkpt lat="-20.92162" lon="55.34689">
        <ele>46</ele>
        <time>2013-01-07T04:00:39Z</time>
      </trkpt>
      <trkpt lat="-20.9216" lon="55.34683">
        <ele>44</ele>
        <time>2013-01-07T04:00:44Z</time>
      </trkpt>
      <trkpt lat="-20.92164" lon="55.34683">
        <ele>42</ele>
        <time>2013-01-07T04:00:49Z</time>
      </trkpt>
      <trkpt lat="-20.9217" lon="55.34684">
        <ele>41</ele>
        <time>2013-01-07T04:00:54Z</time>
      </trkpt>
      <trkpt lat="-20.9217" lon="55.34679">
        <ele>39</ele>
        <time>2013-01-07T04:00:59Z</time>
      </trkpt>
      <trkpt lat="-20.92168" lon="55.34675">
        <ele>37</ele>
        <time>2013-01-07T04:01:04Z</time>
      </trkpt>
      <trkpt lat="-20.92173" lon="55.34672">
        <ele>35</ele>
        <time>2013-01-07T04:01:10Z</time>
      </trkpt>
      <trkpt lat="-20.92178" lon="55.34672">
        <ele>33</ele>
        <time>2013-01-07T04:01:15Z</time>
      </trkpt>
      <trkpt lat="-20.92187" lon="55.34673">
        <ele>31</ele>
        <time>2013-01-07T04:01:20Z</time>
      </trkpt>
      <trkpt lat="-20.92194" lon="55.34676">
        <ele>30</ele>
        <time>2013-01-07T04:01:25Z</time>
      </trkpt>
      <trkpt lat="-20.92201" lon="55.34678">
        <ele>28</ele>
        <time>2013-01-07T04:01:30Z</time>
      </trkpt>
      <trkpt lat="-20.92207" lon="55.34676">
        <ele>27</ele>
        <time>2013-01-07T04:01:35Z</time>
      </trkpt>
      <trkpt lat="-20.92212" lon="55.34674">
        <ele>27</ele>
        <time>2013-01-07T04:01:40Z</time>
      </trkpt>
      <trkpt lat="-20.92218" lon="55.34671">
        <ele>26</ele>
        <time>2013-01-07T04:01:45Z</time>
      </trkpt>
      <trkpt lat="-20.92223" lon="55.34668">
        <ele>25</ele>
        <time>2013-01-07T04:01:50Z</time>
      </trkpt>
      <trkpt lat="-20.92225" lon="55.34661">
        <ele>25</ele>
        <time>2013-01-07T04:01:55Z</time>
      </trkpt>
      <trkpt lat="-20.9223" lon="55.34655">
        <ele>24</ele>
        <time>2013-01-07T04:02:00Z</time>
      </trkpt>
      <trkpt lat="-20.92237" lon="55.34652">
        <ele>24</ele>
        <time>2013-01-07T04:02:06Z</time>
      </trkpt>
      <trkpt lat="-20.92241" lon="55.34649">
        <ele>24</ele>
        <time>2013-01-07T04:02:11Z</time>
      </trkpt>
      <trkpt lat="-20.92246" lon="55.34645">
        <ele>24</ele>
        <time>2013-01-07T04:02:16Z</time>
      </trkpt>
      <trkpt lat="-20.92249" lon="55.34642">
        <ele>24</ele>
        <time>2013-01-07T04:02:21Z</time>
      </trkpt>
      <trkpt lat="-20.92252" lon="55.34641">
        <ele>24</ele>
        <time>2013-01-07T04:02:26Z</time>
      </trkpt>
      <trkpt lat="-20.92254" lon="55.34638">
        <ele>24</ele>
        <time>2013-01-07T04:02:31Z</time>
      </trkpt>
      <trkpt lat="-20.92254" lon="55.34639">
        <ele>25</ele>
        <time>2013-01-07T04:02:36Z</time>
      </trkpt>
      <trkpt lat="-20.92234" lon="55.34653">
        <ele>24</ele>
        <time>2013-01-07T04:02:41Z</time>
      </trkpt>
      <trkpt lat="-20.92231" lon="55.34659">
        <ele>24</ele>
        <time>2013-01-07T04:02:46Z</time>
      </trkpt>
      <trkpt lat="-20.92227" lon="55.34661">
        <ele>25</ele>
        <time>2013-01-07T04:02:51Z</time>
      </trkpt>
      <trkpt lat="-20.92219" lon="55.34665">
        <ele>26</ele>
        <time>2013-01-07T04:02:56Z</time>
      </trkpt>
      <trkpt lat="-20.92212" lon="55.34668">
        <ele>26</ele>
        <time>2013-01-07T04:03:01Z</time>
      </trkpt>
      <trkpt lat="-20.92207" lon="55.34671">
        <ele>26</ele>
        <time>2013-01-07T04:03:06Z</time>
      </trkpt>
      <trkpt lat="-20.92202" lon="55.34671">
        <ele>27</ele>
        <time>2013-01-07T04:03:11Z</time>
      </trkpt>
      <trkpt lat="-20.92198" lon="55.34669">
        <ele>28</ele>
        <time>2013-01-07T04:03:16Z</time>
      </trkpt>
      <trkpt lat="-20.92193" lon="55.34667">
        <ele>29</ele>
        <time>2013-01-07T04:03:21Z</time>
      </trkpt>
      <trkpt lat="-20.92189" lon="55.34665">
        <ele>30</ele>
        <time>2013-01-07T04:03:26Z</time>
      </trkpt>
      <trkpt lat="-20.92185" lon="55.34664">
        <ele>31</ele>
        <time>2013-01-07T04:03:31Z</time>
      </trkpt>
      <trkpt lat="-20.92181" lon="55.34663">
        <ele>31</ele>
        <time>2013-01-07T04:03:36Z</time>
      </trkpt>
      <trkpt lat="-20.92177" lon="55.34663">
        <ele>33</ele>
        <time>2013-01-07T04:03:41Z</time>
      </trkpt>
      <trkpt lat="-20.92174" lon="55.34662">
        <ele>34</ele>
        <time>2013-01-07T04:03:46Z</time>
      </trkpt>
      <trkpt lat="-20.9217" lon="55.34663">
        <ele>35</ele>
        <time>2013-01-07T04:03:51Z</time>
      </trkpt>
      <trkpt lat="-20.9217" lon="55.34666">
        <ele>36</ele>
        <time>2013-01-07T04:03:57Z</time>
      </trkpt>
      <trkpt lat="-20.92171" lon="55.3467">
        <ele>37</ele>
        <time>2013-01-07T04:04:02Z</time>
      </trkpt>
      <trkpt lat="-20.92171" lon="55.34673">
        <ele>38</ele>
        <time>2013-01-07T04:04:07Z</time>
      </trkpt>
      <trkpt lat="-20.9217" lon="55.34677">
        <ele>39</ele>
        <time>2013-01-07T04:04:12Z</time>
      </trkpt>
      <trkpt lat="-20.92167" lon="55.34677">
        <ele>40</ele>
        <time>2013-01-07T04:04:17Z</time>
      </trkpt>
      <trkpt lat="-20.92163" lon="55.34676">
        <ele>41</ele>
        <time>2013-01-07T04:04:22Z</time>
      </trkpt>
      <trkpt lat="-20.92159" lon="55.34676">
        <ele>42</ele>
        <time>2013-01-07T04:04:27Z</time>
      </trkpt>
      <trkpt lat="-20.92158" lon="55.34677">
        <ele>43</ele>
        <time>2013-01-07T04:04:32Z</time>
      </trkpt>
      <trkpt lat="-20.92158" lon="55.34681">
        <ele>44</ele>
        <time>2013-01-07T04:04:37Z</time>
      </trkpt>
      <trkpt lat="-20.92159" lon="55.34684">
        <ele>45</ele>
        <time>2013-01-07T04:04:42Z</time>
      </trkpt>
      <trkpt lat="-20.92161" lon="55.34689">
        <ele>46</ele>
        <time>2013-01-07T04:04:47Z</time>
      </trkpt>
      <trkpt lat="-20.92163" lon="55.34692">
        <ele>47</ele>
        <time>2013-01-07T04:04:52Z</time>
      </trkpt>
      <trkpt lat="-20.92164" lon="55.34697">
        <ele>47</ele>
        <time>2013-01-07T04:04:57Z</time>
      </trkpt>
      <trkpt lat="-20.92165" lon="55.347">
        <ele>48</ele>
        <time>2013-01-07T04:05:03Z</time>
      </trkpt>
      <trkpt lat="-20.92166" lon="55.34704">
        <ele>49</ele>
        <time>2013-01-07T04:05:08Z</time>
      </trkpt>
      <trkpt lat="-20.92165" lon="55.34708">
        <ele>51</ele>
        <time>2013-01-07T04:05:13Z</time>
      </trkpt>
      <trkpt lat="-20.92164" lon="55.34712">
        <ele>51</ele>
        <time>2013-01-07T04:05:18Z</time>
      </trkpt>
      <trkpt lat="-20.92163" lon="55.34715">
        <ele>52</ele>
        <time>2013-01-07T04:05:23Z</time>
      </trkpt>
      <trkpt lat="-20.9216" lon="55.34713">
        <ele>54</ele>
        <time>2013-01-07T04:05:28Z</time>
      </trkpt>
      <trkpt lat="-20.92158" lon="55.34713">
        <ele>55</ele>
        <time>2013-01-07T04:05:33Z</time>
      </trkpt>
      <trkpt lat="-20.92157" lon="55.34715">
        <ele>56</ele>
        <time>2013-01-07T04:05:38Z</time>
      </trkpt>
      <trkpt lat="-20.92158" lon="55.34718">
        <ele>57</ele>
        <time>2013-01-07T04:05:43Z</time>
      </trkpt>
      <trkpt lat="-20.9216" lon="55.34721">
        <ele>58</ele>
        <time>2013-01-07T04:05:48Z</time>
      </trkpt>
      <trkpt lat="-20.92161" lon="55.34725">
        <ele>59</ele>
        <time>2013-01-07T04:05:53Z</time>
      </trkpt>
      <trkpt lat="-20.92163" lon="55.34729">
        <ele>60</ele>
        <time>2013-01-07T04:05:58Z</time>
      </trkpt>
      <trkpt lat="-20.92164" lon="55.34733">
        <ele>61</ele>
        <time>2013-01-07T04:06:04Z</time>
      </trkpt>
      <trkpt lat="-20.92166" lon="55.34737">
        <ele>62</ele>
        <time>2013-01-07T04:06:09Z</time>
      </trkpt>
      <trkpt lat="-20.92168" lon="55.34742">
        <ele>63</ele>
        <time>2013-01-07T04:06:14Z</time>
      </trkpt>
      <trkpt lat="-20.92168" lon="55.34746">
        <ele>64</ele>
        <time>2013-01-07T04:06:19Z</time>
      </trkpt>
      <trkpt lat="-20.92166" lon="55.34747">
        <ele>65</ele>
        <time>2013-01-07T04:06:24Z</time>
      </trkpt>
      <trkpt lat="-20.92162" lon="55.34747">
        <ele>66</ele>
        <time>2013-01-07T04:06:29Z</time>
      </trkpt>
      <trkpt lat="-20.92159" lon="55.34747">
        <ele>67</ele>
        <time>2013-01-07T04:06:34Z</time>
      </trkpt>
      <trkpt lat="-20.92159" lon="55.34749">
        <ele>68</ele>
        <time>2013-01-07T04:06:39Z</time>
      </trkpt>
      <trkpt lat="-20.92162" lon="55.34752">
        <ele>69</ele>
        <time>2013-01-07T04:06:44Z</time>
      </trkpt>
      <trkpt lat="-20.92163" lon="55.34755">
        <ele>70</ele>
        <time>2013-01-07T04:06:49Z</time>
      </trkpt>
      <trkpt lat="-20.92161" lon="55.34756">
        <ele>71</ele>
        <time>2013-01-07T04:06:54Z</time>
      </trkpt>
      <trkpt lat="-20.92158" lon="55.34756">
        <ele>72</ele>
        <time>2013-01-07T04:06:59Z</time>
      </trkpt>
      <trkpt lat="-20.92155" lon="55.34756">
        <ele>73</ele>
        <time>2013-01-07T04:07:05Z</time>
      </trkpt>
      <trkpt lat="-20.92151" lon="55.34756">
        <ele>74</ele>
        <time>2013-01-07T04:07:10Z</time>
      </trkpt>
      <trkpt lat="-20.92152" lon="55.3476">
        <ele>76</ele>
        <time>2013-01-07T04:07:15Z</time>
      </trkpt>
      <trkpt lat="-20.92154" lon="55.34763">
        <ele>76</ele>
        <time>2013-01-07T04:07:20Z</time>
      </trkpt>
      <trkpt lat="-20.92157" lon="55.34767">
        <ele>77</ele>
        <time>2013-01-07T04:07:25Z</time>
      </trkpt>
      <trkpt lat="-20.92156" lon="55.34771">
        <ele>78</ele>
        <time>2013-01-07T04:07:30Z</time>
      </trkpt>
      <trkpt lat="-20.92154" lon="55.34771">
        <ele>79</ele>
        <time>2013-01-07T04:07:35Z</time>
      </trkpt>
      <trkpt lat="-20.92152" lon="55.34769">
        <ele>80</ele>
        <time>2013-01-07T04:07:40Z</time>
      </trkpt>
      <trkpt lat="-20.92149" lon="55.34766">
        <ele>81</ele>
        <time>2013-01-07T04:07:45Z</time>
      </trkpt>
      <trkpt lat="-20.92144" lon="55.34762">
        <ele>82</ele>
        <time>2013-01-07T04:07:50Z</time>
      </trkpt>
      <trkpt lat="-20.92141" lon="55.3476">
        <ele>83</ele>
        <time>2013-01-07T04:07:55Z</time>
      </trkpt>
      <trkpt lat="-20.92138" lon="55.34756">
        <ele>84</ele>
        <time>2013-01-07T04:08:00Z</time>
      </trkpt>
      <trkpt lat="-20.92134" lon="55.34753">
        <ele>85</ele>
        <time>2013-01-07T04:08:05Z</time>
      </trkpt>
      <trkpt lat="-20.9213" lon="55.3475">
        <ele>86</ele>
        <time>2013-01-07T04:08:10Z</time>
      </trkpt>
      <trkpt lat="-20.92127" lon="55.34747">
        <ele>87</ele>
        <time>2013-01-07T04:08:15Z</time>
      </trkpt>
      <trkpt lat="-20.92123" lon="55.34744">
        <ele>88</ele>
        <time>2013-01-07T04:08:20Z</time>
      </trkpt>
      <trkpt lat="-20.9212" lon="55.34742">
        <ele>89</ele>
        <time>2013-01-07T04:08:25Z</time>
      </trkpt>
      <trkpt lat="-20.92116" lon="55.3474">
        <ele>90</ele>
        <time>2013-01-07T04:08:30Z</time>
      </trkpt>
      <trkpt lat="-20.92113" lon="55.34736">
        <ele>91</ele>
        <time>2013-01-07T04:08:35Z</time>
      </trkpt>
      <trkpt lat="-20.92109" lon="55.34732">
        <ele>92</ele>
        <time>2013-01-07T04:08:40Z</time>
      </trkpt>
      <trkpt lat="-20.92105" lon="55.34732">
        <ele>93</ele>
        <time>2013-01-07T04:08:45Z</time>
      </trkpt>
      <trkpt lat="-20.92103" lon="55.34735">
        <ele>94</ele>
        <time>2013-01-07T04:08:51Z</time>
      </trkpt>
      <trkpt lat="-20.92103" lon="55.34736">
        <ele>94</ele>
        <time>2013-01-07T04:08:56Z</time>
      </trkpt>
      <trkpt lat="-20.92104" lon="55.34739">
        <ele>95</ele>
        <time>2013-01-07T04:09:01Z</time>
      </trkpt>
      <trkpt lat="-20.92105" lon="55.34742">
        <ele>96</ele>
        <time>2013-01-07T04:09:06Z</time>
      </trkpt>
      <trkpt lat="-20.92106" lon="55.34746">
        <ele>97</ele>
        <time>2013-01-07T04:09:11Z</time>
      </trkpt>
      <trkpt lat="-20.92106" lon="55.34751">
        <ele>98</ele>
        <time>2013-01-07T04:09:16Z</time>
      </trkpt>
      <trkpt lat="-20.92106" lon="55.34755">
        <ele>99</ele>
        <time>2013-01-07T04:09:21Z</time>
      </trkpt>
      <trkpt lat="-20.92105" lon="55.34758">
        <ele>100</ele>
        <time>2013-01-07T04:09:26Z</time>
      </trkpt>
      <trkpt lat="-20.92102" lon="55.34759">
        <ele>101</ele>
        <time>2013-01-07T04:09:31Z</time>
      </trkpt>
      <trkpt lat="-20.92098" lon="55.34758">
        <ele>102</ele>
        <time>2013-01-07T04:09:36Z</time>
      </trkpt>
      <trkpt lat="-20.92095" lon="55.34757">
        <ele>103</ele>
        <time>2013-01-07T04:09:41Z</time>
      </trkpt>
      <trkpt lat="-20.92092" lon="55.34756">
        <ele>103</ele>
        <time>2013-01-07T04:09:46Z</time>
      </trkpt>
      <trkpt lat="-20.92088" lon="55.34757">
        <ele>104</ele>
        <time>2013-01-07T04:09:51Z</time>
      </trkpt>
      <trkpt lat="-20.92085" lon="55.34759">
        <ele>105</ele>
        <time>2013-01-07T04:09:56Z</time>
      </trkpt>
      <trkpt lat="-20.92083" lon="55.34761">
        <ele>106</ele>
        <time>2013-01-07T04:10:01Z</time>
      </trkpt>
      <trkpt lat="-20.9208" lon="55.34764">
        <ele>107</ele>
        <time>2013-01-07T04:10:07Z</time>
      </trkpt>
      <trkpt lat="-20.92076" lon="55.34767">
        <ele>109</ele>
        <time>2013-01-07T04:10:12Z</time>
      </trkpt>
      <trkpt lat="-20.92073" lon="55.34769">
        <ele>110</ele>
        <time>2013-01-07T04:10:17Z</time>
      </trkpt>
      <trkpt lat="-20.9207" lon="55.34771">
        <ele>111</ele>
        <time>2013-01-07T04:10:22Z</time>
      </trkpt>
      <trkpt lat="-20.92068" lon="55.34776">
        <ele>112</ele>
        <time>2013-01-07T04:10:27Z</time>
      </trkpt>
      <trkpt lat="-20.92071" lon="55.34779">
        <ele>113</ele>
        <time>2013-01-07T04:10:32Z</time>
      </trkpt>
      <trkpt lat="-20.92073" lon="55.34784">
        <ele>115</ele>
        <time>2013-01-07T04:10:37Z</time>
      </trkpt>
      <trkpt lat="-20.92075" lon="55.34788">
        <ele>116</ele>
        <time>2013-01-07T04:10:42Z</time>
      </trkpt>
      <trkpt lat="-20.92076" lon="55.34792">
        <ele>117</ele>
        <time>2013-01-07T04:10:47Z</time>
      </trkpt>
      <trkpt lat="-20.92079" lon="55.34796">
        <ele>118</ele>
        <time>2013-01-07T04:10:52Z</time>
      </trkpt>
      <trkpt lat="-20.9208" lon="55.348">
        <ele>119</ele>
        <time>2013-01-07T04:10:57Z</time>
      </trkpt>
      <trkpt lat="-20.92077" lon="55.34804">
        <ele>119</ele>
        <time>2013-01-07T04:11:02Z</time>
      </trkpt>
      <trkpt lat="-20.92075" lon="55.34808">
        <ele>120</ele>
        <time>2013-01-07T04:11:07Z</time>
      </trkpt>
      <trkpt lat="-20.92072" lon="55.34811">
        <ele>121</ele>
        <time>2013-01-07T04:11:12Z</time>
      </trkpt>
      <trkpt lat="-20.92068" lon="55.34814">
        <ele>122</ele>
        <time>2013-01-07T04:11:17Z</time>
      </trkpt>
      <trkpt lat="-20.92064" lon="55.34817">
        <ele>122</ele>
        <time>2013-01-07T04:11:23Z</time>
      </trkpt>
      <trkpt lat="-20.9206" lon="55.3482">
        <ele>124</ele>
        <time>2013-01-07T04:11:28Z</time>
      </trkpt>
      <trkpt lat="-20.92056" lon="55.34824">
        <ele>125</ele>
        <time>2013-01-07T04:11:33Z</time>
      </trkpt>
      <trkpt lat="-20.92051" lon="55.34827">
        <ele>125</ele>
        <time>2013-01-07T04:11:38Z</time>
      </trkpt>
      <trkpt lat="-20.92046" lon="55.34831">
        <ele>126</ele>
        <time>2013-01-07T04:11:43Z</time>
      </trkpt>
      <trkpt lat="-20.92042" lon="55.34835">
        <ele>127</ele>
        <time>2013-01-07T04:11:48Z</time>
      </trkpt>
      <trkpt lat="-20.92037" lon="55.34839">
        <ele>127</ele>
        <time>2013-01-07T04:11:53Z</time>
      </trkpt>
      <trkpt lat="-20.92031" lon="55.34844">
        <ele>128</ele>
        <time>2013-01-07T04:11:58Z</time>
      </trkpt>
      <trkpt lat="-20.92027" lon="55.34847">
        <ele>129</ele>
        <time>2013-01-07T04:12:03Z</time>
      </trkpt>
      <trkpt lat="-20.92023" lon="55.34851">
        <ele>130</ele>
        <time>2013-01-07T04:12:08Z</time>
      </trkpt>
      <trkpt lat="-20.92019" lon="55.34855">
        <ele>130</ele>
        <time>2013-01-07T04:12:13Z</time>
      </trkpt>
      <trkpt lat="-20.92014" lon="55.34859">
        <ele>131</ele>
        <time>2013-01-07T04:12:18Z</time>
      </trkpt>
      <trkpt lat="-20.9201" lon="55.34863">
        <ele>132</ele>
        <time>2013-01-07T04:12:23Z</time>
      </trkpt>
      <trkpt lat="-20.92006" lon="55.34867">
        <ele>133</ele>
        <time>2013-01-07T04:12:28Z</time>
      </trkpt>
      <trkpt lat="-20.92002" lon="55.34871">
        <ele>134</ele>
        <time>2013-01-07T04:12:33Z</time>
      </trkpt>
      <trkpt lat="-20.91998" lon="55.34874">
        <ele>135</ele>
        <time>2013-01-07T04:12:38Z</time>
      </trkpt>
      <trkpt lat="-20.91994" lon="55.34878">
        <ele>136</ele>
        <time>2013-01-07T04:12:43Z</time>
      </trkpt>
      <trkpt lat="-20.91993" lon="55.34881">
        <ele>136</ele>
        <time>2013-01-07T04:12:48Z</time>
      </trkpt>
      <trkpt lat="-20.91991" lon="55.34884">
        <ele>137</ele>
        <time>2013-01-07T04:12:53Z</time>
      </trkpt>
      <trkpt lat="-20.91989" lon="55.34889">
        <ele>138</ele>
        <time>2013-01-07T04:12:58Z</time>
      </trkpt>
      <trkpt lat="-20.91987" lon="55.34894">
        <ele>139</ele>
        <time>2013-01-07T04:13:04Z</time>
      </trkpt>
      <trkpt lat="-20.91985" lon="55.349">
        <ele>140</ele>
        <time>2013-01-07T04:13:09Z</time>
      </trkpt>
      <trkpt lat="-20.91984" lon="55.34905">
        <ele>141</ele>
        <time>2013-01-07T04:13:14Z</time>
      </trkpt>
      <trkpt lat="-20.91983" lon="55.3491">
        <ele>142</ele>
        <time>2013-01-07T04:13:19Z</time>
      </trkpt>
      <trkpt lat="-20.91985" lon="55.34914">
        <ele>143</ele>
        <time>2013-01-07T04:13:24Z</time>
      </trkpt>
      <trkpt lat="-20.91989" lon="55.34918">
        <ele>144</ele>
        <time>2013-01-07T04:13:29Z</time>
      </trkpt>
      <trkpt lat="-20.91994" lon="55.34921">
        <ele>145</ele>
        <time>2013-01-07T04:13:34Z</time>
      </trkpt>
      <trkpt lat="-20.91997" lon="55.34925">
        <ele>147</ele>
        <time>2013-01-07T04:13:39Z</time>
      </trkpt>
      <trkpt lat="-20.91998" lon="55.34928">
        <ele>147</ele>
        <time>2013-01-07T04:13:44Z</time>
      </trkpt>
      <trkpt lat="-20.91994" lon="55.3493">
        <ele>148</ele>
        <time>2013-01-07T04:13:49Z</time>
      </trkpt>
      <trkpt lat="-20.91989" lon="55.34932">
        <ele>149</ele>
        <time>2013-01-07T04:13:54Z</time>
      </trkpt>
      <trkpt lat="-20.91984" lon="55.34934">
        <ele>149</ele>
        <time>2013-01-07T04:13:59Z</time>
      </trkpt>
      <trkpt lat="-20.91978" lon="55.34936">
        <ele>150</ele>
        <time>2013-01-07T04:14:04Z</time>
      </trkpt>
      <trkpt lat="-20.91974" lon="55.34938">
        <ele>151</ele>
        <time>2013-01-07T04:14:09Z</time>
      </trkpt>
      <trkpt lat="-20.91969" lon="55.34938">
        <ele>152</ele>
        <time>2013-01-07T04:14:14Z</time>
      </trkpt>
      <trkpt lat="-20.91964" lon="55.3494">
        <ele>153</ele>
        <time>2013-01-07T04:14:19Z</time>
      </trkpt>
      <trkpt lat="-20.91959" lon="55.34942">
        <ele>154</ele>
        <time>2013-01-07T04:14:24Z</time>
      </trkpt>
      <trkpt lat="-20.91954" lon="55.34946">
        <ele>155</ele>
        <time>2013-01-07T04:14:29Z</time>
      </trkpt>
      <trkpt lat="-20.9195" lon="55.3495">
        <ele>155</ele>
        <time>2013-01-07T04:14:34Z</time>
      </trkpt>
      <trkpt lat="-20.91945" lon="55.34953">
        <ele>155</ele>
        <time>2013-01-07T04:14:40Z</time>
      </trkpt>
      <trkpt lat="-20.9194" lon="55.34956">
        <ele>155</ele>
        <time>2013-01-07T04:14:45Z</time>
      </trkpt>
      <trkpt lat="-20.91935" lon="55.34961">
        <ele>155</ele>
        <time>2013-01-07T04:14:50Z</time>
      </trkpt>
      <trkpt lat="-20.91929" lon="55.34966">
        <ele>154</ele>
        <time>2013-01-07T04:14:55Z</time>
      </trkpt>
      <trkpt lat="-20.91923" lon="55.3497">
        <ele>153</ele>
        <time>2013-01-07T04:15:00Z</time>
      </trkpt>
      <trkpt lat="-20.9192" lon="55.34973">
        <ele>153</ele>
        <time>2013-01-07T04:15:05Z</time>
      </trkpt>
      <trkpt lat="-20.91916" lon="55.34977">
        <ele>153</ele>
        <time>2013-01-07T04:15:10Z</time>
      </trkpt>
      <trkpt lat="-20.91911" lon="55.34981">
        <ele>153</ele>
        <time>2013-01-07T04:15:15Z</time>
      </trkpt>
      <trkpt lat="-20.91908" lon="55.34985">
        <ele>154</ele>
        <time>2013-01-07T04:15:20Z</time>
      </trkpt>
      <trkpt lat="-20.91908" lon="55.34985">
        <ele>154</ele>
        <time>2013-01-07T04:15:25Z</time>
      </trkpt>
      <trkpt lat="-20.91904" lon="55.34987">
        <ele>153</ele>
        <time>2013-01-07T04:15:30Z</time>
      </trkpt>
      <trkpt lat="-20.91902" lon="55.34989">
        <ele>153</ele>
        <time>2013-01-07T04:15:35Z</time>
      </trkpt>
      <trkpt lat="-20.919" lon="55.34991">
        <ele>154</ele>
        <time>2013-01-07T04:15:40Z</time>
      </trkpt>
      <trkpt lat="-20.91898" lon="55.34993">
        <ele>154</ele>
        <time>2013-01-07T04:15:45Z</time>
      </trkpt>
      <trkpt lat="-20.91894" lon="55.34997">
        <ele>154</ele>
        <time>2013-01-07T04:15:50Z</time>
      </trkpt>
      <trkpt lat="-20.9189" lon="55.34999">
        <ele>154</ele>
        <time>2013-01-07T04:15:55Z</time>
      </trkpt>
      <trkpt lat="-20.91887" lon="55.35003">
        <ele>154</ele>
        <time>2013-01-07T04:16:00Z</time>
      </trkpt>
      <trkpt lat="-20.91886" lon="55.35003">
        <ele>155</ele>
        <time>2013-01-07T04:16:06Z</time>
      </trkpt>
      <trkpt lat="-20.91886" lon="55.35004">
        <ele>155</ele>
        <time>2013-01-07T04:16:11Z</time>
      </trkpt>
      <trkpt lat="-20.91886" lon="55.35004">
        <ele>155</ele>
        <time>2013-01-07T04:16:16Z</time>
      </trkpt>
      <trkpt lat="-20.91886" lon="55.35004">
        <ele>155</ele>
        <time>2013-01-07T04:16:21Z</time>
      </trkpt>
      <trkpt lat="-20.91886" lon="55.35005">
        <ele>155</ele>
        <time>2013-01-07T04:16:26Z</time>
      </trkpt>
      <trkpt lat="-20.91885" lon="55.35005">
        <ele>155</ele>
        <time>2013-01-07T04:16:31Z</time>
      </trkpt>
      <trkpt lat="-20.91885" lon="55.35005">
        <ele>155</ele>
        <time>2013-01-07T04:16:36Z</time>
      </trkpt>
      <trkpt lat="-20.91885" lon="55.35006">
        <ele>155</ele>
        <time>2013-01-07T04:16:41Z</time>
      </trkpt>
      <trkpt lat="-20.91884" lon="55.35006">
        <ele>155</ele>
        <time>2013-01-07T04:16:46Z</time>
      </trkpt>
      <trkpt lat="-20.9188" lon="55.35008">
        <ele>154</ele>
        <time>2013-01-07T04:16:51Z</time>
      </trkpt>
      <trkpt lat="-20.91876" lon="55.3501">
        <ele>155</ele>
        <time>2013-01-07T04:16:56Z</time>
      </trkpt>
      <trkpt lat="-20.91871" lon="55.35012">
        <ele>155</ele>
        <time>2013-01-07T04:17:01Z</time>
      </trkpt>
      <trkpt lat="-20.91866" lon="55.35015">
        <ele>155</ele>
        <time>2013-01-07T04:17:06Z</time>
      </trkpt>
      <trkpt lat="-20.91861" lon="55.35017">
        <ele>155</ele>
        <time>2013-01-07T04:17:11Z</time>
      </trkpt>
      <trkpt lat="-20.91855" lon="55.3502">
        <ele>155</ele>
        <time>2013-01-07T04:17:16Z</time>
      </trkpt>
      <trkpt lat="-20.91849" lon="55.35023">
        <ele>155</ele>
        <time>2013-01-07T04:17:22Z</time>
      </trkpt>
      <trkpt lat="-20.91844" lon="55.35026">
        <ele>155</ele>
        <time>2013-01-07T04:17:27Z</time>
      </trkpt>
      <trkpt lat="-20.91839" lon="55.3503">
        <ele>154</ele>
        <time>2013-01-07T04:17:32Z</time>
      </trkpt>
      <trkpt lat="-20.91834" lon="55.35033">
        <ele>154</ele>
        <time>2013-01-07T04:17:37Z</time>
      </trkpt>
      <trkpt lat="-20.91828" lon="55.35036">
        <ele>153</ele>
        <time>2013-01-07T04:17:42Z</time>
      </trkpt>
      <trkpt lat="-20.91824" lon="55.35041">
        <ele>153</ele>
        <time>2013-01-07T04:17:47Z</time>
      </trkpt>
      <trkpt lat="-20.91819" lon="55.35044">
        <ele>152</ele>
        <time>2013-01-07T04:17:52Z</time>
      </trkpt>
      <trkpt lat="-20.91814" lon="55.35048">
        <ele>152</ele>
        <time>2013-01-07T04:17:57Z</time>
      </trkpt>
      <trkpt lat="-20.9181" lon="55.3505">
        <ele>152</ele>
        <time>2013-01-07T04:18:02Z</time>
      </trkpt>
      <trkpt lat="-20.91806" lon="55.35052">
        <ele>152</ele>
        <time>2013-01-07T04:18:07Z</time>
      </trkpt>
      <trkpt lat="-20.91801" lon="55.35055">
        <ele>152</ele>
        <time>2013-01-07T04:18:12Z</time>
      </trkpt>
      <trkpt lat="-20.91796" lon="55.35059">
        <ele>152</ele>
        <time>2013-01-07T04:18:17Z</time>
      </trkpt>
      <trkpt lat="-20.9179" lon="55.35062">
        <ele>151</ele>
        <time>2013-01-07T04:18:22Z</time>
      </trkpt>
      <trkpt lat="-20.91785" lon="55.35065">
        <ele>151</ele>
        <time>2013-01-07T04:18:27Z</time>
      </trkpt>
      <trkpt lat="-20.91779" lon="55.35069">
        <ele>152</ele>
        <time>2013-01-07T04:18:32Z</time>
      </trkpt>
      <trkpt lat="-20.91773" lon="55.35072">
        <ele>151</ele>
        <time>2013-01-07T04:18:37Z</time>
      </trkpt>
      <trkpt lat="-20.91768" lon="55.35076">
        <ele>151</ele>
        <time>2013-01-07T04:18:43Z</time>
      </trkpt>
      <trkpt lat="-20.91762" lon="55.3508">
        <ele>151</ele>
        <time>2013-01-07T04:18:48Z</time>
      </trkpt>
      <trkpt lat="-20.91756" lon="55.35083">
        <ele>151</ele>
        <time>2013-01-07T04:18:53Z</time>
      </trkpt>
      <trkpt lat="-20.91751" lon="55.35088">
        <ele>151</ele>
        <time>2013-01-07T04:18:58Z</time>
      </trkpt>
      <trkpt lat="-20.91745" lon="55.35092">
        <ele>152</ele>
        <time>2013-01-07T04:19:03Z</time>
      </trkpt>
      <trkpt lat="-20.91744" lon="55.35094">
        <ele>152</ele>
        <time>2013-01-07T04:19:08Z</time>
      </trkpt>
      <trkpt lat="-20.9174" lon="55.35097">
        <ele>152</ele>
        <time>2013-01-07T04:19:13Z</time>
      </trkpt>
      <trkpt lat="-20.91737" lon="55.35101">
        <ele>152</ele>
        <time>2013-01-07T04:19:18Z</time>
      </trkpt>
      <trkpt lat="-20.91732" lon="55.35104">
        <ele>152</ele>
        <time>2013-01-07T04:19:23Z</time>
      </trkpt>
      <trkpt lat="-20.91727" lon="55.35106">
        <ele>153</ele>
        <time>2013-01-07T04:19:28Z</time>
      </trkpt>
      <trkpt lat="-20.91722" lon="55.35109">
        <ele>153</ele>
        <time>2013-01-07T04:19:33Z</time>
      </trkpt>
      <trkpt lat="-20.91718" lon="55.35112">
        <ele>154</ele>
        <time>2013-01-07T04:19:38Z</time>
      </trkpt>
      <trkpt lat="-20.91714" lon="55.35114">
        <ele>154</ele>
        <time>2013-01-07T04:19:44Z</time>
      </trkpt>
      <trkpt lat="-20.9171" lon="55.35118">
        <ele>154</ele>
        <time>2013-01-07T04:19:49Z</time>
      </trkpt>
      <trkpt lat="-20.91706" lon="55.35122">
        <ele>154</ele>
        <time>2013-01-07T04:19:54Z</time>
      </trkpt>
      <trkpt lat="-20.91706" lon="55.35122">
        <ele>155</ele>
        <time>2013-01-07T04:19:59Z</time>
      </trkpt>
      <trkpt lat="-20.91703" lon="55.35123">
        <ele>154</ele>
        <time>2013-01-07T04:20:04Z</time>
      </trkpt>
      <trkpt lat="-20.91703" lon="55.35123">
        <ele>155</ele>
        <time>2013-01-07T04:20:09Z</time>
      </trkpt>
      <trkpt lat="-20.91703" lon="55.35123">
        <ele>155</ele>
        <time>2013-01-07T04:20:14Z</time>
      </trkpt>
      <trkpt lat="-20.91704" lon="55.35123">
        <ele>155</ele>
        <time>2013-01-07T04:20:19Z</time>
      </trkpt>
      <trkpt lat="-20.91704" lon="55.35123">
        <ele>154</ele>
        <time>2013-01-07T04:20:24Z</time>
      </trkpt>
      <trkpt lat="-20.91705" lon="55.35123">
        <ele>155</ele>
        <time>2013-01-07T04:20:29Z</time>
      </trkpt>
      <trkpt lat="-20.91706" lon="55.35123">
        <ele>155</ele>
        <time>2013-01-07T04:20:34Z</time>
      </trkpt>
      <trkpt lat="-20.91706" lon="55.35122">
        <ele>155</ele>
        <time>2013-01-07T04:20:40Z</time>
      </trkpt>
      <trkpt lat="-20.91706" lon="55.35122">
        <ele>155</ele>
        <time>2013-01-07T04:20:45Z</time>
      </trkpt>
      <trkpt lat="-20.91701" lon="55.35125">
        <ele>155</ele>
        <time>2013-01-07T04:20:50Z</time>
      </trkpt>
      <trkpt lat="-20.91696" lon="55.35128">
        <ele>155</ele>
        <time>2013-01-07T04:20:55Z</time>
      </trkpt>
      <trkpt lat="-20.91692" lon="55.35136">
        <ele>156</ele>
        <time>2013-01-07T04:21:00Z</time>
      </trkpt>
      <trkpt lat="-20.91689" lon="55.35142">
        <ele>156</ele>
        <time>2013-01-07T04:21:05Z</time>
      </trkpt>
      <trkpt lat="-20.91685" lon="55.35149">
        <ele>157</ele>
        <time>2013-01-07T04:21:10Z</time>
      </trkpt>
      <trkpt lat="-20.91682" lon="55.35156">
        <ele>157</ele>
        <time>2013-01-07T04:21:15Z</time>
      </trkpt>
      <trkpt lat="-20.91679" lon="55.35162">
        <ele>158</ele>
        <time>2013-01-07T04:21:20Z</time>
      </trkpt>
      <trkpt lat="-20.91676" lon="55.35169">
        <ele>158</ele>
        <time>2013-01-07T04:21:25Z</time>
      </trkpt>
      <trkpt lat="-20.91673" lon="55.35176">
        <ele>159</ele>
        <time>2013-01-07T04:21:30Z</time>
      </trkpt>
      <trkpt lat="-20.9167" lon="55.35182">
        <ele>160</ele>
        <time>2013-01-07T04:21:35Z</time>
      </trkpt>
      <trkpt lat="-20.91667" lon="55.35189">
        <ele>160</ele>
        <time>2013-01-07T04:21:41Z</time>
      </trkpt>
      <trkpt lat="-20.91664" lon="55.35196">
        <ele>160</ele>
        <time>2013-01-07T04:21:46Z</time>
      </trkpt>
      <trkpt lat="-20.91661" lon="55.35202">
        <ele>159</ele>
        <time>2013-01-07T04:21:51Z</time>
      </trkpt>
      <trkpt lat="-20.91658" lon="55.35208">
        <ele>158</ele>
        <time>2013-01-07T04:21:56Z</time>
      </trkpt>
      <trkpt lat="-20.91655" lon="55.35215">
        <ele>158</ele>
        <time>2013-01-07T04:22:01Z</time>
      </trkpt>
      <trkpt lat="-20.91651" lon="55.35223">
        <ele>157</ele>
        <time>2013-01-07T04:22:06Z</time>
      </trkpt>
      <trkpt lat="-20.91648" lon="55.35228">
        <ele>156</ele>
        <time>2013-01-07T04:22:11Z</time>
      </trkpt>
      <trkpt lat="-20.91644" lon="55.35235">
        <ele>154</ele>
        <time>2013-01-07T04:22:16Z</time>
      </trkpt>
      <trkpt lat="-20.91637" lon="55.35239">
        <ele>154</ele>
        <time>2013-01-07T04:22:21Z</time>
      </trkpt>
      <trkpt lat="-20.91631" lon="55.35244">
        <ele>153</ele>
        <time>2013-01-07T04:22:26Z</time>
      </trkpt>
      <trkpt lat="-20.91623" lon="55.35247">
        <ele>152</ele>
        <time>2013-01-07T04:22:31Z</time>
      </trkpt>
      <trkpt lat="-20.91615" lon="55.35252">
        <ele>151</ele>
        <time>2013-01-07T04:22:36Z</time>
      </trkpt>
      <trkpt lat="-20.91608" lon="55.35256">
        <ele>150</ele>
        <time>2013-01-07T04:22:42Z</time>
      </trkpt>
      <trkpt lat="-20.916" lon="55.3526">
        <ele>149</ele>
        <time>2013-01-07T04:22:47Z</time>
      </trkpt>
      <trkpt lat="-20.91591" lon="55.35264">
        <ele>149</ele>
        <time>2013-01-07T04:22:52Z</time>
      </trkpt>
      <trkpt lat="-20.91583" lon="55.35268">
        <ele>148</ele>
        <time>2013-01-07T04:22:57Z</time>
      </trkpt>
      <trkpt lat="-20.91573" lon="55.35269">
        <ele>147</ele>
        <time>2013-01-07T04:23:02Z</time>
      </trkpt>
      <trkpt lat="-20.91563" lon="55.3527">
        <ele>146</ele>
        <time>2013-01-07T04:23:07Z</time>
      </trkpt>
      <trkpt lat="-20.91554" lon="55.35272">
        <ele>145</ele>
        <time>2013-01-07T04:23:12Z</time>
      </trkpt>
      <trkpt lat="-20.91545" lon="55.35273">
        <ele>144</ele>
        <time>2013-01-07T04:23:17Z</time>
      </trkpt>
      <trkpt lat="-20.91538" lon="55.35276">
        <ele>144</ele>
        <time>2013-01-07T04:23:22Z</time>
      </trkpt>
      <trkpt lat="-20.9153" lon="55.35277">
        <ele>142</ele>
        <time>2013-01-07T04:23:27Z</time>
      </trkpt>
      <trkpt lat="-20.91521" lon="55.35278">
        <ele>142</ele>
        <time>2013-01-07T04:23:33Z</time>
      </trkpt>
      <trkpt lat="-20.91512" lon="55.35279">
        <ele>142</ele>
        <time>2013-01-07T04:23:38Z</time>
      </trkpt>
      <trkpt lat="-20.91504" lon="55.35279">
        <ele>141</ele>
        <time>2013-01-07T04:23:43Z</time>
      </trkpt>
      <trkpt lat="-20.91495" lon="55.3528">
        <ele>140</ele>
        <time>2013-01-07T04:23:48Z</time>
      </trkpt>
      <trkpt lat="-20.91486" lon="55.35282">
        <ele>140</ele>
        <time>2013-01-07T04:23:53Z</time>
      </trkpt>
      <trkpt lat="-20.91476" lon="55.35284">
        <ele>139</ele>
        <time>2013-01-07T04:23:58Z</time>
      </trkpt>
      <trkpt lat="-20.91468" lon="55.35285">
        <ele>139</ele>
        <time>2013-01-07T04:24:03Z</time>
      </trkpt>
      <trkpt lat="-20.91459" lon="55.35285">
        <ele>139</ele>
        <time>2013-01-07T04:24:08Z</time>
      </trkpt>
      <trkpt lat="-20.91449" lon="55.35286">
        <ele>139</ele>
        <time>2013-01-07T04:24:13Z</time>
      </trkpt>
      <trkpt lat="-20.9144" lon="55.35287">
        <ele>139</ele>
        <time>2013-01-07T04:24:18Z</time>
      </trkpt>
      <trkpt lat="-20.9143" lon="55.35287">
        <ele>140</ele>
        <time>2013-01-07T04:24:23Z</time>
      </trkpt>
      <trkpt lat="-20.91421" lon="55.35289">
        <ele>140</ele>
        <time>2013-01-07T04:24:28Z</time>
      </trkpt>
      <trkpt lat="-20.91412" lon="55.35292">
        <ele>141</ele>
        <time>2013-01-07T04:24:33Z</time>
      </trkpt>
      <trkpt lat="-20.91403" lon="55.35295">
        <ele>141</ele>
        <time>2013-01-07T04:24:38Z</time>
      </trkpt>
      <trkpt lat="-20.91395" lon="55.35299">
        <ele>140</ele>
        <time>2013-01-07T04:24:43Z</time>
      </trkpt>
      <trkpt lat="-20.91392" lon="55.35306">
        <ele>140</ele>
        <time>2013-01-07T04:24:48Z</time>
      </trkpt>
      <trkpt lat="-20.91392" lon="55.35313">
        <ele>138</ele>
        <time>2013-01-07T04:24:54Z</time>
      </trkpt>
      <trkpt lat="-20.91388" lon="55.35316">
        <ele>137</ele>
        <time>2013-01-07T04:24:59Z</time>
      </trkpt>
      <trkpt lat="-20.9138" lon="55.35314">
        <ele>136</ele>
        <time>2013-01-07T04:25:04Z</time>
      </trkpt>
      <trkpt lat="-20.91371" lon="55.35311">
        <ele>135</ele>
        <time>2013-01-07T04:25:09Z</time>
      </trkpt>
      <trkpt lat="-20.91363" lon="55.35308">
        <ele>133</ele>
        <time>2013-01-07T04:25:14Z</time>
      </trkpt>
      <trkpt lat="-20.91355" lon="55.35306">
        <ele>132</ele>
        <time>2013-01-07T04:25:19Z</time>
      </trkpt>
      <trkpt lat="-20.91348" lon="55.35307">
        <ele>130</ele>
        <time>2013-01-07T04:25:24Z</time>
      </trkpt>
      <trkpt lat="-20.91348" lon="55.35315">
        <ele>129</ele>
        <time>2013-01-07T04:25:29Z</time>
      </trkpt>
      <trkpt lat="-20.91347" lon="55.35323">
        <ele>128</ele>
        <time>2013-01-07T04:25:34Z</time>
      </trkpt>
      <trkpt lat="-20.91347" lon="55.35331">
        <ele>127</ele>
        <time>2013-01-07T04:25:39Z</time>
      </trkpt>
      <trkpt lat="-20.91348" lon="55.3534">
        <ele>125</ele>
        <time>2013-01-07T04:25:44Z</time>
      </trkpt>
      <trkpt lat="-20.91348" lon="55.35348">
        <ele>124</ele>
        <time>2013-01-07T04:25:49Z</time>
      </trkpt>
      <trkpt lat="-20.91348" lon="55.35356">
        <ele>123</ele>
        <time>2013-01-07T04:25:55Z</time>
      </trkpt>
      <trkpt lat="-20.91349" lon="55.35366">
        <ele>121</ele>
        <time>2013-01-07T04:26:00Z</time>
      </trkpt>
      <trkpt lat="-20.91349" lon="55.35375">
        <ele>120</ele>
        <time>2013-01-07T04:26:05Z</time>
      </trkpt>
      <trkpt lat="-20.91349" lon="55.35384">
        <ele>118</ele>
        <time>2013-01-07T04:26:10Z</time>
      </trkpt>
      <trkpt lat="-20.9135" lon="55.35393">
        <ele>117</ele>
        <time>2013-01-07T04:26:15Z</time>
      </trkpt>
      <trkpt lat="-20.91351" lon="55.35402">
        <ele>116</ele>
        <time>2013-01-07T04:26:20Z</time>
      </trkpt>
      <trkpt lat="-20.91352" lon="55.35413">
        <ele>115</ele>
        <time>2013-01-07T04:26:25Z</time>
      </trkpt>
      <trkpt lat="-20.91353" lon="55.35422">
        <ele>113</ele>
        <time>2013-01-07T04:26:30Z</time>
      </trkpt>
      <trkpt lat="-20.91355" lon="55.3543">
        <ele>112</ele>
        <time>2013-01-07T04:26:35Z</time>
      </trkpt>
      <trkpt lat="-20.91356" lon="55.35438">
        <ele>110</ele>
        <time>2013-01-07T04:26:40Z</time>
      </trkpt>
      <trkpt lat="-20.91358" lon="55.35447">
        <ele>109</ele>
        <time>2013-01-07T04:26:45Z</time>
      </trkpt>
      <trkpt lat="-20.91359" lon="55.35455">
        <ele>107</ele>
        <time>2013-01-07T04:26:50Z</time>
      </trkpt>
      <trkpt lat="-20.9136" lon="55.35463">
        <ele>105</ele>
        <time>2013-01-07T04:26:55Z</time>
      </trkpt>
      <trkpt lat="-20.91361" lon="55.35471">
        <ele>104</ele>
        <time>2013-01-07T04:27:00Z</time>
      </trkpt>
      <trkpt lat="-20.91361" lon="55.35478">
        <ele>104</ele>
        <time>2013-01-07T04:27:05Z</time>
      </trkpt>
      <trkpt lat="-20.91362" lon="55.35484">
        <ele>103</ele>
        <time>2013-01-07T04:27:10Z</time>
      </trkpt>
      <trkpt lat="-20.91361" lon="55.35488">
        <ele>101</ele>
        <time>2013-01-07T04:27:15Z</time>
      </trkpt>
      <trkpt lat="-20.91361" lon="55.3549">
        <ele>100</ele>
        <time>2013-01-07T04:27:21Z</time>
      </trkpt>
      <trkpt lat="-20.91361" lon="55.35493">
        <ele>100</ele>
        <time>2013-01-07T04:27:26Z</time>
      </trkpt>
      <trkpt lat="-20.91358" lon="55.35494">
        <ele>101</ele>
        <time>2013-01-07T04:27:31Z</time>
      </trkpt>
      <trkpt lat="-20.91358" lon="55.35496">
        <ele>101</ele>
        <time>2013-01-07T04:27:36Z</time>
      </trkpt>
      <trkpt lat="-20.91356" lon="55.35497">
        <ele>102</ele>
        <time>2013-01-07T04:27:41Z</time>
      </trkpt>
      <trkpt lat="-20.91352" lon="55.35497">
        <ele>102</ele>
        <time>2013-01-07T04:27:46Z</time>
      </trkpt>
      <trkpt lat="-20.91349" lon="55.35497">
        <ele>103</ele>
        <time>2013-01-07T04:27:51Z</time>
      </trkpt>
      <trkpt lat="-20.91344" lon="55.35498">
        <ele>105</ele>
        <time>2013-01-07T04:27:56Z</time>
      </trkpt>
      <trkpt lat="-20.9134" lon="55.35497">
        <ele>105</ele>
        <time>2013-01-07T04:28:01Z</time>
      </trkpt>
      <trkpt lat="-20.91336" lon="55.35496">
        <ele>106</ele>
        <time>2013-01-07T04:28:06Z</time>
      </trkpt>
      <trkpt lat="-20.91331" lon="55.35497">
        <ele>107</ele>
        <time>2013-01-07T04:28:11Z</time>
      </trkpt>
      <trkpt lat="-20.91327" lon="55.35497">
        <ele>108</ele>
        <time>2013-01-07T04:28:16Z</time>
      </trkpt>
      <trkpt lat="-20.91322" lon="55.35497">
        <ele>109</ele>
        <time>2013-01-07T04:28:21Z</time>
      </trkpt>
      <trkpt lat="-20.91319" lon="55.35499">
        <ele>110</ele>
        <time>2013-01-07T04:28:26Z</time>
      </trkpt>
      <trkpt lat="-20.91314" lon="55.35501">
        <ele>111</ele>
        <time>2013-01-07T04:28:32Z</time>
      </trkpt>
      <trkpt lat="-20.91311" lon="55.35504">
        <ele>112</ele>
        <time>2013-01-07T04:28:37Z</time>
      </trkpt>
      <trkpt lat="-20.91307" lon="55.35506">
        <ele>114</ele>
        <time>2013-01-07T04:28:42Z</time>
      </trkpt>
      <trkpt lat="-20.91303" lon="55.35509">
        <ele>114</ele>
        <time>2013-01-07T04:28:47Z</time>
      </trkpt>
      <trkpt lat="-20.91298" lon="55.35509">
        <ele>116</ele>
        <time>2013-01-07T04:28:52Z</time>
      </trkpt>
      <trkpt lat="-20.91293" lon="55.35508">
        <ele>116</ele>
        <time>2013-01-07T04:28:57Z</time>
      </trkpt>
      <trkpt lat="-20.91288" lon="55.35506">
        <ele>117</ele>
        <time>2013-01-07T04:29:02Z</time>
      </trkpt>
      <trkpt lat="-20.91283" lon="55.35503">
        <ele>118</ele>
        <time>2013-01-07T04:29:07Z</time>
      </trkpt>
      <trkpt lat="-20.91277" lon="55.35501">
        <ele>118</ele>
        <time>2013-01-07T04:29:12Z</time>
      </trkpt>
      <trkpt lat="-20.91271" lon="55.35498">
        <ele>118</ele>
        <time>2013-01-07T04:29:17Z</time>
      </trkpt>
      <trkpt lat="-20.91268" lon="55.35499">
        <ele>118</ele>
        <time>2013-01-07T04:29:22Z</time>
      </trkpt>
      <trkpt lat="-20.91268" lon="55.35499">
        <ele>118</ele>
        <time>2013-01-07T04:29:27Z</time>
      </trkpt>
      <trkpt lat="-20.91268" lon="55.35499">
        <ele>118</ele>
        <time>2013-01-07T04:29:33Z</time>
      </trkpt>
      <trkpt lat="-20.91266" lon="55.35499">
        <ele>119</ele>
        <time>2013-01-07T04:29:38Z</time>
      </trkpt>
      <trkpt lat="-20.91262" lon="55.355">
        <ele>119</ele>
        <time>2013-01-07T04:29:43Z</time>
      </trkpt>
      <trkpt lat="-20.91258" lon="55.35502">
        <ele>120</ele>
        <time>2013-01-07T04:29:48Z</time>
      </trkpt>
      <trkpt lat="-20.91257" lon="55.35506">
        <ele>122</ele>
        <time>2013-01-07T04:29:53Z</time>
      </trkpt>
      <trkpt lat="-20.91256" lon="55.3551">
        <ele>122</ele>
        <time>2013-01-07T04:29:58Z</time>
      </trkpt>
      <trkpt lat="-20.91253" lon="55.35513">
        <ele>124</ele>
        <time>2013-01-07T04:30:03Z</time>
      </trkpt>
      <trkpt lat="-20.91248" lon="55.35515">
        <ele>125</ele>
        <time>2013-01-07T04:30:08Z</time>
      </trkpt>
      <trkpt lat="-20.91243" lon="55.35517">
        <ele>126</ele>
        <time>2013-01-07T04:30:13Z</time>
      </trkpt>
      <trkpt lat="-20.91241" lon="55.3552">
        <ele>127</ele>
        <time>2013-01-07T04:30:18Z</time>
      </trkpt>
      <trkpt lat="-20.91241" lon="55.35524">
        <ele>128</ele>
        <time>2013-01-07T04:30:23Z</time>
      </trkpt>
      <trkpt lat="-20.91244" lon="55.35527">
        <ele>129</ele>
        <time>2013-01-07T04:30:29Z</time>
      </trkpt>
      <trkpt lat="-20.91247" lon="55.35532">
        <ele>130</ele>
        <time>2013-01-07T04:30:34Z</time>
      </trkpt>
      <trkpt lat="-20.91249" lon="55.35535">
        <ele>131</ele>
        <time>2013-01-07T04:30:39Z</time>
      </trkpt>
      <trkpt lat="-20.91253" lon="55.35539">
        <ele>133</ele>
        <time>2013-01-07T04:30:44Z</time>
      </trkpt>
      <trkpt lat="-20.91257" lon="55.35543">
        <ele>133</ele>
        <time>2013-01-07T04:30:49Z</time>
      </trkpt>
      <trkpt lat="-20.9126" lon="55.35547">
        <ele>134</ele>
        <time>2013-01-07T04:30:54Z</time>
      </trkpt>
      <trkpt lat="-20.91264" lon="55.3555">
        <ele>135</ele>
        <time>2013-01-07T04:30:59Z</time>
      </trkpt>
      <trkpt lat="-20.91264" lon="55.35553">
        <ele>137</ele>
        <time>2013-01-07T04:31:04Z</time>
      </trkpt>
      <trkpt lat="-20.91261" lon="55.35553">
        <ele>138</ele>
        <time>2013-01-07T04:31:09Z</time>
      </trkpt>
      <trkpt lat="-20.91258" lon="55.35554">
        <ele>139</ele>
        <time>2013-01-07T04:31:14Z</time>
      </trkpt>
      <trkpt lat="-20.91256" lon="55.35556">
        <ele>140</ele>
        <time>2013-01-07T04:31:19Z</time>
      </trkpt>
      <trkpt lat="-20.91253" lon="55.35558">
        <ele>141</ele>
        <time>2013-01-07T04:31:25Z</time>
      </trkpt>
      <trkpt lat="-20.91249" lon="55.35559">
        <ele>142</ele>
        <time>2013-01-07T04:31:30Z</time>
      </trkpt>
      <trkpt lat="-20.91247" lon="55.35561">
        <ele>143</ele>
        <time>2013-01-07T04:31:35Z</time>
      </trkpt>
      <trkpt lat="-20.91249" lon="55.35564">
        <ele>144</ele>
        <time>2013-01-07T04:31:40Z</time>
      </trkpt>
      <trkpt lat="-20.9125" lon="55.35567">
        <ele>145</ele>
        <time>2013-01-07T04:31:45Z</time>
      </trkpt>
      <trkpt lat="-20.91252" lon="55.35571">
        <ele>146</ele>
        <time>2013-01-07T04:31:50Z</time>
      </trkpt>
      <trkpt lat="-20.91254" lon="55.35574">
        <ele>147</ele>
        <time>2013-01-07T04:31:55Z</time>
      </trkpt>
      <trkpt lat="-20.91254" lon="55.35577">
        <ele>148</ele>
        <time>2013-01-07T04:32:00Z</time>
      </trkpt>
      <trkpt lat="-20.91251" lon="55.3558">
        <ele>149</ele>
        <time>2013-01-07T04:32:05Z</time>
      </trkpt>
      <trkpt lat="-20.91248" lon="55.35582">
        <ele>150</ele>
        <time>2013-01-07T04:32:10Z</time>
      </trkpt>
      <trkpt lat="-20.91245" lon="55.35585">
        <ele>151</ele>
        <time>2013-01-07T04:32:16Z</time>
      </trkpt>
      <trkpt lat="-20.91247" lon="55.35589">
        <ele>152</ele>
        <time>2013-01-07T04:32:21Z</time>
      </trkpt>
      <trkpt lat="-20.91249" lon="55.35593">
        <ele>153</ele>
        <time>2013-01-07T04:32:26Z</time>
      </trkpt>
      <trkpt lat="-20.91247" lon="55.35598">
        <ele>154</ele>
        <time>2013-01-07T04:32:31Z</time>
      </trkpt>
      <trkpt lat="-20.91244" lon="55.35602">
        <ele>155</ele>
        <time>2013-01-07T04:32:36Z</time>
      </trkpt>
      <trkpt lat="-20.9124" lon="55.35607">
        <ele>155</ele>
        <time>2013-01-07T04:32:41Z</time>
      </trkpt>
      <trkpt lat="-20.91236" lon="55.35612">
        <ele>156</ele>
        <time>2013-01-07T04:32:46Z</time>
      </trkpt>
      <trkpt lat="-20.91232" lon="55.35617">
        <ele>156</ele>
        <time>2013-01-07T04:32:51Z</time>
      </trkpt>
      <trkpt lat="-20.91228" lon="55.35622">
        <ele>156</ele>
        <time>2013-01-07T04:32:56Z</time>
      </trkpt>
      <trkpt lat="-20.91224" lon="55.35627">
        <ele>156</ele>
        <time>2013-01-07T04:33:01Z</time>
      </trkpt>
      <trkpt lat="-20.9122" lon="55.35632">
        <ele>156</ele>
        <time>2013-01-07T04:33:06Z</time>
      </trkpt>
      <trkpt lat="-20.91216" lon="55.35638">
        <ele>157</ele>
        <time>2013-01-07T04:33:11Z</time>
      </trkpt>
      <trkpt lat="-20.91213" lon="55.35643">
        <ele>157</ele>
        <time>2013-01-07T04:33:16Z</time>
      </trkpt>
      <trkpt lat="-20.91209" lon="55.35649">
        <ele>157</ele>
        <time>2013-01-07T04:33:21Z</time>
      </trkpt>
      <trkpt lat="-20.91206" lon="55.35654">
        <ele>157</ele>
        <time>2013-01-07T04:33:26Z</time>
      </trkpt>
      <trkpt lat="-20.91202" lon="55.35659">
        <ele>158</ele>
        <time>2013-01-07T04:33:32Z</time>
      </trkpt>
      <trkpt lat="-20.91198" lon="55.35664">
        <ele>158</ele>
        <time>2013-01-07T04:33:37Z</time>
      </trkpt>
      <trkpt lat="-20.91194" lon="55.3567">
        <ele>158</ele>
        <time>2013-01-07T04:33:42Z</time>
      </trkpt>
      <trkpt lat="-20.9119" lon="55.35676">
        <ele>158</ele>
        <time>2013-01-07T04:33:47Z</time>
      </trkpt>
      <trkpt lat="-20.91186" lon="55.35681">
        <ele>158</ele>
        <time>2013-01-07T04:33:52Z</time>
      </trkpt>
      <trkpt lat="-20.91181" lon="55.35688">
        <ele>158</ele>
        <time>2013-01-07T04:33:57Z</time>
      </trkpt>
      <trkpt lat="-20.91178" lon="55.35693">
        <ele>159</ele>
        <time>2013-01-07T04:34:02Z</time>
      </trkpt>
      <trkpt lat="-20.91173" lon="55.35698">
        <ele>159</ele>
        <time>2013-01-07T04:34:07Z</time>
      </trkpt>
      <trkpt lat="-20.91169" lon="55.35704">
        <ele>159</ele>
        <time>2013-01-07T04:34:12Z</time>
      </trkpt>
      <trkpt lat="-20.91165" lon="55.35711">
        <ele>159</ele>
        <time>2013-01-07T04:34:17Z</time>
      </trkpt>
      <trkpt lat="-20.91163" lon="55.35718">
        <ele>159</ele>
        <time>2013-01-07T04:34:22Z</time>
      </trkpt>
      <trkpt lat="-20.91161" lon="55.35725">
        <ele>159</ele>
        <time>2013-01-07T04:34:27Z</time>
      </trkpt>
      <trkpt lat="-20.9116" lon="55.35732">
        <ele>160</ele>
        <time>2013-01-07T04:34:32Z</time>
      </trkpt>
      <trkpt lat="-20.91158" lon="55.35738">
        <ele>160</ele>
        <time>2013-01-07T04:34:37Z</time>
      </trkpt>
      <trkpt lat="-20.91157" lon="55.35744">
        <ele>161</ele>
        <time>2013-01-07T04:34:42Z</time>
      </trkpt>
      <trkpt lat="-20.91155" lon="55.35751">
        <ele>162</ele>
        <time>2013-01-07T04:34:47Z</time>
      </trkpt>
      <trkpt lat="-20.91154" lon="55.35757">
        <ele>163</ele>
        <time>2013-01-07T04:34:52Z</time>
      </trkpt>
      <trkpt lat="-20.91152" lon="55.35765">
        <ele>163</ele>
        <time>2013-01-07T04:34:58Z</time>
      </trkpt>
      <trkpt lat="-20.9115" lon="55.35772">
        <ele>164</ele>
        <time>2013-01-07T04:35:03Z</time>
      </trkpt>
      <trkpt lat="-20.91148" lon="55.3578">
        <ele>164</ele>
        <time>2013-01-07T04:35:08Z</time>
      </trkpt>
      <trkpt lat="-20.91146" lon="55.35787">
        <ele>165</ele>
        <time>2013-01-07T04:35:13Z</time>
      </trkpt>
      <trkpt lat="-20.91145" lon="55.35794">
        <ele>165</ele>
        <time>2013-01-07T04:35:18Z</time>
      </trkpt>
      <trkpt lat="-20.91142" lon="55.35802">
        <ele>166</ele>
        <time>2013-01-07T04:35:23Z</time>
      </trkpt>
      <trkpt lat="-20.91141" lon="55.3581">
        <ele>166</ele>
        <time>2013-01-07T04:35:28Z</time>
      </trkpt>
      <trkpt lat="-20.91138" lon="55.35817">
        <ele>167</ele>
        <time>2013-01-07T04:35:33Z</time>
      </trkpt>
      <trkpt lat="-20.91137" lon="55.35824">
        <ele>167</ele>
        <time>2013-01-07T04:35:38Z</time>
      </trkpt>
      <trkpt lat="-20.91136" lon="55.3583">
        <ele>168</ele>
        <time>2013-01-07T04:35:43Z</time>
      </trkpt>
      <trkpt lat="-20.91134" lon="55.35838">
        <ele>169</ele>
        <time>2013-01-07T04:35:48Z</time>
      </trkpt>
      <trkpt lat="-20.91132" lon="55.35845">
        <ele>169</ele>
        <time>2013-01-07T04:35:53Z</time>
      </trkpt>
      <trkpt lat="-20.91131" lon="55.35852">
        <ele>171</ele>
        <time>2013-01-07T04:35:58Z</time>
      </trkpt>
      <trkpt lat="-20.9113" lon="55.3586">
        <ele>171</ele>
        <time>2013-01-07T04:36:03Z</time>
      </trkpt>
      <trkpt lat="-20.91128" lon="55.35867">
        <ele>171</ele>
        <time>2013-01-07T04:36:08Z</time>
      </trkpt>
      <trkpt lat="-20.91125" lon="55.35873">
        <ele>172</ele>
        <time>2013-01-07T04:36:13Z</time>
      </trkpt>
      <trkpt lat="-20.91121" lon="55.3588">
        <ele>172</ele>
        <time>2013-01-07T04:36:19Z</time>
      </trkpt>
      <trkpt lat="-20.91117" lon="55.35884">
        <ele>173</ele>
        <time>2013-01-07T04:36:24Z</time>
      </trkpt>
      <trkpt lat="-20.91112" lon="55.35889">
        <ele>174</ele>
        <time>2013-01-07T04:36:29Z</time>
      </trkpt>
      <trkpt lat="-20.91107" lon="55.35894">
        <ele>174</ele>
        <time>2013-01-07T04:36:34Z</time>
      </trkpt>
      <trkpt lat="-20.91102" lon="55.35899">
        <ele>175</ele>
        <time>2013-01-07T04:36:39Z</time>
      </trkpt>
      <trkpt lat="-20.91096" lon="55.35902">
        <ele>176</ele>
        <time>2013-01-07T04:36:44Z</time>
      </trkpt>
      <trkpt lat="-20.91092" lon="55.35905">
        <ele>176</ele>
        <time>2013-01-07T04:36:49Z</time>
      </trkpt>
      <trkpt lat="-20.91087" lon="55.35909">
        <ele>176</ele>
        <time>2013-01-07T04:36:54Z</time>
      </trkpt>
      <trkpt lat="-20.91082" lon="55.35914">
        <ele>177</ele>
        <time>2013-01-07T04:36:59Z</time>
      </trkpt>
      <trkpt lat="-20.91076" lon="55.3592">
        <ele>178</ele>
        <time>2013-01-07T04:37:04Z</time>
      </trkpt>
      <trkpt lat="-20.91075" lon="55.35926">
        <ele>179</ele>
        <time>2013-01-07T04:37:09Z</time>
      </trkpt>
      <trkpt lat="-20.91077" lon="55.35931">
        <ele>180</ele>
        <time>2013-01-07T04:37:14Z</time>
      </trkpt>
      <trkpt lat="-20.91081" lon="55.35934">
        <ele>181</ele>
        <time>2013-01-07T04:37:20Z</time>
      </trkpt>
      <trkpt lat="-20.91083" lon="55.35939">
        <ele>182</ele>
        <time>2013-01-07T04:37:25Z</time>
      </trkpt>
      <trkpt lat="-20.91086" lon="55.35944">
        <ele>183</ele>
        <time>2013-01-07T04:37:30Z</time>
      </trkpt>
      <trkpt lat="-20.91089" lon="55.35951">
        <ele>185</ele>
        <time>2013-01-07T04:37:35Z</time>
      </trkpt>
      <trkpt lat="-20.91092" lon="55.35957">
        <ele>186</ele>
        <time>2013-01-07T04:37:40Z</time>
      </trkpt>
      <trkpt lat="-20.91096" lon="55.35961">
        <ele>187</ele>
        <time>2013-01-07T04:37:45Z</time>
      </trkpt>
      <trkpt lat="-20.911" lon="55.35966">
        <ele>189</ele>
        <time>2013-01-07T04:37:50Z</time>
      </trkpt>
      <trkpt lat="-20.91103" lon="55.3597">
        <ele>189</ele>
        <time>2013-01-07T04:37:55Z</time>
      </trkpt>
      <trkpt lat="-20.91105" lon="55.35973">
        <ele>190</ele>
        <time>2013-01-07T04:38:00Z</time>
      </trkpt>
      <trkpt lat="-20.91109" lon="55.35977">
        <ele>191</ele>
        <time>2013-01-07T04:38:05Z</time>
      </trkpt>
      <trkpt lat="-20.91112" lon="55.35981">
        <ele>193</ele>
        <time>2013-01-07T04:38:10Z</time>
      </trkpt>
      <trkpt lat="-20.91115" lon="55.35985">
        <ele>194</ele>
        <time>2013-01-07T04:38:15Z</time>
      </trkpt>
      <trkpt lat="-20.91116" lon="55.35989">
        <ele>195</ele>
        <time>2013-01-07T04:38:20Z</time>
      </trkpt>
      <trkpt lat="-20.91116" lon="55.35993">
        <ele>196</ele>
        <time>2013-01-07T04:38:25Z</time>
      </trkpt>
      <trkpt lat="-20.91115" lon="55.35997">
        <ele>198</ele>
        <time>2013-01-07T04:38:30Z</time>
      </trkpt>
      <trkpt lat="-20.91114" lon="55.36001">
        <ele>200</ele>
        <time>2013-01-07T04:38:35Z</time>
      </trkpt>
      <trkpt lat="-20.91113" lon="55.36005">
        <ele>201</ele>
        <time>2013-01-07T04:38:40Z</time>
      </trkpt>
      <trkpt lat="-20.91114" lon="55.36009">
        <ele>202</ele>
        <time>2013-01-07T04:38:45Z</time>
      </trkpt>
      <trkpt lat="-20.91116" lon="55.36012">
        <ele>203</ele>
        <time>2013-01-07T04:38:50Z</time>
      </trkpt>
      <trkpt lat="-20.91119" lon="55.36014">
        <ele>204</ele>
        <time>2013-01-07T04:38:55Z</time>
      </trkpt>
      <trkpt lat="-20.91122" lon="55.36016">
        <ele>206</ele>
        <time>2013-01-07T04:39:01Z</time>
      </trkpt>
      <trkpt lat="-20.91124" lon="55.36019">
        <ele>206</ele>
        <time>2013-01-07T04:39:06Z</time>
      </trkpt>
      <trkpt lat="-20.91125" lon="55.36023">
        <ele>207</ele>
        <time>2013-01-07T04:39:11Z</time>
      </trkpt>
      <trkpt lat="-20.91125" lon="55.36028">
        <ele>209</ele>
        <time>2013-01-07T04:39:16Z</time>
      </trkpt>
      <trkpt lat="-20.91125" lon="55.36032">
        <ele>209</ele>
        <time>2013-01-07T04:39:21Z</time>
      </trkpt>
      <trkpt lat="-20.91126" lon="55.36036">
        <ele>210</ele>
        <time>2013-01-07T04:39:26Z</time>
      </trkpt>
      <trkpt lat="-20.91129" lon="55.36039">
        <ele>212</ele>
        <time>2013-01-07T04:39:31Z</time>
      </trkpt>
      <trkpt lat="-20.91131" lon="55.36043">
        <ele>213</ele>
        <time>2013-01-07T04:39:36Z</time>
      </trkpt>
      <trkpt lat="-20.91134" lon="55.36047">
        <ele>214</ele>
        <time>2013-01-07T04:39:41Z</time>
      </trkpt>
      <trkpt lat="-20.91137" lon="55.3605">
        <ele>215</ele>
        <time>2013-01-07T04:39:46Z</time>
      </trkpt>
      <trkpt lat="-20.91138" lon="55.36055">
        <ele>217</ele>
        <time>2013-01-07T04:39:51Z</time>
      </trkpt>
      <trkpt lat="-20.91138" lon="55.36059">
        <ele>218</ele>
        <time>2013-01-07T04:39:56Z</time>
      </trkpt>
      <trkpt lat="-20.91135" lon="55.36064">
        <ele>218</ele>
        <time>2013-01-07T04:40:01Z</time>
      </trkpt>
      <trkpt lat="-20.91133" lon="55.36069">
        <ele>219</ele>
        <time>2013-01-07T04:40:06Z</time>
      </trkpt>
      <trkpt lat="-20.91131" lon="55.36074">
        <ele>220</ele>
        <time>2013-01-07T04:40:11Z</time>
      </trkpt>
      <trkpt lat="-20.91128" lon="55.36079">
        <ele>221</ele>
        <time>2013-01-07T04:40:17Z</time>
      </trkpt>
      <trkpt lat="-20.91124" lon="55.36084">
        <ele>221</ele>
        <time>2013-01-07T04:40:22Z</time>
      </trkpt>
      <trkpt lat="-20.91121" lon="55.3609">
        <ele>221</ele>
        <time>2013-01-07T04:40:27Z</time>
      </trkpt>
      <trkpt lat="-20.91119" lon="55.36098">
        <ele>222</ele>
        <time>2013-01-07T04:40:32Z</time>
      </trkpt>
      <trkpt lat="-20.91118" lon="55.36105">
        <ele>222</ele>
        <time>2013-01-07T04:40:37Z</time>
      </trkpt>
      <trkpt lat="-20.91116" lon="55.36112">
        <ele>222</ele>
        <time>2013-01-07T04:40:42Z</time>
      </trkpt>
      <trkpt lat="-20.91117" lon="55.36119">
        <ele>222</ele>
        <time>2013-01-07T04:40:47Z</time>
      </trkpt>
      <trkpt lat="-20.91116" lon="55.36126">
        <ele>223</ele>
        <time>2013-01-07T04:40:52Z</time>
      </trkpt>
      <trkpt lat="-20.91116" lon="55.36132">
        <ele>224</ele>
        <time>2013-01-07T04:40:57Z</time>
      </trkpt>
      <trkpt lat="-20.91115" lon="55.3614">
        <ele>225</ele>
        <time>2013-01-07T04:41:02Z</time>
      </trkpt>
      <trkpt lat="-20.91115" lon="55.36146">
        <ele>226</ele>
        <time>2013-01-07T04:41:07Z</time>
      </trkpt>
      <trkpt lat="-20.91114" lon="55.36152">
        <ele>226</ele>
        <time>2013-01-07T04:41:12Z</time>
      </trkpt>
      <trkpt lat="-20.91113" lon="55.36158">
        <ele>227</ele>
        <time>2013-01-07T04:41:17Z</time>
      </trkpt>
      <trkpt lat="-20.91112" lon="55.36163">
        <ele>227</ele>
        <time>2013-01-07T04:41:22Z</time>
      </trkpt>
      <trkpt lat="-20.9111" lon="55.3617">
        <ele>229</ele>
        <time>2013-01-07T04:41:28Z</time>
      </trkpt>
      <trkpt lat="-20.91108" lon="55.36176">
        <ele>230</ele>
        <time>2013-01-07T04:41:33Z</time>
      </trkpt>
      <trkpt lat="-20.91106" lon="55.36184">
        <ele>230</ele>
        <time>2013-01-07T04:41:38Z</time>
      </trkpt>
      <trkpt lat="-20.91106" lon="55.3619">
        <ele>231</ele>
        <time>2013-01-07T04:41:43Z</time>
      </trkpt>
      <trkpt lat="-20.91104" lon="55.36197">
        <ele>232</ele>
        <time>2013-01-07T04:41:48Z</time>
      </trkpt>
      <trkpt lat="-20.91101" lon="55.36203">
        <ele>232</ele>
        <time>2013-01-07T04:41:53Z</time>
      </trkpt>
      <trkpt lat="-20.91099" lon="55.36209">
        <ele>232</ele>
        <time>2013-01-07T04:41:58Z</time>
      </trkpt>
      <trkpt lat="-20.91096" lon="55.36215">
        <ele>233</ele>
        <time>2013-01-07T04:42:03Z</time>
      </trkpt>
      <trkpt lat="-20.91095" lon="55.36221">
        <ele>234</ele>
        <time>2013-01-07T04:42:08Z</time>
      </trkpt>
      <trkpt lat="-20.91094" lon="55.36227">
        <ele>234</ele>
        <time>2013-01-07T04:42:13Z</time>
      </trkpt>
      <trkpt lat="-20.91091" lon="55.36234">
        <ele>235</ele>
        <time>2013-01-07T04:42:18Z</time>
      </trkpt>
      <trkpt lat="-20.91088" lon="55.36241">
        <ele>235</ele>
        <time>2013-01-07T04:42:23Z</time>
      </trkpt>
      <trkpt lat="-20.91086" lon="55.36248">
        <ele>236</ele>
        <time>2013-01-07T04:42:28Z</time>
      </trkpt>
      <trkpt lat="-20.91084" lon="55.36256">
        <ele>237</ele>
        <time>2013-01-07T04:42:34Z</time>
      </trkpt>
      <trkpt lat="-20.91082" lon="55.36263">
        <ele>238</ele>
        <time>2013-01-07T04:42:39Z</time>
      </trkpt>
      <trkpt lat="-20.9108" lon="55.36269">
        <ele>238</ele>
        <time>2013-01-07T04:42:44Z</time>
      </trkpt>
      <trkpt lat="-20.91078" lon="55.36276">
        <ele>239</ele>
        <time>2013-01-07T04:42:49Z</time>
      </trkpt>
      <trkpt lat="-20.91076" lon="55.36283">
        <ele>239</ele>
        <time>2013-01-07T04:42:54Z</time>
      </trkpt>
      <trkpt lat="-20.91074" lon="55.36287">
        <ele>240</ele>
        <time>2013-01-07T04:42:59Z</time>
      </trkpt>
      <trkpt lat="-20.91072" lon="55.36296">
        <ele>241</ele>
        <time>2013-01-07T04:43:04Z</time>
      </trkpt>
      <trkpt lat="-20.91069" lon="55.36299">
        <ele>241</ele>
        <time>2013-01-07T04:43:09Z</time>
      </trkpt>
      <trkpt lat="-20.91065" lon="55.36303">
        <ele>241</ele>
        <time>2013-01-07T04:43:14Z</time>
      </trkpt>
      <trkpt lat="-20.9106" lon="55.36308">
        <ele>241</ele>
        <time>2013-01-07T04:43:19Z</time>
      </trkpt>
      <trkpt lat="-20.91056" lon="55.36312">
        <ele>241</ele>
        <time>2013-01-07T04:43:24Z</time>
      </trkpt>
      <trkpt lat="-20.9105" lon="55.36316">
        <ele>241</ele>
        <time>2013-01-07T04:43:29Z</time>
      </trkpt>
      <trkpt lat="-20.91046" lon="55.36322">
        <ele>240</ele>
        <time>2013-01-07T04:43:34Z</time>
      </trkpt>
      <trkpt lat="-20.91041" lon="55.36326">
        <ele>240</ele>
        <time>2013-01-07T04:43:39Z</time>
      </trkpt>
      <trkpt lat="-20.91039" lon="55.36329">
        <ele>239</ele>
        <time>2013-01-07T04:43:44Z</time>
      </trkpt>
      <trkpt lat="-20.91039" lon="55.3633">
        <ele>240</ele>
        <time>2013-01-07T04:43:49Z</time>
      </trkpt>
      <trkpt lat="-20.91038" lon="55.3633">
        <ele>240</ele>
        <time>2013-01-07T04:43:54Z</time>
      </trkpt>
      <trkpt lat="-20.91035" lon="55.36334">
        <ele>239</ele>
        <time>2013-01-07T04:44:00Z</time>
      </trkpt>
      <trkpt lat="-20.91034" lon="55.36336">
        <ele>239</ele>
        <time>2013-01-07T04:44:05Z</time>
      </trkpt>
      <trkpt lat="-20.91033" lon="55.36337">
        <ele>239</ele>
        <time>2013-01-07T04:44:10Z</time>
      </trkpt>
      <trkpt lat="-20.91031" lon="55.3634">
        <ele>239</ele>
        <time>2013-01-07T04:44:15Z</time>
      </trkpt>
      <trkpt lat="-20.91029" lon="55.36346">
        <ele>239</ele>
        <time>2013-01-07T04:44:20Z</time>
      </trkpt>
      <trkpt lat="-20.91026" lon="55.36352">
        <ele>239</ele>
        <time>2013-01-07T04:44:25Z</time>
      </trkpt>
      <trkpt lat="-20.91024" lon="55.36356">
        <ele>239</ele>
        <time>2013-01-07T04:44:30Z</time>
      </trkpt>
      <trkpt lat="-20.91024" lon="55.36356">
        <ele>239</ele>
        <time>2013-01-07T04:44:35Z</time>
      </trkpt>
      <trkpt lat="-20.91022" lon="55.36358">
        <ele>239</ele>
        <time>2013-01-07T04:44:40Z</time>
      </trkpt>
      <trkpt lat="-20.91019" lon="55.36363">
        <ele>238</ele>
        <time>2013-01-07T04:44:45Z</time>
      </trkpt>
      <trkpt lat="-20.91016" lon="55.36369">
        <ele>238</ele>
        <time>2013-01-07T04:44:50Z</time>
      </trkpt>
      <trkpt lat="-20.91013" lon="55.36375">
        <ele>238</ele>
        <time>2013-01-07T04:44:55Z</time>
      </trkpt>
      <trkpt lat="-20.91009" lon="55.36382">
        <ele>237</ele>
        <time>2013-01-07T04:45:00Z</time>
      </trkpt>
      <trkpt lat="-20.91006" lon="55.36389">
        <ele>237</ele>
        <time>2013-01-07T04:45:05Z</time>
      </trkpt>
      <trkpt lat="-20.91003" lon="55.36394">
        <ele>237</ele>
        <time>2013-01-07T04:45:11Z</time>
      </trkpt>
      <trkpt lat="-20.91003" lon="55.36396">
        <ele>237</ele>
        <time>2013-01-07T04:45:16Z</time>
      </trkpt>
      <trkpt lat="-20.91003" lon="55.36396">
        <ele>237</ele>
        <time>2013-01-07T04:45:21Z</time>
      </trkpt>
      <trkpt lat="-20.91001" lon="55.36401">
        <ele>237</ele>
        <time>2013-01-07T04:45:26Z</time>
      </trkpt>
      <trkpt lat="-20.90996" lon="55.36405">
        <ele>237</ele>
        <time>2013-01-07T04:45:31Z</time>
      </trkpt>
      <trkpt lat="-20.9099" lon="55.3641">
        <ele>236</ele>
        <time>2013-01-07T04:45:36Z</time>
      </trkpt>
      <trkpt lat="-20.90985" lon="55.36414">
        <ele>235</ele>
        <time>2013-01-07T04:45:41Z</time>
      </trkpt>
      <trkpt lat="-20.9098" lon="55.36419">
        <ele>235</ele>
        <time>2013-01-07T04:45:46Z</time>
      </trkpt>
      <trkpt lat="-20.90973" lon="55.36422">
        <ele>234</ele>
        <time>2013-01-07T04:45:51Z</time>
      </trkpt>
      <trkpt lat="-20.90968" lon="55.36427">
        <ele>233</ele>
        <time>2013-01-07T04:45:56Z</time>
      </trkpt>
      <trkpt lat="-20.90962" lon="55.36431">
        <ele>233</ele>
        <time>2013-01-07T04:46:01Z</time>
      </trkpt>
      <trkpt lat="-20.90957" lon="55.36435">
        <ele>232</ele>
        <time>2013-01-07T04:46:06Z</time>
      </trkpt>
      <trkpt lat="-20.90951" lon="55.36439">
        <ele>232</ele>
        <time>2013-01-07T04:46:11Z</time>
      </trkpt>
      <trkpt lat="-20.90945" lon="55.36443">
        <ele>231</ele>
        <time>2013-01-07T04:46:16Z</time>
      </trkpt>
      <trkpt lat="-20.9094" lon="55.36448">
        <ele>230</ele>
        <time>2013-01-07T04:46:21Z</time>
      </trkpt>
      <trkpt lat="-20.90933" lon="55.36453">
        <ele>229</ele>
        <time>2013-01-07T04:46:26Z</time>
      </trkpt>
      <trkpt lat="-20.90927" lon="55.36456">
        <ele>228</ele>
        <time>2013-01-07T04:46:31Z</time>
      </trkpt>
      <trkpt lat="-20.90922" lon="55.3646">
        <ele>228</ele>
        <time>2013-01-07T04:46:37Z</time>
      </trkpt>
      <trkpt lat="-20.90916" lon="55.36464">
        <ele>227</ele>
        <time>2013-01-07T04:46:42Z</time>
      </trkpt>
      <trkpt lat="-20.90909" lon="55.36469">
        <ele>227</ele>
        <time>2013-01-07T04:46:47Z</time>
      </trkpt>
      <trkpt lat="-20.90902" lon="55.36473">
        <ele>226</ele>
        <time>2013-01-07T04:46:52Z</time>
      </trkpt>
      <trkpt lat="-20.90897" lon="55.36478">
        <ele>226</ele>
        <time>2013-01-07T04:46:57Z</time>
      </trkpt>
      <trkpt lat="-20.90891" lon="55.36481">
        <ele>225</ele>
        <time>2013-01-07T04:47:02Z</time>
      </trkpt>
      <trkpt lat="-20.90885" lon="55.36485">
        <ele>225</ele>
        <time>2013-01-07T04:47:07Z</time>
      </trkpt>
      <trkpt lat="-20.90879" lon="55.36489">
        <ele>224</ele>
        <time>2013-01-07T04:47:12Z</time>
      </trkpt>
      <trkpt lat="-20.90874" lon="55.36493">
        <ele>224</ele>
        <time>2013-01-07T04:47:17Z</time>
      </trkpt>
      <trkpt lat="-20.90868" lon="55.36497">
        <ele>224</ele>
        <time>2013-01-07T04:47:22Z</time>
      </trkpt>
      <trkpt lat="-20.90862" lon="55.36501">
        <ele>224</ele>
        <time>2013-01-07T04:47:27Z</time>
      </trkpt>
      <trkpt lat="-20.90857" lon="55.36505">
        <ele>223</ele>
        <time>2013-01-07T04:47:32Z</time>
      </trkpt>
      <trkpt lat="-20.90852" lon="55.36509">
        <ele>223</ele>
        <time>2013-01-07T04:47:37Z</time>
      </trkpt>
      <trkpt lat="-20.90846" lon="55.36514">
        <ele>223</ele>
        <time>2013-01-07T04:47:42Z</time>
      </trkpt>
      <trkpt lat="-20.90841" lon="55.36518">
        <ele>222</ele>
        <time>2013-01-07T04:47:47Z</time>
      </trkpt>
      <trkpt lat="-20.90835" lon="55.36523">
        <ele>222</ele>
        <time>2013-01-07T04:47:52Z</time>
      </trkpt>
      <trkpt lat="-20.90829" lon="55.36528">
        <ele>222</ele>
        <time>2013-01-07T04:47:57Z</time>
      </trkpt>
      <trkpt lat="-20.90823" lon="55.36533">
        <ele>222</ele>
        <time>2013-01-07T04:48:02Z</time>
      </trkpt>
      <trkpt lat="-20.90817" lon="55.36536">
        <ele>221</ele>
        <time>2013-01-07T04:48:07Z</time>
      </trkpt>
      <trkpt lat="-20.90811" lon="55.36538">
        <ele>220</ele>
        <time>2013-01-07T04:48:12Z</time>
      </trkpt>
      <trkpt lat="-20.90803" lon="55.36541">
        <ele>220</ele>
        <time>2013-01-07T04:48:17Z</time>
      </trkpt>
      <trkpt lat="-20.90797" lon="55.36543">
        <ele>219</ele>
        <time>2013-01-07T04:48:22Z</time>
      </trkpt>
      <trkpt lat="-20.90791" lon="55.36545">
        <ele>218</ele>
        <time>2013-01-07T04:48:27Z</time>
      </trkpt>
      <trkpt lat="-20.90784" lon="55.36547">
        <ele>218</ele>
        <time>2013-01-07T04:48:33Z</time>
      </trkpt>
      <trkpt lat="-20.90778" lon="55.36549">
        <ele>217</ele>
        <time>2013-01-07T04:48:38Z</time>
      </trkpt>
      <trkpt lat="-20.90771" lon="55.3655">
        <ele>217</ele>
        <time>2013-01-07T04:48:43Z</time>
      </trkpt>
      <trkpt lat="-20.90764" lon="55.36553">
        <ele>217</ele>
        <time>2013-01-07T04:48:48Z</time>
      </trkpt>
      <trkpt lat="-20.90757" lon="55.36556">
        <ele>217</ele>
        <time>2013-01-07T04:48:53Z</time>
      </trkpt>
      <trkpt lat="-20.90752" lon="55.36561">
        <ele>217</ele>
        <time>2013-01-07T04:48:58Z</time>
      </trkpt>
      <trkpt lat="-20.90749" lon="55.36568">
        <ele>217</ele>
        <time>2013-01-07T04:49:03Z</time>
      </trkpt>
      <trkpt lat="-20.90747" lon="55.36574">
        <ele>217</ele>
        <time>2013-01-07T04:49:08Z</time>
      </trkpt>
      <trkpt lat="-20.90745" lon="55.36581">
        <ele>217</ele>
        <time>2013-01-07T04:49:13Z</time>
      </trkpt>
      <trkpt lat="-20.90741" lon="55.3659">
        <ele>217</ele>
        <time>2013-01-07T04:49:18Z</time>
      </trkpt>
      <trkpt lat="-20.90738" lon="55.36597">
        <ele>217</ele>
        <time>2013-01-07T04:49:23Z</time>
      </trkpt>
      <trkpt lat="-20.90735" lon="55.36603">
        <ele>218</ele>
        <time>2013-01-07T04:49:28Z</time>
      </trkpt>
      <trkpt lat="-20.90733" lon="55.3661">
        <ele>217</ele>
        <time>2013-01-07T04:49:33Z</time>
      </trkpt>
      <trkpt lat="-20.90732" lon="55.36617">
        <ele>217</ele>
        <time>2013-01-07T04:49:39Z</time>
      </trkpt>
      <trkpt lat="-20.90728" lon="55.36622">
        <ele>217</ele>
        <time>2013-01-07T04:49:44Z</time>
      </trkpt>
      <trkpt lat="-20.90723" lon="55.36628">
        <ele>216</ele>
        <time>2013-01-07T04:49:49Z</time>
      </trkpt>
      <trkpt lat="-20.90719" lon="55.36634">
        <ele>216</ele>
        <time>2013-01-07T04:49:54Z</time>
      </trkpt>
      <trkpt lat="-20.90714" lon="55.36639">
        <ele>216</ele>
        <time>2013-01-07T04:49:59Z</time>
      </trkpt>
      <trkpt lat="-20.90709" lon="55.36645">
        <ele>216</ele>
        <time>2013-01-07T04:50:04Z</time>
      </trkpt>
      <trkpt lat="-20.90705" lon="55.36649">
        <ele>215</ele>
        <time>2013-01-07T04:50:09Z</time>
      </trkpt>
      <trkpt lat="-20.90699" lon="55.36652">
        <ele>215</ele>
        <time>2013-01-07T04:50:14Z</time>
      </trkpt>
      <trkpt lat="-20.90694" lon="55.36656">
        <ele>215</ele>
        <time>2013-01-07T04:50:19Z</time>
      </trkpt>
      <trkpt lat="-20.90688" lon="55.36659">
        <ele>215</ele>
        <time>2013-01-07T04:50:24Z</time>
      </trkpt>
      <trkpt lat="-20.90683" lon="55.36662">
        <ele>215</ele>
        <time>2013-01-07T04:50:29Z</time>
      </trkpt>
      <trkpt lat="-20.90676" lon="55.36666">
        <ele>215</ele>
        <time>2013-01-07T04:50:34Z</time>
      </trkpt>
      <trkpt lat="-20.9067" lon="55.3667">
        <ele>215</ele>
        <time>2013-01-07T04:50:40Z</time>
      </trkpt>
      <trkpt lat="-20.90664" lon="55.36673">
        <ele>215</ele>
        <time>2013-01-07T04:50:45Z</time>
      </trkpt>
      <trkpt lat="-20.90658" lon="55.36676">
        <ele>215</ele>
        <time>2013-01-07T04:50:50Z</time>
      </trkpt>
      <trkpt lat="-20.90652" lon="55.36681">
        <ele>215</ele>
        <time>2013-01-07T04:50:55Z</time>
      </trkpt>
      <trkpt lat="-20.90647" lon="55.36684">
        <ele>215</ele>
        <time>2013-01-07T04:51:00Z</time>
      </trkpt>
      <trkpt lat="-20.90642" lon="55.36688">
        <ele>215</ele>
        <time>2013-01-07T04:51:05Z</time>
      </trkpt>
      <trkpt lat="-20.90635" lon="55.36692">
        <ele>215</ele>
        <time>2013-01-07T04:51:10Z</time>
      </trkpt>
      <trkpt lat="-20.90629" lon="55.36696">
        <ele>215</ele>
        <time>2013-01-07T04:51:15Z</time>
      </trkpt>
      <trkpt lat="-20.90623" lon="55.36699">
        <ele>215</ele>
        <time>2013-01-07T04:51:20Z</time>
      </trkpt>
      <trkpt lat="-20.90617" lon="55.36702">
        <ele>216</ele>
        <time>2013-01-07T04:51:25Z</time>
      </trkpt>
      <trkpt lat="-20.9061" lon="55.36704">
        <ele>216</ele>
        <time>2013-01-07T04:51:30Z</time>
      </trkpt>
      <trkpt lat="-20.90603" lon="55.36709">
        <ele>216</ele>
        <time>2013-01-07T04:51:35Z</time>
      </trkpt>
      <trkpt lat="-20.90596" lon="55.36711">
        <ele>216</ele>
        <time>2013-01-07T04:51:40Z</time>
      </trkpt>
      <trkpt lat="-20.9059" lon="55.36715">
        <ele>216</ele>
        <time>2013-01-07T04:51:45Z</time>
      </trkpt>
      <trkpt lat="-20.90584" lon="55.36719">
        <ele>217</ele>
        <time>2013-01-07T04:51:51Z</time>
      </trkpt>
      <trkpt lat="-20.90579" lon="55.36722">
        <ele>217</ele>
        <time>2013-01-07T04:51:56Z</time>
      </trkpt>
      <trkpt lat="-20.90573" lon="55.36726">
        <ele>217</ele>
        <time>2013-01-07T04:52:01Z</time>
      </trkpt>
      <trkpt lat="-20.90567" lon="55.36729">
        <ele>217</ele>
        <time>2013-01-07T04:52:06Z</time>
      </trkpt>
      <trkpt lat="-20.90561" lon="55.36734">
        <ele>218</ele>
        <time>2013-01-07T04:52:11Z</time>
      </trkpt>
      <trkpt lat="-20.90555" lon="55.36738">
        <ele>218</ele>
        <time>2013-01-07T04:52:16Z</time>
      </trkpt>
      <trkpt lat="-20.90549" lon="55.36744">
        <ele>218</ele>
        <time>2013-01-07T04:52:21Z</time>
      </trkpt>
      <trkpt lat="-20.90543" lon="55.36748">
        <ele>218</ele>
        <time>2013-01-07T04:52:26Z</time>
      </trkpt>
      <trkpt lat="-20.90538" lon="55.36753">
        <ele>218</ele>
        <time>2013-01-07T04:52:31Z</time>
      </trkpt>
      <trkpt lat="-20.90532" lon="55.36757">
        <ele>218</ele>
        <time>2013-01-07T04:52:36Z</time>
      </trkpt>
      <trkpt lat="-20.90527" lon="55.36761">
        <ele>218</ele>
        <time>2013-01-07T04:52:41Z</time>
      </trkpt>
      <trkpt lat="-20.9052" lon="55.36765">
        <ele>218</ele>
        <time>2013-01-07T04:52:46Z</time>
      </trkpt>
      <trkpt lat="-20.90515" lon="55.36769">
        <ele>218</ele>
        <time>2013-01-07T04:52:51Z</time>
      </trkpt>
      <trkpt lat="-20.90509" lon="55.36774">
        <ele>218</ele>
        <time>2013-01-07T04:52:56Z</time>
      </trkpt>
      <trkpt lat="-20.90505" lon="55.3678">
        <ele>218</ele>
        <time>2013-01-07T04:53:01Z</time>
      </trkpt>
      <trkpt lat="-20.905" lon="55.36787">
        <ele>218</ele>
        <time>2013-01-07T04:53:06Z</time>
      </trkpt>
      <trkpt lat="-20.90494" lon="55.36795">
        <ele>219</ele>
        <time>2013-01-07T04:53:11Z</time>
      </trkpt>
      <trkpt lat="-20.90489" lon="55.368">
        <ele>220</ele>
        <time>2013-01-07T04:53:16Z</time>
      </trkpt>
      <trkpt lat="-20.90484" lon="55.36806">
        <ele>219</ele>
        <time>2013-01-07T04:53:21Z</time>
      </trkpt>
      <trkpt lat="-20.90479" lon="55.36811">
        <ele>219</ele>
        <time>2013-01-07T04:53:26Z</time>
      </trkpt>
      <trkpt lat="-20.90475" lon="55.36817">
        <ele>219</ele>
        <time>2013-01-07T04:53:32Z</time>
      </trkpt>
      <trkpt lat="-20.9047" lon="55.36822">
        <ele>218</ele>
        <time>2013-01-07T04:53:37Z</time>
      </trkpt>
      <trkpt lat="-20.90464" lon="55.36826">
        <ele>218</ele>
        <time>2013-01-07T04:53:42Z</time>
      </trkpt>
      <trkpt lat="-20.90459" lon="55.36831">
        <ele>217</ele>
        <time>2013-01-07T04:53:47Z</time>
      </trkpt>
      <trkpt lat="-20.90454" lon="55.36835">
        <ele>217</ele>
        <time>2013-01-07T04:53:52Z</time>
      </trkpt>
      <trkpt lat="-20.90449" lon="55.3684">
        <ele>216</ele>
        <time>2013-01-07T04:53:57Z</time>
      </trkpt>
      <trkpt lat="-20.90443" lon="55.36844">
        <ele>215</ele>
        <time>2013-01-07T04:54:02Z</time>
      </trkpt>
      <trkpt lat="-20.90439" lon="55.36849">
        <ele>214</ele>
        <time>2013-01-07T04:54:07Z</time>
      </trkpt>
      <trkpt lat="-20.90436" lon="55.36856">
        <ele>213</ele>
        <time>2013-01-07T04:54:12Z</time>
      </trkpt>
      <trkpt lat="-20.90433" lon="55.36864">
        <ele>212</ele>
        <time>2013-01-07T04:54:17Z</time>
      </trkpt>
      <trkpt lat="-20.9043" lon="55.36871">
        <ele>210</ele>
        <time>2013-01-07T04:54:22Z</time>
      </trkpt>
      <trkpt lat="-20.90433" lon="55.36878">
        <ele>208</ele>
        <time>2013-01-07T04:54:27Z</time>
      </trkpt>
      <trkpt lat="-20.90437" lon="55.36884">
        <ele>208</ele>
        <time>2013-01-07T04:54:32Z</time>
      </trkpt>
      <trkpt lat="-20.90442" lon="55.36892">
        <ele>207</ele>
        <time>2013-01-07T04:54:37Z</time>
      </trkpt>
      <trkpt lat="-20.90446" lon="55.36898">
        <ele>207</ele>
        <time>2013-01-07T04:54:42Z</time>
      </trkpt>
      <trkpt lat="-20.90448" lon="55.36904">
        <ele>206</ele>
        <time>2013-01-07T04:54:48Z</time>
      </trkpt>
      <trkpt lat="-20.9045" lon="55.3691">
        <ele>204</ele>
        <time>2013-01-07T04:54:53Z</time>
      </trkpt>
      <trkpt lat="-20.90454" lon="55.36917">
        <ele>203</ele>
        <time>2013-01-07T04:54:58Z</time>
      </trkpt>
      <trkpt lat="-20.90456" lon="55.36924">
        <ele>201</ele>
        <time>2013-01-07T04:55:03Z</time>
      </trkpt>
      <trkpt lat="-20.90459" lon="55.36931">
        <ele>199</ele>
        <time>2013-01-07T04:55:08Z</time>
      </trkpt>
      <trkpt lat="-20.90463" lon="55.36938">
        <ele>198</ele>
        <time>2013-01-07T04:55:13Z</time>
      </trkpt>
      <trkpt lat="-20.90467" lon="55.36945">
        <ele>197</ele>
        <time>2013-01-07T04:55:18Z</time>
      </trkpt>
      <trkpt lat="-20.90471" lon="55.36952">
        <ele>195</ele>
        <time>2013-01-07T04:55:23Z</time>
      </trkpt>
      <trkpt lat="-20.90469" lon="55.36958">
        <ele>194</ele>
        <time>2013-01-07T04:55:28Z</time>
      </trkpt>
      <trkpt lat="-20.90464" lon="55.36961">
        <ele>192</ele>
        <time>2013-01-07T04:55:33Z</time>
      </trkpt>
      <trkpt lat="-20.90459" lon="55.36963">
        <ele>190</ele>
        <time>2013-01-07T04:55:38Z</time>
      </trkpt>
      <trkpt lat="-20.90453" lon="55.36961">
        <ele>188</ele>
        <time>2013-01-07T04:55:43Z</time>
      </trkpt>
      <trkpt lat="-20.90446" lon="55.3696">
        <ele>186</ele>
        <time>2013-01-07T04:55:48Z</time>
      </trkpt>
      <trkpt lat="-20.90438" lon="55.36958">
        <ele>184</ele>
        <time>2013-01-07T04:55:53Z</time>
      </trkpt>
      <trkpt lat="-20.90432" lon="55.36956">
        <ele>182</ele>
        <time>2013-01-07T04:55:58Z</time>
      </trkpt>
      <trkpt lat="-20.90425" lon="55.36954">
        <ele>180</ele>
        <time>2013-01-07T04:56:03Z</time>
      </trkpt>
      <trkpt lat="-20.90418" lon="55.36953">
        <ele>179</ele>
        <time>2013-01-07T04:56:08Z</time>
      </trkpt>
      <trkpt lat="-20.9041" lon="55.3695">
        <ele>177</ele>
        <time>2013-01-07T04:56:13Z</time>
      </trkpt>
      <trkpt lat="-20.90403" lon="55.36948">
        <ele>175</ele>
        <time>2013-01-07T04:56:19Z</time>
      </trkpt>
      <trkpt lat="-20.90396" lon="55.36947">
        <ele>174</ele>
        <time>2013-01-07T04:56:24Z</time>
      </trkpt>
      <trkpt lat="-20.90388" lon="55.36945">
        <ele>172</ele>
        <time>2013-01-07T04:56:29Z</time>
      </trkpt>
      <trkpt lat="-20.90382" lon="55.36943">
        <ele>171</ele>
        <time>2013-01-07T04:56:34Z</time>
      </trkpt>
      <trkpt lat="-20.90376" lon="55.36941">
        <ele>170</ele>
        <time>2013-01-07T04:56:39Z</time>
      </trkpt>
      <trkpt lat="-20.90374" lon="55.36946">
        <ele>168</ele>
        <time>2013-01-07T04:56:44Z</time>
      </trkpt>
      <trkpt lat="-20.90376" lon="55.3695">
        <ele>167</ele>
        <time>2013-01-07T04:56:49Z</time>
      </trkpt>
      <trkpt lat="-20.90378" lon="55.36954">
        <ele>167</ele>
        <time>2013-01-07T04:56:54Z</time>
      </trkpt>
      <trkpt lat="-20.90378" lon="55.36958">
        <ele>167</ele>
        <time>2013-01-07T04:56:59Z</time>
      </trkpt>
      <trkpt lat="-20.90373" lon="55.36961">
        <ele>167</ele>
        <time>2013-01-07T04:57:04Z</time>
      </trkpt>
      <trkpt lat="-20.90367" lon="55.3696">
        <ele>167</ele>
        <time>2013-01-07T04:57:09Z</time>
      </trkpt>
      <trkpt lat="-20.90361" lon="55.3696">
        <ele>168</ele>
        <time>2013-01-07T04:57:14Z</time>
      </trkpt>
      <trkpt lat="-20.90357" lon="55.3696">
        <ele>168</ele>
        <time>2013-01-07T04:57:19Z</time>
      </trkpt>
      <trkpt lat="-20.90353" lon="55.36962">
        <ele>169</ele>
        <time>2013-01-07T04:57:24Z</time>
      </trkpt>
      <trkpt lat="-20.90348" lon="55.36965">
        <ele>169</ele>
        <time>2013-01-07T04:57:29Z</time>
      </trkpt>
      <trkpt lat="-20.90343" lon="55.36967">
        <ele>170</ele>
        <time>2013-01-07T04:57:34Z</time>
      </trkpt>
      <trkpt lat="-20.90338" lon="55.3697">
        <ele>171</ele>
        <time>2013-01-07T04:57:39Z</time>
      </trkpt>
      <trkpt lat="-20.90333" lon="55.36974">
        <ele>172</ele>
        <time>2013-01-07T04:57:44Z</time>
      </trkpt>
      <trkpt lat="-20.90331" lon="55.36978">
        <ele>172</ele>
        <time>2013-01-07T04:57:49Z</time>
      </trkpt>
      <trkpt lat="-20.9033" lon="55.36983">
        <ele>174</ele>
        <time>2013-01-07T04:57:54Z</time>
      </trkpt>
      <trkpt lat="-20.9033" lon="55.36987">
        <ele>175</ele>
        <time>2013-01-07T04:58:00Z</time>
      </trkpt>
      <trkpt lat="-20.90331" lon="55.36991">
        <ele>176</ele>
        <time>2013-01-07T04:58:05Z</time>
      </trkpt>
      <trkpt lat="-20.90334" lon="55.36994">
        <ele>177</ele>
        <time>2013-01-07T04:58:10Z</time>
      </trkpt>
      <trkpt lat="-20.90335" lon="55.36996">
        <ele>178</ele>
        <time>2013-01-07T04:58:15Z</time>
      </trkpt>
      <trkpt lat="-20.90335" lon="55.36996">
        <ele>179</ele>
        <time>2013-01-07T04:58:20Z</time>
      </trkpt>
      <trkpt lat="-20.90334" lon="55.36997">
        <ele>179</ele>
        <time>2013-01-07T04:58:25Z</time>
      </trkpt>
      <trkpt lat="-20.90333" lon="55.36996">
        <ele>179</ele>
        <time>2013-01-07T04:58:30Z</time>
      </trkpt>
      <trkpt lat="-20.90333" lon="55.36995">
        <ele>178</ele>
        <time>2013-01-07T04:58:35Z</time>
      </trkpt>
      <trkpt lat="-20.90333" lon="55.36995">
        <ele>178</ele>
        <time>2013-01-07T04:58:40Z</time>
      </trkpt>
      <trkpt lat="-20.90334" lon="55.36995">
        <ele>178</ele>
        <time>2013-01-07T04:58:45Z</time>
      </trkpt>
      <trkpt lat="-20.90335" lon="55.36994">
        <ele>178</ele>
        <time>2013-01-07T04:58:50Z</time>
      </trkpt>
      <trkpt lat="-20.90336" lon="55.36993">
        <ele>178</ele>
        <time>2013-01-07T04:58:55Z</time>
      </trkpt>
      <trkpt lat="-20.90337" lon="55.36994">
        <ele>178</ele>
        <time>2013-01-07T04:59:00Z</time>
      </trkpt>
      <trkpt lat="-20.90339" lon="55.36996">
        <ele>179</ele>
        <time>2013-01-07T04:59:05Z</time>
      </trkpt>
      <trkpt lat="-20.90341" lon="55.37">
        <ele>180</ele>
        <time>2013-01-07T04:59:10Z</time>
      </trkpt>
      <trkpt lat="-20.90343" lon="55.37004">
        <ele>182</ele>
        <time>2013-01-07T04:59:15Z</time>
      </trkpt>
      <trkpt lat="-20.90346" lon="55.37008">
        <ele>182</ele>
        <time>2013-01-07T04:59:20Z</time>
      </trkpt>
      <trkpt lat="-20.90347" lon="55.37011">
        <ele>184</ele>
        <time>2013-01-07T04:59:26Z</time>
      </trkpt>
      <trkpt lat="-20.90349" lon="55.37012">
        <ele>185</ele>
        <time>2013-01-07T04:59:31Z</time>
      </trkpt>
      <trkpt lat="-20.90351" lon="55.37014">
        <ele>186</ele>
        <time>2013-01-07T04:59:36Z</time>
      </trkpt>
      <trkpt lat="-20.90354" lon="55.37016">
        <ele>187</ele>
        <time>2013-01-07T04:59:41Z</time>
      </trkpt>
      <trkpt lat="-20.90355" lon="55.37018">
        <ele>188</ele>
        <time>2013-01-07T04:59:46Z</time>
      </trkpt>
      <trkpt lat="-20.90353" lon="55.3702">
        <ele>189</ele>
        <time>2013-01-07T04:59:51Z</time>
      </trkpt>
      <trkpt lat="-20.90351" lon="55.37022">
        <ele>189</ele>
        <time>2013-01-07T04:59:56Z</time>
      </trkpt>
      <trkpt lat="-20.90351" lon="55.37022">
        <ele>190</ele>
        <time>2013-01-07T05:00:01Z</time>
      </trkpt>
      <trkpt lat="-20.90349" lon="55.37023">
        <ele>190</ele>
        <time>2013-01-07T05:00:06Z</time>
      </trkpt>
      <trkpt lat="-20.90346" lon="55.37024">
        <ele>191</ele>
        <time>2013-01-07T05:00:11Z</time>
      </trkpt>
      <trkpt lat="-20.90344" lon="55.37026">
        <ele>191</ele>
        <time>2013-01-07T05:00:16Z</time>
      </trkpt>
      <trkpt lat="-20.9034" lon="55.37027">
        <ele>192</ele>
        <time>2013-01-07T05:00:22Z</time>
      </trkpt>
      <trkpt lat="-20.90338" lon="55.37029">
        <ele>193</ele>
        <time>2013-01-07T05:00:27Z</time>
      </trkpt>
      <trkpt lat="-20.90334" lon="55.3703">
        <ele>194</ele>
        <time>2013-01-07T05:00:32Z</time>
      </trkpt>
      <trkpt lat="-20.90329" lon="55.37032">
        <ele>194</ele>
        <time>2013-01-07T05:00:37Z</time>
      </trkpt>
      <trkpt lat="-20.90324" lon="55.37032">
        <ele>195</ele>
        <time>2013-01-07T05:00:42Z</time>
      </trkpt>
      <trkpt lat="-20.90321" lon="55.37035">
        <ele>196</ele>
        <time>2013-01-07T05:00:47Z</time>
      </trkpt>
      <trkpt lat="-20.90321" lon="55.37038">
        <ele>197</ele>
        <time>2013-01-07T05:00:52Z</time>
      </trkpt>
      <trkpt lat="-20.90323" lon="55.37041">
        <ele>198</ele>
        <time>2013-01-07T05:00:57Z</time>
      </trkpt>
      <trkpt lat="-20.90325" lon="55.37044">
        <ele>199</ele>
        <time>2013-01-07T05:01:02Z</time>
      </trkpt>
      <trkpt lat="-20.90328" lon="55.37046">
        <ele>199</ele>
        <time>2013-01-07T05:01:07Z</time>
      </trkpt>
      <trkpt lat="-20.9033" lon="55.37049">
        <ele>201</ele>
        <time>2013-01-07T05:01:13Z</time>
      </trkpt>
      <trkpt lat="-20.90333" lon="55.37051">
        <ele>201</ele>
        <time>2013-01-07T05:01:18Z</time>
      </trkpt>
      <trkpt lat="-20.90337" lon="55.37052">
        <ele>202</ele>
        <time>2013-01-07T05:01:23Z</time>
      </trkpt>
      <trkpt lat="-20.9034" lon="55.37053">
        <ele>203</ele>
        <time>2013-01-07T05:01:28Z</time>
      </trkpt>
      <trkpt lat="-20.90343" lon="55.37055">
        <ele>204</ele>
        <time>2013-01-07T05:01:33Z</time>
      </trkpt>
      <trkpt lat="-20.90345" lon="55.37057">
        <ele>205</ele>
        <time>2013-01-07T05:01:38Z</time>
      </trkpt>
      <trkpt lat="-20.90343" lon="55.3706">
        <ele>206</ele>
        <time>2013-01-07T05:01:43Z</time>
      </trkpt>
      <trkpt lat="-20.9034" lon="55.37062">
        <ele>207</ele>
        <time>2013-01-07T05:01:48Z</time>
      </trkpt>
      <trkpt lat="-20.90338" lon="55.37063">
        <ele>208</ele>
        <time>2013-01-07T05:01:53Z</time>
      </trkpt>
      <trkpt lat="-20.90335" lon="55.37065">
        <ele>208</ele>
        <time>2013-01-07T05:01:58Z</time>
      </trkpt>
      <trkpt lat="-20.90333" lon="55.37068">
        <ele>210</ele>
        <time>2013-01-07T05:02:03Z</time>
      </trkpt>
      <trkpt lat="-20.90331" lon="55.37072">
        <ele>211</ele>
        <time>2013-01-07T05:02:08Z</time>
      </trkpt>
      <trkpt lat="-20.90328" lon="55.37076">
        <ele>212</ele>
        <time>2013-01-07T05:02:13Z</time>
      </trkpt>
      <trkpt lat="-20.90326" lon="55.37079">
        <ele>212</ele>
        <time>2013-01-07T05:02:18Z</time>
      </trkpt>
      <trkpt lat="-20.90324" lon="55.37083">
        <ele>214</ele>
        <time>2013-01-07T05:02:24Z</time>
      </trkpt>
      <trkpt lat="-20.90322" lon="55.37087">
        <ele>215</ele>
        <time>2013-01-07T05:02:29Z</time>
      </trkpt>
      <trkpt lat="-20.9032" lon="55.3709">
        <ele>216</ele>
        <time>2013-01-07T05:02:34Z</time>
      </trkpt>
      <trkpt lat="-20.90317" lon="55.37093">
        <ele>217</ele>
        <time>2013-01-07T05:02:39Z</time>
      </trkpt>
      <trkpt lat="-20.90314" lon="55.37096">
        <ele>218</ele>
        <time>2013-01-07T05:02:44Z</time>
      </trkpt>
      <trkpt lat="-20.90311" lon="55.37101">
        <ele>219</ele>
        <time>2013-01-07T05:02:49Z</time>
      </trkpt>
      <trkpt lat="-20.90308" lon="55.37105">
        <ele>220</ele>
        <time>2013-01-07T05:02:54Z</time>
      </trkpt>
      <trkpt lat="-20.90306" lon="55.3711">
        <ele>220</ele>
        <time>2013-01-07T05:02:59Z</time>
      </trkpt>
      <trkpt lat="-20.90303" lon="55.37115">
        <ele>221</ele>
        <time>2013-01-07T05:03:04Z</time>
      </trkpt>
      <trkpt lat="-20.90301" lon="55.37123">
        <ele>221</ele>
        <time>2013-01-07T05:03:09Z</time>
      </trkpt>
      <trkpt lat="-20.903" lon="55.37129">
        <ele>222</ele>
        <time>2013-01-07T05:03:14Z</time>
      </trkpt>
      <trkpt lat="-20.90299" lon="55.37135">
        <ele>223</ele>
        <time>2013-01-07T05:03:19Z</time>
      </trkpt>
      <trkpt lat="-20.90298" lon="55.37141">
        <ele>224</ele>
        <time>2013-01-07T05:03:24Z</time>
      </trkpt>
      <trkpt lat="-20.90298" lon="55.37148">
        <ele>224</ele>
        <time>2013-01-07T05:03:30Z</time>
      </trkpt>
      <trkpt lat="-20.90297" lon="55.37153">
        <ele>225</ele>
        <time>2013-01-07T05:03:35Z</time>
      </trkpt>
      <trkpt lat="-20.90296" lon="55.37159">
        <ele>226</ele>
        <time>2013-01-07T05:03:40Z</time>
      </trkpt>
      <trkpt lat="-20.90296" lon="55.37165">
        <ele>226</ele>
        <time>2013-01-07T05:03:45Z</time>
      </trkpt>
      <trkpt lat="-20.90295" lon="55.3717">
        <ele>227</ele>
        <time>2013-01-07T05:03:50Z</time>
      </trkpt>
      <trkpt lat="-20.90295" lon="55.37176">
        <ele>228</ele>
        <time>2013-01-07T05:03:55Z</time>
      </trkpt>
      <trkpt lat="-20.90295" lon="55.37182">
        <ele>229</ele>
        <time>2013-01-07T05:04:00Z</time>
      </trkpt>
      <trkpt lat="-20.90294" lon="55.37188">
        <ele>230</ele>
        <time>2013-01-07T05:04:05Z</time>
      </trkpt>
      <trkpt lat="-20.90293" lon="55.37194">
        <ele>230</ele>
        <time>2013-01-07T05:04:10Z</time>
      </trkpt>
      <trkpt lat="-20.90293" lon="55.372">
        <ele>231</ele>
        <time>2013-01-07T05:04:15Z</time>
      </trkpt>
      <trkpt lat="-20.90292" lon="55.37205">
        <ele>231</ele>
        <time>2013-01-07T05:04:20Z</time>
      </trkpt>
      <trkpt lat="-20.90292" lon="55.37211">
        <ele>233</ele>
        <time>2013-01-07T05:04:25Z</time>
      </trkpt>
      <trkpt lat="-20.90291" lon="55.37217">
        <ele>233</ele>
        <time>2013-01-07T05:04:31Z</time>
      </trkpt>
      <trkpt lat="-20.9029" lon="55.37223">
        <ele>234</ele>
        <time>2013-01-07T05:04:36Z</time>
      </trkpt>
      <trkpt lat="-20.90289" lon="55.37229">
        <ele>234</ele>
        <time>2013-01-07T05:04:41Z</time>
      </trkpt>
      <trkpt lat="-20.90288" lon="55.37235">
        <ele>235</ele>
        <time>2013-01-07T05:04:46Z</time>
      </trkpt>
      <trkpt lat="-20.90287" lon="55.37241">
        <ele>236</ele>
        <time>2013-01-07T05:04:51Z</time>
      </trkpt>
      <trkpt lat="-20.90287" lon="55.37248">
        <ele>236</ele>
        <time>2013-01-07T05:04:56Z</time>
      </trkpt>
      <trkpt lat="-20.90286" lon="55.37254">
        <ele>237</ele>
        <time>2013-01-07T05:05:01Z</time>
      </trkpt>
      <trkpt lat="-20.90285" lon="55.3726">
        <ele>237</ele>
        <time>2013-01-07T05:05:06Z</time>
      </trkpt>
      <trkpt lat="-20.90285" lon="55.37265">
        <ele>238</ele>
        <time>2013-01-07T05:05:11Z</time>
      </trkpt>
      <trkpt lat="-20.90284" lon="55.37271">
        <ele>239</ele>
        <time>2013-01-07T05:05:16Z</time>
      </trkpt>
      <trkpt lat="-20.90283" lon="55.37277">
        <ele>239</ele>
        <time>2013-01-07T05:05:21Z</time>
      </trkpt>
      <trkpt lat="-20.90282" lon="55.37283">
        <ele>240</ele>
        <time>2013-01-07T05:05:26Z</time>
      </trkpt>
      <trkpt lat="-20.90283" lon="55.37287">
        <ele>241</ele>
        <time>2013-01-07T05:05:31Z</time>
      </trkpt>
      <trkpt lat="-20.90284" lon="55.37293">
        <ele>240</ele>
        <time>2013-01-07T05:05:36Z</time>
      </trkpt>
      <trkpt lat="-20.90287" lon="55.37299">
        <ele>239</ele>
        <time>2013-01-07T05:05:41Z</time>
      </trkpt>
      <trkpt lat="-20.9029" lon="55.37303">
        <ele>237</ele>
        <time>2013-01-07T05:05:46Z</time>
      </trkpt>
      <trkpt lat="-20.90291" lon="55.37308">
        <ele>235</ele>
        <time>2013-01-07T05:05:52Z</time>
      </trkpt>
      <trkpt lat="-20.90291" lon="55.37314">
        <ele>233</ele>
        <time>2013-01-07T05:05:57Z</time>
      </trkpt>
      <trkpt lat="-20.90291" lon="55.3732">
        <ele>231</ele>
        <time>2013-01-07T05:06:02Z</time>
      </trkpt>
      <trkpt lat="-20.90294" lon="55.37325">
        <ele>229</ele>
        <time>2013-01-07T05:06:07Z</time>
      </trkpt>
      <trkpt lat="-20.90298" lon="55.37328">
        <ele>228</ele>
        <time>2013-01-07T05:06:12Z</time>
      </trkpt>
      <trkpt lat="-20.90303" lon="55.37332">
        <ele>226</ele>
        <time>2013-01-07T05:06:17Z</time>
      </trkpt>
      <trkpt lat="-20.90306" lon="55.37338">
        <ele>225</ele>
        <time>2013-01-07T05:06:22Z</time>
      </trkpt>
      <trkpt lat="-20.9031" lon="55.37344">
        <ele>223</ele>
        <time>2013-01-07T05:06:27Z</time>
      </trkpt>
      <trkpt lat="-20.90315" lon="55.37349">
        <ele>222</ele>
        <time>2013-01-07T05:06:32Z</time>
      </trkpt>
      <trkpt lat="-20.90318" lon="55.37354">
        <ele>221</ele>
        <time>2013-01-07T05:06:37Z</time>
      </trkpt>
      <trkpt lat="-20.90323" lon="55.3736">
        <ele>221</ele>
        <time>2013-01-07T05:06:42Z</time>
      </trkpt>
      <trkpt lat="-20.90326" lon="55.37365">
        <ele>220</ele>
        <time>2013-01-07T05:06:47Z</time>
      </trkpt>
      <trkpt lat="-20.9033" lon="55.37369">
        <ele>219</ele>
        <time>2013-01-07T05:06:52Z</time>
      </trkpt>
      <trkpt lat="-20.90333" lon="55.37375">
        <ele>218</ele>
        <time>2013-01-07T05:06:57Z</time>
      </trkpt>
      <trkpt lat="-20.90337" lon="55.37379">
        <ele>217</ele>
        <time>2013-01-07T05:07:02Z</time>
      </trkpt>
      <trkpt lat="-20.90337" lon="55.37384">
        <ele>215</ele>
        <time>2013-01-07T05:07:07Z</time>
      </trkpt>
      <trkpt lat="-20.90333" lon="55.37384">
        <ele>213</ele>
        <time>2013-01-07T05:07:12Z</time>
      </trkpt>
      <trkpt lat="-20.90328" lon="55.37382">
        <ele>211</ele>
        <time>2013-01-07T05:07:17Z</time>
      </trkpt>
      <trkpt lat="-20.90324" lon="55.3738">
        <ele>210</ele>
        <time>2013-01-07T05:07:23Z</time>
      </trkpt>
      <trkpt lat="-20.9032" lon="55.37382">
        <ele>209</ele>
        <time>2013-01-07T05:07:28Z</time>
      </trkpt>
      <trkpt lat="-20.90323" lon="55.37388">
        <ele>207</ele>
        <time>2013-01-07T05:07:33Z</time>
      </trkpt>
      <trkpt lat="-20.90327" lon="55.37392">
        <ele>206</ele>
        <time>2013-01-07T05:07:38Z</time>
      </trkpt>
      <trkpt lat="-20.90331" lon="55.37396">
        <ele>204</ele>
        <time>2013-01-07T05:07:43Z</time>
      </trkpt>
      <trkpt lat="-20.90334" lon="55.37401">
        <ele>202</ele>
        <time>2013-01-07T05:07:48Z</time>
      </trkpt>
      <trkpt lat="-20.90336" lon="55.37407">
        <ele>201</ele>
        <time>2013-01-07T05:07:53Z</time>
      </trkpt>
      <trkpt lat="-20.90338" lon="55.37412">
        <ele>199</ele>
        <time>2013-01-07T05:07:58Z</time>
      </trkpt>
      <trkpt lat="-20.9034" lon="55.37417">
        <ele>198</ele>
        <time>2013-01-07T05:08:03Z</time>
      </trkpt>
      <trkpt lat="-20.90342" lon="55.37422">
        <ele>197</ele>
        <time>2013-01-07T05:08:08Z</time>
      </trkpt>
      <trkpt lat="-20.90343" lon="55.37427">
        <ele>194</ele>
        <time>2013-01-07T05:08:13Z</time>
      </trkpt>
      <trkpt lat="-20.90345" lon="55.37433">
        <ele>192</ele>
        <time>2013-01-07T05:08:18Z</time>
      </trkpt>
      <trkpt lat="-20.90347" lon="55.3744">
        <ele>191</ele>
        <time>2013-01-07T05:08:24Z</time>
      </trkpt>
      <trkpt lat="-20.90349" lon="55.37445">
        <ele>189</ele>
        <time>2013-01-07T05:08:29Z</time>
      </trkpt>
      <trkpt lat="-20.90344" lon="55.37446">
        <ele>188</ele>
        <time>2013-01-07T05:08:34Z</time>
      </trkpt>
      <trkpt lat="-20.90341" lon="55.37444">
        <ele>186</ele>
        <time>2013-01-07T05:08:39Z</time>
      </trkpt>
      <trkpt lat="-20.90338" lon="55.37443">
        <ele>185</ele>
        <time>2013-01-07T05:08:44Z</time>
      </trkpt>
      <trkpt lat="-20.90334" lon="55.3744">
        <ele>184</ele>
        <time>2013-01-07T05:08:49Z</time>
      </trkpt>
      <trkpt lat="-20.90329" lon="55.37437">
        <ele>182</ele>
        <time>2013-01-07T05:08:54Z</time>
      </trkpt>
      <trkpt lat="-20.90325" lon="55.37435">
        <ele>180</ele>
        <time>2013-01-07T05:08:59Z</time>
      </trkpt>
      <trkpt lat="-20.9032" lon="55.37432">
        <ele>178</ele>
        <time>2013-01-07T05:09:04Z</time>
      </trkpt>
      <trkpt lat="-20.90317" lon="55.37431">
        <ele>177</ele>
        <time>2013-01-07T05:09:09Z</time>
      </trkpt>
      <trkpt lat="-20.90313" lon="55.37428">
        <ele>176</ele>
        <time>2013-01-07T05:09:14Z</time>
      </trkpt>
      <trkpt lat="-20.90309" lon="55.37425">
        <ele>175</ele>
        <time>2013-01-07T05:09:19Z</time>
      </trkpt>
      <trkpt lat="-20.90304" lon="55.37422">
        <ele>174</ele>
        <time>2013-01-07T05:09:24Z</time>
      </trkpt>
      <trkpt lat="-20.90299" lon="55.37422">
        <ele>172</ele>
        <time>2013-01-07T05:09:29Z</time>
      </trkpt>
      <trkpt lat="-20.90299" lon="55.37426">
        <ele>171</ele>
        <time>2013-01-07T05:09:34Z</time>
      </trkpt>
      <trkpt lat="-20.90301" lon="55.37431">
        <ele>169</ele>
        <time>2013-01-07T05:09:40Z</time>
      </trkpt>
      <trkpt lat="-20.90302" lon="55.37437">
        <ele>168</ele>
        <time>2013-01-07T05:09:45Z</time>
      </trkpt>
      <trkpt lat="-20.90304" lon="55.37442">
        <ele>166</ele>
        <time>2013-01-07T05:09:50Z</time>
      </trkpt>
      <trkpt lat="-20.90306" lon="55.37448">
        <ele>166</ele>
        <time>2013-01-07T05:09:55Z</time>
      </trkpt>
      <trkpt lat="-20.90309" lon="55.37452">
        <ele>165</ele>
        <time>2013-01-07T05:10:00Z</time>
      </trkpt>
      <trkpt lat="-20.90314" lon="55.37455">
        <ele>164</ele>
        <time>2013-01-07T05:10:05Z</time>
      </trkpt>
      <trkpt lat="-20.90316" lon="55.3746">
        <ele>164</ele>
        <time>2013-01-07T05:10:10Z</time>
      </trkpt>
      <trkpt lat="-20.90314" lon="55.37464">
        <ele>163</ele>
        <time>2013-01-07T05:10:15Z</time>
      </trkpt>
      <trkpt lat="-20.90312" lon="55.37464">
        <ele>161</ele>
        <time>2013-01-07T05:10:20Z</time>
      </trkpt>
      <trkpt lat="-20.90307" lon="55.37463">
        <ele>160</ele>
        <time>2013-01-07T05:10:25Z</time>
      </trkpt>
      <trkpt lat="-20.90303" lon="55.37461">
        <ele>159</ele>
        <time>2013-01-07T05:10:30Z</time>
      </trkpt>
      <trkpt lat="-20.90298" lon="55.37459">
        <ele>158</ele>
        <time>2013-01-07T05:10:35Z</time>
      </trkpt>
      <trkpt lat="-20.90294" lon="55.37457">
        <ele>155</ele>
        <time>2013-01-07T05:10:40Z</time>
      </trkpt>
      <trkpt lat="-20.90289" lon="55.37452">
        <ele>154</ele>
        <time>2013-01-07T05:10:45Z</time>
      </trkpt>
      <trkpt lat="-20.90284" lon="55.3745">
        <ele>153</ele>
        <time>2013-01-07T05:10:50Z</time>
      </trkpt>
      <trkpt lat="-20.90279" lon="55.37448">
        <ele>152</ele>
        <time>2013-01-07T05:10:55Z</time>
      </trkpt>
      <trkpt lat="-20.90274" lon="55.37445">
        <ele>151</ele>
        <time>2013-01-07T05:11:00Z</time>
      </trkpt>
      <trkpt lat="-20.90269" lon="55.37443">
        <ele>149</ele>
        <time>2013-01-07T05:11:05Z</time>
      </trkpt>
      <trkpt lat="-20.90268" lon="55.37448">
        <ele>147</ele>
        <time>2013-01-07T05:11:10Z</time>
      </trkpt>
      <trkpt lat="-20.90269" lon="55.37453">
        <ele>146</ele>
        <time>2013-01-07T05:11:15Z</time>
      </trkpt>
      <trkpt lat="-20.9027" lon="55.37458">
        <ele>144</ele>
        <time>2013-01-07T05:11:21Z</time>
      </trkpt>
      <trkpt lat="-20.9027" lon="55.37463">
        <ele>142</ele>
        <time>2013-01-07T05:11:26Z</time>
      </trkpt>
      <trkpt lat="-20.90272" lon="55.37469">
        <ele>140</ele>
        <time>2013-01-07T05:11:31Z</time>
      </trkpt>
      <trkpt lat="-20.90274" lon="55.37475">
        <ele>139</ele>
        <time>2013-01-07T05:11:36Z</time>
      </trkpt>
      <trkpt lat="-20.90276" lon="55.3748">
        <ele>137</ele>
        <time>2013-01-07T05:11:41Z</time>
      </trkpt>
      <trkpt lat="-20.90278" lon="55.37486">
        <ele>136</ele>
        <time>2013-01-07T05:11:46Z</time>
      </trkpt>
      <trkpt lat="-20.90279" lon="55.37492">
        <ele>134</ele>
        <time>2013-01-07T05:11:51Z</time>
      </trkpt>
      <trkpt lat="-20.90276" lon="55.37495">
        <ele>132</ele>
        <time>2013-01-07T05:11:56Z</time>
      </trkpt>
      <trkpt lat="-20.90273" lon="55.37496">
        <ele>130</ele>
        <time>2013-01-07T05:12:01Z</time>
      </trkpt>
      <trkpt lat="-20.90269" lon="55.37497">
        <ele>129</ele>
        <time>2013-01-07T05:12:06Z</time>
      </trkpt>
      <trkpt lat="-20.90264" lon="55.37496">
        <ele>127</ele>
        <time>2013-01-07T05:12:11Z</time>
      </trkpt>
      <trkpt lat="-20.90259" lon="55.37496">
        <ele>126</ele>
        <time>2013-01-07T05:12:16Z</time>
      </trkpt>
      <trkpt lat="-20.90254" lon="55.37496">
        <ele>125</ele>
        <time>2013-01-07T05:12:21Z</time>
      </trkpt>
      <trkpt lat="-20.9025" lon="55.37495">
        <ele>123</ele>
        <time>2013-01-07T05:12:27Z</time>
      </trkpt>
      <trkpt lat="-20.90246" lon="55.37497">
        <ele>121</ele>
        <time>2013-01-07T05:12:32Z</time>
      </trkpt>
      <trkpt lat="-20.9024" lon="55.37495">
        <ele>120</ele>
        <time>2013-01-07T05:12:37Z</time>
      </trkpt>
      <trkpt lat="-20.90236" lon="55.37495">
        <ele>119</ele>
        <time>2013-01-07T05:12:42Z</time>
      </trkpt>
      <trkpt lat="-20.90233" lon="55.37499">
        <ele>117</ele>
        <time>2013-01-07T05:12:47Z</time>
      </trkpt>
      <trkpt lat="-20.90236" lon="55.37504">
        <ele>116</ele>
        <time>2013-01-07T05:12:52Z</time>
      </trkpt>
      <trkpt lat="-20.90238" lon="55.3751">
        <ele>114</ele>
        <time>2013-01-07T05:12:57Z</time>
      </trkpt>
      <trkpt lat="-20.90242" lon="55.37515">
        <ele>113</ele>
        <time>2013-01-07T05:13:02Z</time>
      </trkpt>
      <trkpt lat="-20.90244" lon="55.3752">
        <ele>112</ele>
        <time>2013-01-07T05:13:07Z</time>
      </trkpt>
      <trkpt lat="-20.90247" lon="55.37524">
        <ele>111</ele>
        <time>2013-01-07T05:13:12Z</time>
      </trkpt>
      <trkpt lat="-20.90247" lon="55.37528">
        <ele>109</ele>
        <time>2013-01-07T05:13:17Z</time>
      </trkpt>
      <trkpt lat="-20.90244" lon="55.37528">
        <ele>108</ele>
        <time>2013-01-07T05:13:22Z</time>
      </trkpt>
      <trkpt lat="-20.9024" lon="55.37527">
        <ele>105</ele>
        <time>2013-01-07T05:13:27Z</time>
      </trkpt>
      <trkpt lat="-20.90235" lon="55.37527">
        <ele>104</ele>
        <time>2013-01-07T05:13:32Z</time>
      </trkpt>
      <trkpt lat="-20.90231" lon="55.37527">
        <ele>102</ele>
        <time>2013-01-07T05:13:37Z</time>
      </trkpt>
      <trkpt lat="-20.90226" lon="55.37527">
        <ele>101</ele>
        <time>2013-01-07T05:13:42Z</time>
      </trkpt>
      <trkpt lat="-20.90221" lon="55.37527">
        <ele>99</ele>
        <time>2013-01-07T05:13:47Z</time>
      </trkpt>
      <trkpt lat="-20.90217" lon="55.37527">
        <ele>97</ele>
        <time>2013-01-07T05:13:52Z</time>
      </trkpt>
      <trkpt lat="-20.90211" lon="55.37529">
        <ele>95</ele>
        <time>2013-01-07T05:13:57Z</time>
      </trkpt>
      <trkpt lat="-20.90212" lon="55.37535">
        <ele>93</ele>
        <time>2013-01-07T05:14:02Z</time>
      </trkpt>
      <trkpt lat="-20.90214" lon="55.37539">
        <ele>92</ele>
        <time>2013-01-07T05:14:08Z</time>
      </trkpt>
      <trkpt lat="-20.90217" lon="55.37543">
        <ele>90</ele>
        <time>2013-01-07T05:14:13Z</time>
      </trkpt>
      <trkpt lat="-20.9022" lon="55.37548">
        <ele>89</ele>
        <time>2013-01-07T05:14:18Z</time>
      </trkpt>
      <trkpt lat="-20.90223" lon="55.37551">
        <ele>88</ele>
        <time>2013-01-07T05:14:23Z</time>
      </trkpt>
      <trkpt lat="-20.90225" lon="55.37556">
        <ele>85</ele>
        <time>2013-01-07T05:14:28Z</time>
      </trkpt>
      <trkpt lat="-20.90228" lon="55.37559">
        <ele>84</ele>
        <time>2013-01-07T05:14:33Z</time>
      </trkpt>
      <trkpt lat="-20.90225" lon="55.37563">
        <ele>82</ele>
        <time>2013-01-07T05:14:38Z</time>
      </trkpt>
      <trkpt lat="-20.90221" lon="55.37564">
        <ele>80</ele>
        <time>2013-01-07T05:14:44Z</time>
      </trkpt>
      <trkpt lat="-20.90215" lon="55.37565">
        <ele>78</ele>
        <time>2013-01-07T05:14:49Z</time>
      </trkpt>
      <trkpt lat="-20.9021" lon="55.37565">
        <ele>77</ele>
        <time>2013-01-07T05:14:54Z</time>
      </trkpt>
      <trkpt lat="-20.90205" lon="55.37566">
        <ele>76</ele>
        <time>2013-01-07T05:14:59Z</time>
      </trkpt>
      <trkpt lat="-20.90202" lon="55.37569">
        <ele>74</ele>
        <time>2013-01-07T05:15:04Z</time>
      </trkpt>
      <trkpt lat="-20.90196" lon="55.37572">
        <ele>72</ele>
        <time>2013-01-07T05:15:09Z</time>
      </trkpt>
      <trkpt lat="-20.9019" lon="55.37574">
        <ele>70</ele>
        <time>2013-01-07T05:15:14Z</time>
      </trkpt>
      <trkpt lat="-20.90184" lon="55.37578">
        <ele>69</ele>
        <time>2013-01-07T05:15:19Z</time>
      </trkpt>
      <trkpt lat="-20.90177" lon="55.37582">
        <ele>68</ele>
        <time>2013-01-07T05:15:24Z</time>
      </trkpt>
      <trkpt lat="-20.90171" lon="55.37582">
        <ele>66</ele>
        <time>2013-01-07T05:15:29Z</time>
      </trkpt>
      <trkpt lat="-20.90166" lon="55.3758">
        <ele>64</ele>
        <time>2013-01-07T05:15:34Z</time>
      </trkpt>
      <trkpt lat="-20.90163" lon="55.37586">
        <ele>62</ele>
        <time>2013-01-07T05:15:39Z</time>
      </trkpt>
      <trkpt lat="-20.90158" lon="55.37585">
        <ele>61</ele>
        <time>2013-01-07T05:15:44Z</time>
      </trkpt>
      <trkpt lat="-20.90153" lon="55.37581">
        <ele>59</ele>
        <time>2013-01-07T05:15:49Z</time>
      </trkpt>
      <trkpt lat="-20.90148" lon="55.37577">
        <ele>58</ele>
        <time>2013-01-07T05:15:54Z</time>
      </trkpt>
      <trkpt lat="-20.90142" lon="55.37572">
        <ele>56</ele>
        <time>2013-01-07T05:15:59Z</time>
      </trkpt>
      <trkpt lat="-20.90138" lon="55.37568">
        <ele>55</ele>
        <time>2013-01-07T05:16:04Z</time>
      </trkpt>
      <trkpt lat="-20.90132" lon="55.37564">
        <ele>53</ele>
        <time>2013-01-07T05:16:09Z</time>
      </trkpt>
      <trkpt lat="-20.90128" lon="55.37558">
        <ele>51</ele>
        <time>2013-01-07T05:16:14Z</time>
      </trkpt>
      <trkpt lat="-20.90124" lon="55.37554">
        <ele>50</ele>
        <time>2013-01-07T05:16:19Z</time>
      </trkpt>
      <trkpt lat="-20.9012" lon="55.37559">
        <ele>49</ele>
        <time>2013-01-07T05:16:25Z</time>
      </trkpt>
      <trkpt lat="-20.90117" lon="55.37564">
        <ele>47</ele>
        <time>2013-01-07T05:16:30Z</time>
      </trkpt>
      <trkpt lat="-20.90111" lon="55.37565">
        <ele>45</ele>
        <time>2013-01-07T05:16:35Z</time>
      </trkpt>
      <trkpt lat="-20.90105" lon="55.37563">
        <ele>44</ele>
        <time>2013-01-07T05:16:40Z</time>
      </trkpt>
      <trkpt lat="-20.90101" lon="55.37561">
        <ele>43</ele>
        <time>2013-01-07T05:16:45Z</time>
      </trkpt>
      <trkpt lat="-20.90097" lon="55.37561">
        <ele>41</ele>
        <time>2013-01-07T05:16:50Z</time>
      </trkpt>
      <trkpt lat="-20.90093" lon="55.3756">
        <ele>40</ele>
        <time>2013-01-07T05:16:55Z</time>
      </trkpt>
      <trkpt lat="-20.90089" lon="55.3756">
        <ele>39</ele>
        <time>2013-01-07T05:17:00Z</time>
      </trkpt>
      <trkpt lat="-20.90084" lon="55.37562">
        <ele>39</ele>
        <time>2013-01-07T05:17:05Z</time>
      </trkpt>
      <trkpt lat="-20.9008" lon="55.37565">
        <ele>38</ele>
        <time>2013-01-07T05:17:10Z</time>
      </trkpt>
      <trkpt lat="-20.90079" lon="55.37566">
        <ele>38</ele>
        <time>2013-01-07T05:17:15Z</time>
      </trkpt>
      <trkpt lat="-20.90079" lon="55.37567">
        <ele>38</ele>
        <time>2013-01-07T05:17:20Z</time>
      </trkpt>
      <trkpt lat="-20.90078" lon="55.37568">
        <ele>38</ele>
        <time>2013-01-07T05:17:25Z</time>
      </trkpt>
      <trkpt lat="-20.90078" lon="55.37568">
        <ele>38</ele>
        <time>2013-01-07T05:17:30Z</time>
      </trkpt>
      <trkpt lat="-20.90075" lon="55.37568">
        <ele>38</ele>
        <time>2013-01-07T05:17:35Z</time>
      </trkpt>
      <trkpt lat="-20.90071" lon="55.37566">
        <ele>38</ele>
        <time>2013-01-07T05:17:40Z</time>
      </trkpt>
      <trkpt lat="-20.90065" lon="55.37562">
        <ele>39</ele>
        <time>2013-01-07T05:17:46Z</time>
      </trkpt>
      <trkpt lat="-20.90058" lon="55.37558">
        <ele>39</ele>
        <time>2013-01-07T05:17:51Z</time>
      </trkpt>
      <trkpt lat="-20.90051" lon="55.37554">
        <ele>39</ele>
        <time>2013-01-07T05:17:56Z</time>
      </trkpt>
      <trkpt lat="-20.90045" lon="55.3755">
        <ele>39</ele>
        <time>2013-01-07T05:18:01Z</time>
      </trkpt>
      <trkpt lat="-20.90038" lon="55.37546">
        <ele>40</ele>
        <time>2013-01-07T05:18:06Z</time>
      </trkpt>
      <trkpt lat="-20.90031" lon="55.37543">
        <ele>40</ele>
        <time>2013-01-07T05:18:11Z</time>
      </trkpt>
      <trkpt lat="-20.90023" lon="55.37539">
        <ele>40</ele>
        <time>2013-01-07T05:18:16Z</time>
      </trkpt>
      <trkpt lat="-20.90017" lon="55.37535">
        <ele>40</ele>
        <time>2013-01-07T05:18:21Z</time>
      </trkpt>
      <trkpt lat="-20.9001" lon="55.37532">
        <ele>40</ele>
        <time>2013-01-07T05:18:26Z</time>
      </trkpt>
      <trkpt lat="-20.90002" lon="55.37529">
        <ele>41</ele>
        <time>2013-01-07T05:18:31Z</time>
      </trkpt>
      <trkpt lat="-20.89996" lon="55.37526">
        <ele>40</ele>
        <time>2013-01-07T05:18:36Z</time>
      </trkpt>
      <trkpt lat="-20.89988" lon="55.37524">
        <ele>40</ele>
        <time>2013-01-07T05:18:41Z</time>
      </trkpt>
      <trkpt lat="-20.8998" lon="55.37522">
        <ele>40</ele>
        <time>2013-01-07T05:18:46Z</time>
      </trkpt>
      <trkpt lat="-20.89972" lon="55.3752">
        <ele>40</ele>
        <time>2013-01-07T05:18:51Z</time>
      </trkpt>
      <trkpt lat="-20.89965" lon="55.37519">
        <ele>39</ele>
        <time>2013-01-07T05:18:56Z</time>
      </trkpt>
      <trkpt lat="-20.89958" lon="55.37518">
        <ele>39</ele>
        <time>2013-01-07T05:19:01Z</time>
      </trkpt>
      <trkpt lat="-20.89951" lon="55.37516">
        <ele>38</ele>
        <time>2013-01-07T05:19:06Z</time>
      </trkpt>
      <trkpt lat="-20.89941" lon="55.37515">
        <ele>38</ele>
        <time>2013-01-07T05:19:11Z</time>
      </trkpt>
      <trkpt lat="-20.89934" lon="55.37513">
        <ele>37</ele>
        <time>2013-01-07T05:19:17Z</time>
      </trkpt>
      <trkpt lat="-20.89926" lon="55.37512">
        <ele>38</ele>
        <time>2013-01-07T05:19:22Z</time>
      </trkpt>
      <trkpt lat="-20.89919" lon="55.37514">
        <ele>37</ele>
        <time>2013-01-07T05:19:27Z</time>
      </trkpt>
      <trkpt lat="-20.89912" lon="55.37519">
        <ele>36</ele>
        <time>2013-01-07T05:19:32Z</time>
      </trkpt>
      <trkpt lat="-20.89906" lon="55.37525">
        <ele>36</ele>
        <time>2013-01-07T05:19:37Z</time>
      </trkpt>
      <trkpt lat="-20.899" lon="55.3753">
        <ele>35</ele>
        <time>2013-01-07T05:19:42Z</time>
      </trkpt>
      <trkpt lat="-20.89894" lon="55.37535">
        <ele>35</ele>
        <time>2013-01-07T05:19:47Z</time>
      </trkpt>
      <trkpt lat="-20.89887" lon="55.37539">
        <ele>35</ele>
        <time>2013-01-07T05:19:52Z</time>
      </trkpt>
      <trkpt lat="-20.89879" lon="55.37542">
        <ele>34</ele>
        <time>2013-01-07T05:19:57Z</time>
      </trkpt>
      <trkpt lat="-20.89872" lon="55.37544">
        <ele>34</ele>
        <time>2013-01-07T05:20:02Z</time>
      </trkpt>
      <trkpt lat="-20.89864" lon="55.37546">
        <ele>33</ele>
        <time>2013-01-07T05:20:07Z</time>
      </trkpt>
      <trkpt lat="-20.89857" lon="55.37547">
        <ele>33</ele>
        <time>2013-01-07T05:20:12Z</time>
      </trkpt>
      <trkpt lat="-20.89848" lon="55.37549">
        <ele>33</ele>
        <time>2013-01-07T05:20:18Z</time>
      </trkpt>
      <trkpt lat="-20.89841" lon="55.3755">
        <ele>32</ele>
        <time>2013-01-07T05:20:23Z</time>
      </trkpt>
      <trkpt lat="-20.89833" lon="55.37551">
        <ele>32</ele>
        <time>2013-01-07T05:20:28Z</time>
      </trkpt>
      <trkpt lat="-20.89825" lon="55.37552">
        <ele>32</ele>
        <time>2013-01-07T05:20:33Z</time>
      </trkpt>
      <trkpt lat="-20.89818" lon="55.37554">
        <ele>31</ele>
        <time>2013-01-07T05:20:38Z</time>
      </trkpt>
      <trkpt lat="-20.8981" lon="55.37555">
        <ele>31</ele>
        <time>2013-01-07T05:20:43Z</time>
      </trkpt>
      <trkpt lat="-20.89803" lon="55.37553">
        <ele>31</ele>
        <time>2013-01-07T05:20:48Z</time>
      </trkpt>
      <trkpt lat="-20.89795" lon="55.37552">
        <ele>31</ele>
        <time>2013-01-07T05:20:53Z</time>
      </trkpt>
      <trkpt lat="-20.89789" lon="55.3755">
        <ele>31</ele>
        <time>2013-01-07T05:20:58Z</time>
      </trkpt>
      <trkpt lat="-20.89783" lon="55.37547">
        <ele>30</ele>
        <time>2013-01-07T05:21:03Z</time>
      </trkpt>
      <trkpt lat="-20.89776" lon="55.37544">
        <ele>29</ele>
        <time>2013-01-07T05:21:08Z</time>
      </trkpt>
      <trkpt lat="-20.89761" lon="55.3754">
        <ele>28</ele>
        <time>2013-01-07T05:21:13Z</time>
      </trkpt>
      <trkpt lat="-20.89755" lon="55.37543">
        <ele>28</ele>
        <time>2013-01-07T05:21:18Z</time>
      </trkpt>
      <trkpt lat="-20.89749" lon="55.37543">
        <ele>28</ele>
        <time>2013-01-07T05:21:23Z</time>
      </trkpt>
      <trkpt lat="-20.89743" lon="55.3754">
        <ele>28</ele>
        <time>2013-01-07T05:21:29Z</time>
      </trkpt>
      <trkpt lat="-20.89736" lon="55.37537">
        <ele>28</ele>
        <time>2013-01-07T05:21:34Z</time>
      </trkpt>
      <trkpt lat="-20.8973" lon="55.37535">
        <ele>29</ele>
        <time>2013-01-07T05:21:39Z</time>
      </trkpt>
      <trkpt lat="-20.89723" lon="55.37533">
        <ele>29</ele>
        <time>2013-01-07T05:21:44Z</time>
      </trkpt>
      <trkpt lat="-20.89716" lon="55.37531">
        <ele>29</ele>
        <time>2013-01-07T05:21:49Z</time>
      </trkpt>
      <trkpt lat="-20.8971" lon="55.37529">
        <ele>29</ele>
        <time>2013-01-07T05:21:54Z</time>
      </trkpt>
      <trkpt lat="-20.89703" lon="55.37527">
        <ele>29</ele>
        <time>2013-01-07T05:21:59Z</time>
      </trkpt>
      <trkpt lat="-20.89696" lon="55.37531">
        <ele>29</ele>
        <time>2013-01-07T05:22:04Z</time>
      </trkpt>
      <trkpt lat="-20.89692" lon="55.37536">
        <ele>29</ele>
        <time>2013-01-07T05:22:09Z</time>
      </trkpt>
      <trkpt lat="-20.8969" lon="55.37543">
        <ele>30</ele>
        <time>2013-01-07T05:22:14Z</time>
      </trkpt>
      <trkpt lat="-20.8969" lon="55.37545">
        <ele>30</ele>
        <time>2013-01-07T05:22:19Z</time>
      </trkpt>
      <trkpt lat="-20.89684" lon="55.37549">
        <ele>30</ele>
        <time>2013-01-07T05:22:24Z</time>
      </trkpt>
      <trkpt lat="-20.8968" lon="55.37556">
        <ele>30</ele>
        <time>2013-01-07T05:22:29Z</time>
      </trkpt>
      <trkpt lat="-20.89676" lon="55.37565">
        <ele>30</ele>
        <time>2013-01-07T05:22:34Z</time>
      </trkpt>
      <trkpt lat="-20.89673" lon="55.37571">
        <ele>30</ele>
        <time>2013-01-07T05:22:40Z</time>
      </trkpt>
      <trkpt lat="-20.89669" lon="55.37579">
        <ele>30</ele>
        <time>2013-01-07T05:22:45Z</time>
      </trkpt>
      <trkpt lat="-20.89666" lon="55.37587">
        <ele>30</ele>
        <time>2013-01-07T05:22:50Z</time>
      </trkpt>
      <trkpt lat="-20.89664" lon="55.37595">
        <ele>29</ele>
        <time>2013-01-07T05:22:55Z</time>
      </trkpt>
      <trkpt lat="-20.89661" lon="55.37602">
        <ele>30</ele>
        <time>2013-01-07T05:23:00Z</time>
      </trkpt>
      <trkpt lat="-20.89658" lon="55.37609">
        <ele>30</ele>
        <time>2013-01-07T05:23:05Z</time>
      </trkpt>
      <trkpt lat="-20.89655" lon="55.37617">
        <ele>30</ele>
        <time>2013-01-07T05:23:10Z</time>
      </trkpt>
      <trkpt lat="-20.89651" lon="55.37627">
        <ele>30</ele>
        <time>2013-01-07T05:23:15Z</time>
      </trkpt>
      <trkpt lat="-20.89648" lon="55.37634">
        <ele>30</ele>
        <time>2013-01-07T05:23:20Z</time>
      </trkpt>
      <trkpt lat="-20.89646" lon="55.3764">
        <ele>30</ele>
        <time>2013-01-07T05:23:26Z</time>
      </trkpt>
      <trkpt lat="-20.89643" lon="55.37647">
        <ele>30</ele>
        <time>2013-01-07T05:23:31Z</time>
      </trkpt>
      <trkpt lat="-20.89639" lon="55.37653">
        <ele>30</ele>
        <time>2013-01-07T05:23:36Z</time>
      </trkpt>
      <trkpt lat="-20.89634" lon="55.37659">
        <ele>31</ele>
        <time>2013-01-07T05:23:41Z</time>
      </trkpt>
      <trkpt lat="-20.8963" lon="55.37666">
        <ele>31</ele>
        <time>2013-01-07T05:23:46Z</time>
      </trkpt>
      <trkpt lat="-20.89626" lon="55.37673">
        <ele>30</ele>
        <time>2013-01-07T05:23:51Z</time>
      </trkpt>
      <trkpt lat="-20.8962" lon="55.37679">
        <ele>31</ele>
        <time>2013-01-07T05:23:56Z</time>
      </trkpt>
      <trkpt lat="-20.89615" lon="55.37685">
        <ele>31</ele>
        <time>2013-01-07T05:24:01Z</time>
      </trkpt>
      <trkpt lat="-20.89609" lon="55.37691">
        <ele>31</ele>
        <time>2013-01-07T05:24:06Z</time>
      </trkpt>
      <trkpt lat="-20.89603" lon="55.37696">
        <ele>31</ele>
        <time>2013-01-07T05:24:11Z</time>
      </trkpt>
      <trkpt lat="-20.89598" lon="55.37701">
        <ele>31</ele>
        <time>2013-01-07T05:24:16Z</time>
      </trkpt>
      <trkpt lat="-20.89593" lon="55.37706">
        <ele>31</ele>
        <time>2013-01-07T05:24:21Z</time>
      </trkpt>
      <trkpt lat="-20.89585" lon="55.37711">
        <ele>31</ele>
        <time>2013-01-07T05:24:26Z</time>
      </trkpt>
      <trkpt lat="-20.89578" lon="55.37717">
        <ele>31</ele>
        <time>2013-01-07T05:24:32Z</time>
      </trkpt>
      <trkpt lat="-20.89571" lon="55.37721">
        <ele>31</ele>
        <time>2013-01-07T05:24:37Z</time>
      </trkpt>
      <trkpt lat="-20.89564" lon="55.37725">
        <ele>32</ele>
        <time>2013-01-07T05:24:42Z</time>
      </trkpt>
      <trkpt lat="-20.89558" lon="55.37729">
        <ele>32</ele>
        <time>2013-01-07T05:24:47Z</time>
      </trkpt>
      <trkpt lat="-20.89551" lon="55.37732">
        <ele>31</ele>
        <time>2013-01-07T05:24:52Z</time>
      </trkpt>
      <trkpt lat="-20.89544" lon="55.37738">
        <ele>31</ele>
        <time>2013-01-07T05:24:57Z</time>
      </trkpt>
      <trkpt lat="-20.89537" lon="55.37743">
        <ele>31</ele>
        <time>2013-01-07T05:25:02Z</time>
      </trkpt>
      <trkpt lat="-20.89532" lon="55.37748">
        <ele>31</ele>
        <time>2013-01-07T05:25:07Z</time>
      </trkpt>
      <trkpt lat="-20.89532" lon="55.37755">
        <ele>31</ele>
        <time>2013-01-07T05:25:12Z</time>
      </trkpt>
      <trkpt lat="-20.89533" lon="55.37761">
        <ele>32</ele>
        <time>2013-01-07T05:25:17Z</time>
      </trkpt>
      <trkpt lat="-20.89531" lon="55.37767">
        <ele>33</ele>
        <time>2013-01-07T05:25:22Z</time>
      </trkpt>
      <trkpt lat="-20.89529" lon="55.37772">
        <ele>34</ele>
        <time>2013-01-07T05:25:27Z</time>
      </trkpt>
      <trkpt lat="-20.89528" lon="55.37777">
        <ele>35</ele>
        <time>2013-01-07T05:25:32Z</time>
      </trkpt>
      <trkpt lat="-20.89528" lon="55.37781">
        <ele>36</ele>
        <time>2013-01-07T05:25:37Z</time>
      </trkpt>
      <trkpt lat="-20.89528" lon="55.37784">
        <ele>37</ele>
        <time>2013-01-07T05:25:42Z</time>
      </trkpt>
      <trkpt lat="-20.89529" lon="55.37788">
        <ele>38</ele>
        <time>2013-01-07T05:25:47Z</time>
      </trkpt>
      <trkpt lat="-20.89531" lon="55.37792">
        <ele>40</ele>
        <time>2013-01-07T05:25:53Z</time>
      </trkpt>
      <trkpt lat="-20.89532" lon="55.37794">
        <ele>41</ele>
        <time>2013-01-07T05:25:58Z</time>
      </trkpt>
      <trkpt lat="-20.89533" lon="55.37797">
        <ele>42</ele>
        <time>2013-01-07T05:26:03Z</time>
      </trkpt>
      <trkpt lat="-20.89535" lon="55.37801">
        <ele>43</ele>
        <time>2013-01-07T05:26:08Z</time>
      </trkpt>
      <trkpt lat="-20.89537" lon="55.37804">
        <ele>44</ele>
        <time>2013-01-07T05:26:13Z</time>
      </trkpt>
      <trkpt lat="-20.89539" lon="55.37807">
        <ele>45</ele>
        <time>2013-01-07T05:26:18Z</time>
      </trkpt>
      <trkpt lat="-20.89541" lon="55.37811">
        <ele>45</ele>
        <time>2013-01-07T05:26:23Z</time>
      </trkpt>
      <trkpt lat="-20.89543" lon="55.37814">
        <ele>47</ele>
        <time>2013-01-07T05:26:28Z</time>
      </trkpt>
      <trkpt lat="-20.89545" lon="55.37818">
        <ele>48</ele>
        <time>2013-01-07T05:26:33Z</time>
      </trkpt>
      <trkpt lat="-20.89546" lon="55.37822">
        <ele>49</ele>
        <time>2013-01-07T05:26:38Z</time>
      </trkpt>
      <trkpt lat="-20.89546" lon="55.37825">
        <ele>50</ele>
        <time>2013-01-07T05:26:43Z</time>
      </trkpt>
      <trkpt lat="-20.89547" lon="55.3783">
        <ele>51</ele>
        <time>2013-01-07T05:26:48Z</time>
      </trkpt>
      <trkpt lat="-20.89547" lon="55.37832">
        <ele>51</ele>
        <time>2013-01-07T05:26:53Z</time>
      </trkpt>
      <trkpt lat="-20.89547" lon="55.37836">
        <ele>53</ele>
        <time>2013-01-07T05:26:58Z</time>
      </trkpt>
      <trkpt lat="-20.89548" lon="55.3784">
        <ele>54</ele>
        <time>2013-01-07T05:27:03Z</time>
      </trkpt>
      <trkpt lat="-20.89548" lon="55.37843">
        <ele>55</ele>
        <time>2013-01-07T05:27:09Z</time>
      </trkpt>
      <trkpt lat="-20.89548" lon="55.37847">
        <ele>56</ele>
        <time>2013-01-07T05:27:14Z</time>
      </trkpt>
      <trkpt lat="-20.89549" lon="55.37851">
        <ele>57</ele>
        <time>2013-01-07T05:27:19Z</time>
      </trkpt>
      <trkpt lat="-20.89548" lon="55.37855">
        <ele>58</ele>
        <time>2013-01-07T05:27:24Z</time>
      </trkpt>
      <trkpt lat="-20.89545" lon="55.37858">
        <ele>58</ele>
        <time>2013-01-07T05:27:29Z</time>
      </trkpt>
      <trkpt lat="-20.89541" lon="55.37859">
        <ele>59</ele>
        <time>2013-01-07T05:27:34Z</time>
      </trkpt>
      <trkpt lat="-20.89537" lon="55.37859">
        <ele>60</ele>
        <time>2013-01-07T05:27:39Z</time>
      </trkpt>
      <trkpt lat="-20.89533" lon="55.3786">
        <ele>61</ele>
        <time>2013-01-07T05:27:44Z</time>
      </trkpt>
      <trkpt lat="-20.89528" lon="55.37861">
        <ele>61</ele>
        <time>2013-01-07T05:27:49Z</time>
      </trkpt>
      <trkpt lat="-20.89524" lon="55.37862">
        <ele>62</ele>
        <time>2013-01-07T05:27:54Z</time>
      </trkpt>
      <trkpt lat="-20.8952" lon="55.37863">
        <ele>63</ele>
        <time>2013-01-07T05:27:59Z</time>
      </trkpt>
      <trkpt lat="-20.89515" lon="55.37864">
        <ele>64</ele>
        <time>2013-01-07T05:28:04Z</time>
      </trkpt>
      <trkpt lat="-20.89511" lon="55.37865">
        <ele>65</ele>
        <time>2013-01-07T05:28:10Z</time>
      </trkpt>
      <trkpt lat="-20.89507" lon="55.37865">
        <ele>66</ele>
        <time>2013-01-07T05:28:15Z</time>
      </trkpt>
      <trkpt lat="-20.89503" lon="55.37866">
        <ele>66</ele>
        <time>2013-01-07T05:28:20Z</time>
      </trkpt>
      <trkpt lat="-20.89499" lon="55.37867">
        <ele>68</ele>
        <time>2013-01-07T05:28:25Z</time>
      </trkpt>
      <trkpt lat="-20.89495" lon="55.37867">
        <ele>69</ele>
        <time>2013-01-07T05:28:30Z</time>
      </trkpt>
      <trkpt lat="-20.89491" lon="55.37868">
        <ele>70</ele>
        <time>2013-01-07T05:28:35Z</time>
      </trkpt>
      <trkpt lat="-20.89492" lon="55.37872">
        <ele>71</ele>
        <time>2013-01-07T05:28:40Z</time>
      </trkpt>
      <trkpt lat="-20.89495" lon="55.37875">
        <ele>72</ele>
        <time>2013-01-07T05:28:45Z</time>
      </trkpt>
      <trkpt lat="-20.89497" lon="55.37879">
        <ele>73</ele>
        <time>2013-01-07T05:28:50Z</time>
      </trkpt>
      <trkpt lat="-20.895" lon="55.37882">
        <ele>74</ele>
        <time>2013-01-07T05:28:55Z</time>
      </trkpt>
      <trkpt lat="-20.89502" lon="55.37886">
        <ele>75</ele>
        <time>2013-01-07T05:29:00Z</time>
      </trkpt>
      <trkpt lat="-20.89503" lon="55.37888">
        <ele>76</ele>
        <time>2013-01-07T05:29:05Z</time>
      </trkpt>
      <trkpt lat="-20.89505" lon="55.37892">
        <ele>77</ele>
        <time>2013-01-07T05:29:10Z</time>
      </trkpt>
      <trkpt lat="-20.89507" lon="55.37896">
        <ele>78</ele>
        <time>2013-01-07T05:29:15Z</time>
      </trkpt>
      <trkpt lat="-20.89509" lon="55.379">
        <ele>79</ele>
        <time>2013-01-07T05:29:21Z</time>
      </trkpt>
      <trkpt lat="-20.8951" lon="55.37904">
        <ele>80</ele>
        <time>2013-01-07T05:29:26Z</time>
      </trkpt>
      <trkpt lat="-20.89512" lon="55.37908">
        <ele>81</ele>
        <time>2013-01-07T05:29:31Z</time>
      </trkpt>
      <trkpt lat="-20.89513" lon="55.37912">
        <ele>82</ele>
        <time>2013-01-07T05:29:36Z</time>
      </trkpt>
      <trkpt lat="-20.89513" lon="55.37916">
        <ele>83</ele>
        <time>2013-01-07T05:29:41Z</time>
      </trkpt>
      <trkpt lat="-20.89514" lon="55.3792">
        <ele>84</ele>
        <time>2013-01-07T05:29:46Z</time>
      </trkpt>
      <trkpt lat="-20.89514" lon="55.37923">
        <ele>85</ele>
        <time>2013-01-07T05:29:51Z</time>
      </trkpt>
      <trkpt lat="-20.89515" lon="55.37925">
        <ele>87</ele>
        <time>2013-01-07T05:29:56Z</time>
      </trkpt>
      <trkpt lat="-20.89515" lon="55.3793">
        <ele>87</ele>
        <time>2013-01-07T05:30:01Z</time>
      </trkpt>
      <trkpt lat="-20.89516" lon="55.37933">
        <ele>88</ele>
        <time>2013-01-07T05:30:07Z</time>
      </trkpt>
      <trkpt lat="-20.89516" lon="55.37936">
        <ele>89</ele>
        <time>2013-01-07T05:30:12Z</time>
      </trkpt>
      <trkpt lat="-20.89517" lon="55.37939">
        <ele>90</ele>
        <time>2013-01-07T05:30:17Z</time>
      </trkpt>
      <trkpt lat="-20.89517" lon="55.37943">
        <ele>92</ele>
        <time>2013-01-07T05:30:22Z</time>
      </trkpt>
      <trkpt lat="-20.89518" lon="55.37946">
        <ele>93</ele>
        <time>2013-01-07T05:30:27Z</time>
      </trkpt>
      <trkpt lat="-20.89519" lon="55.3795">
        <ele>94</ele>
        <time>2013-01-07T05:30:32Z</time>
      </trkpt>
      <trkpt lat="-20.89522" lon="55.37954">
        <ele>94</ele>
        <time>2013-01-07T05:30:37Z</time>
      </trkpt>
      <trkpt lat="-20.89525" lon="55.37958">
        <ele>95</ele>
        <time>2013-01-07T05:30:42Z</time>
      </trkpt>
      <trkpt lat="-20.89527" lon="55.37962">
        <ele>97</ele>
        <time>2013-01-07T05:30:47Z</time>
      </trkpt>
      <trkpt lat="-20.89527" lon="55.37965">
        <ele>97</ele>
        <time>2013-01-07T05:30:52Z</time>
      </trkpt>
      <trkpt lat="-20.89524" lon="55.37966">
        <ele>98</ele>
        <time>2013-01-07T05:30:57Z</time>
      </trkpt>
      <trkpt lat="-20.89518" lon="55.37963">
        <ele>99</ele>
        <time>2013-01-07T05:31:03Z</time>
      </trkpt>
      <trkpt lat="-20.89515" lon="55.37961">
        <ele>100</ele>
        <time>2013-01-07T05:31:08Z</time>
      </trkpt>
      <trkpt lat="-20.89511" lon="55.37959">
        <ele>101</ele>
        <time>2013-01-07T05:31:13Z</time>
      </trkpt>
      <trkpt lat="-20.89508" lon="55.37956">
        <ele>102</ele>
        <time>2013-01-07T05:31:18Z</time>
      </trkpt>
      <trkpt lat="-20.89506" lon="55.37952">
        <ele>103</ele>
        <time>2013-01-07T05:31:23Z</time>
      </trkpt>
      <trkpt lat="-20.89503" lon="55.37949">
        <ele>104</ele>
        <time>2013-01-07T05:31:28Z</time>
      </trkpt>
      <trkpt lat="-20.89499" lon="55.37948">
        <ele>105</ele>
        <time>2013-01-07T05:31:33Z</time>
      </trkpt>
      <trkpt lat="-20.89495" lon="55.37948">
        <ele>105</ele>
        <time>2013-01-07T05:31:38Z</time>
      </trkpt>
      <trkpt lat="-20.89491" lon="55.37947">
        <ele>106</ele>
        <time>2013-01-07T05:31:43Z</time>
      </trkpt>
      <trkpt lat="-20.89487" lon="55.37947">
        <ele>107</ele>
        <time>2013-01-07T05:31:48Z</time>
      </trkpt>
      <trkpt lat="-20.89483" lon="55.37947">
        <ele>108</ele>
        <time>2013-01-07T05:31:53Z</time>
      </trkpt>
      <trkpt lat="-20.89479" lon="55.37944">
        <ele>109</ele>
        <time>2013-01-07T05:31:58Z</time>
      </trkpt>
      <trkpt lat="-20.89475" lon="55.37944">
        <ele>111</ele>
        <time>2013-01-07T05:32:03Z</time>
      </trkpt>
      <trkpt lat="-20.89471" lon="55.37943">
        <ele>111</ele>
        <time>2013-01-07T05:32:08Z</time>
      </trkpt>
      <trkpt lat="-20.89467" lon="55.37942">
        <ele>113</ele>
        <time>2013-01-07T05:32:13Z</time>
      </trkpt>
      <trkpt lat="-20.89462" lon="55.37942">
        <ele>113</ele>
        <time>2013-01-07T05:32:18Z</time>
      </trkpt>
      <trkpt lat="-20.89458" lon="55.37941">
        <ele>114</ele>
        <time>2013-01-07T05:32:23Z</time>
      </trkpt>
      <trkpt lat="-20.89454" lon="55.37941">
        <ele>115</ele>
        <time>2013-01-07T05:32:28Z</time>
      </trkpt>
      <trkpt lat="-20.8945" lon="55.3794">
        <ele>116</ele>
        <time>2013-01-07T05:32:33Z</time>
      </trkpt>
      <trkpt lat="-20.89445" lon="55.3794">
        <ele>117</ele>
        <time>2013-01-07T05:32:38Z</time>
      </trkpt>
      <trkpt lat="-20.8944" lon="55.37939">
        <ele>118</ele>
        <time>2013-01-07T05:32:43Z</time>
      </trkpt>
      <trkpt lat="-20.89436" lon="55.3794">
        <ele>118</ele>
        <time>2013-01-07T05:32:49Z</time>
      </trkpt>
      <trkpt lat="-20.89435" lon="55.37944">
        <ele>120</ele>
        <time>2013-01-07T05:32:54Z</time>
      </trkpt>
      <trkpt lat="-20.89438" lon="55.37947">
        <ele>121</ele>
        <time>2013-01-07T05:32:59Z</time>
      </trkpt>
      <trkpt lat="-20.89441" lon="55.37951">
        <ele>122</ele>
        <time>2013-01-07T05:33:04Z</time>
      </trkpt>
      <trkpt lat="-20.89444" lon="55.37955">
        <ele>122</ele>
        <time>2013-01-07T05:33:09Z</time>
      </trkpt>
      <trkpt lat="-20.89447" lon="55.37959">
        <ele>123</ele>
        <time>2013-01-07T05:33:14Z</time>
      </trkpt>
      <trkpt lat="-20.8945" lon="55.37962">
        <ele>124</ele>
        <time>2013-01-07T05:33:19Z</time>
      </trkpt>
      <trkpt lat="-20.89452" lon="55.37966">
        <ele>125</ele>
        <time>2013-01-07T05:33:24Z</time>
      </trkpt>
      <trkpt lat="-20.89454" lon="55.3797">
        <ele>126</ele>
        <time>2013-01-07T05:33:29Z</time>
      </trkpt>
      <trkpt lat="-20.89456" lon="55.37973">
        <ele>127</ele>
        <time>2013-01-07T05:33:34Z</time>
      </trkpt>
      <trkpt lat="-20.89458" lon="55.37976">
        <ele>128</ele>
        <time>2013-01-07T05:33:39Z</time>
      </trkpt>
      <trkpt lat="-20.8946" lon="55.3798">
        <ele>129</ele>
        <time>2013-01-07T05:33:44Z</time>
      </trkpt>
      <trkpt lat="-20.89462" lon="55.37983">
        <ele>130</ele>
        <time>2013-01-07T05:33:49Z</time>
      </trkpt>
      <trkpt lat="-20.89465" lon="55.37986">
        <ele>131</ele>
        <time>2013-01-07T05:33:54Z</time>
      </trkpt>
      <trkpt lat="-20.89467" lon="55.37991">
        <ele>133</ele>
        <time>2013-01-07T05:33:59Z</time>
      </trkpt>
      <trkpt lat="-20.89469" lon="55.37995">
        <ele>134</ele>
        <time>2013-01-07T05:34:05Z</time>
      </trkpt>
      <trkpt lat="-20.89471" lon="55.37998">
        <ele>135</ele>
        <time>2013-01-07T05:34:10Z</time>
      </trkpt>
      <trkpt lat="-20.89473" lon="55.38002">
        <ele>136</ele>
        <time>2013-01-07T05:34:15Z</time>
      </trkpt>
      <trkpt lat="-20.89471" lon="55.38004">
        <ele>137</ele>
        <time>2013-01-07T05:34:20Z</time>
      </trkpt>
      <trkpt lat="-20.89468" lon="55.38006">
        <ele>138</ele>
        <time>2013-01-07T05:34:25Z</time>
      </trkpt>
      <trkpt lat="-20.89464" lon="55.38005">
        <ele>139</ele>
        <time>2013-01-07T05:34:30Z</time>
      </trkpt>
      <trkpt lat="-20.8946" lon="55.38005">
        <ele>140</ele>
        <time>2013-01-07T05:34:35Z</time>
      </trkpt>
      <trkpt lat="-20.89457" lon="55.38004">
        <ele>141</ele>
        <time>2013-01-07T05:34:40Z</time>
      </trkpt>
      <trkpt lat="-20.89453" lon="55.38003">
        <ele>142</ele>
        <time>2013-01-07T05:34:45Z</time>
      </trkpt>
      <trkpt lat="-20.89449" lon="55.38001">
        <ele>143</ele>
        <time>2013-01-07T05:34:50Z</time>
      </trkpt>
      <trkpt lat="-20.89445" lon="55.38">
        <ele>143</ele>
        <time>2013-01-07T05:34:55Z</time>
      </trkpt>
      <trkpt lat="-20.89441" lon="55.37999">
        <ele>144</ele>
        <time>2013-01-07T05:35:00Z</time>
      </trkpt>
      <trkpt lat="-20.8944" lon="55.38002">
        <ele>146</ele>
        <time>2013-01-07T05:35:06Z</time>
      </trkpt>
      <trkpt lat="-20.89442" lon="55.38005">
        <ele>146</ele>
        <time>2013-01-07T05:35:11Z</time>
      </trkpt>
      <trkpt lat="-20.89444" lon="55.38007">
        <ele>147</ele>
        <time>2013-01-07T05:35:16Z</time>
      </trkpt>
      <trkpt lat="-20.89446" lon="55.38009">
        <ele>148</ele>
        <time>2013-01-07T05:35:21Z</time>
      </trkpt>
      <trkpt lat="-20.89448" lon="55.38012">
        <ele>149</ele>
        <time>2013-01-07T05:35:26Z</time>
      </trkpt>
      <trkpt lat="-20.8945" lon="55.38015">
        <ele>150</ele>
        <time>2013-01-07T05:35:31Z</time>
      </trkpt>
      <trkpt lat="-20.89452" lon="55.38018">
        <ele>151</ele>
        <time>2013-01-07T05:35:36Z</time>
      </trkpt>
      <trkpt lat="-20.89455" lon="55.38022">
        <ele>152</ele>
        <time>2013-01-07T05:35:41Z</time>
      </trkpt>
      <trkpt lat="-20.89458" lon="55.38025">
        <ele>153</ele>
        <time>2013-01-07T05:35:46Z</time>
      </trkpt>
      <trkpt lat="-20.8946" lon="55.38029">
        <ele>154</ele>
        <time>2013-01-07T05:35:52Z</time>
      </trkpt>
      <trkpt lat="-20.89462" lon="55.38032">
        <ele>154</ele>
        <time>2013-01-07T05:35:57Z</time>
      </trkpt>
      <trkpt lat="-20.89465" lon="55.38035">
        <ele>156</ele>
        <time>2013-01-07T05:36:02Z</time>
      </trkpt>
      <trkpt lat="-20.89466" lon="55.38038">
        <ele>157</ele>
        <time>2013-01-07T05:36:07Z</time>
      </trkpt>
      <trkpt lat="-20.89469" lon="55.38042">
        <ele>158</ele>
        <time>2013-01-07T05:36:12Z</time>
      </trkpt>
      <trkpt lat="-20.89471" lon="55.38044">
        <ele>159</ele>
        <time>2013-01-07T05:36:17Z</time>
      </trkpt>
      <trkpt lat="-20.89473" lon="55.38047">
        <ele>160</ele>
        <time>2013-01-07T05:36:22Z</time>
      </trkpt>
      <trkpt lat="-20.89473" lon="55.38051">
        <ele>161</ele>
        <time>2013-01-07T05:36:27Z</time>
      </trkpt>
      <trkpt lat="-20.89474" lon="55.38053">
        <ele>161</ele>
        <time>2013-01-07T05:36:32Z</time>
      </trkpt>
      <trkpt lat="-20.89477" lon="55.38056">
        <ele>162</ele>
        <time>2013-01-07T05:36:37Z</time>
      </trkpt>
      <trkpt lat="-20.89479" lon="55.38059">
        <ele>163</ele>
        <time>2013-01-07T05:36:42Z</time>
      </trkpt>
      <trkpt lat="-20.89479" lon="55.38061">
        <ele>164</ele>
        <time>2013-01-07T05:36:47Z</time>
      </trkpt>
      <trkpt lat="-20.89476" lon="55.38063">
        <ele>166</ele>
        <time>2013-01-07T05:36:52Z</time>
      </trkpt>
      <trkpt lat="-20.89473" lon="55.38062">
        <ele>166</ele>
        <time>2013-01-07T05:36:57Z</time>
      </trkpt>
      <trkpt lat="-20.89468" lon="55.38062">
        <ele>167</ele>
        <time>2013-01-07T05:37:02Z</time>
      </trkpt>
      <trkpt lat="-20.89463" lon="55.3806">
        <ele>167</ele>
        <time>2013-01-07T05:37:07Z</time>
      </trkpt>
      <trkpt lat="-20.89458" lon="55.38058">
        <ele>168</ele>
        <time>2013-01-07T05:37:12Z</time>
      </trkpt>
      <trkpt lat="-20.89455" lon="55.38056">
        <ele>169</ele>
        <time>2013-01-07T05:37:17Z</time>
      </trkpt>
      <trkpt lat="-20.89451" lon="55.38056">
        <ele>170</ele>
        <time>2013-01-07T05:37:22Z</time>
      </trkpt>
      <trkpt lat="-20.89447" lon="55.38054">
        <ele>171</ele>
        <time>2013-01-07T05:37:27Z</time>
      </trkpt>
      <trkpt lat="-20.89443" lon="55.38052">
        <ele>171</ele>
        <time>2013-01-07T05:37:32Z</time>
      </trkpt>
      <trkpt lat="-20.89438" lon="55.3805">
        <ele>172</ele>
        <time>2013-01-07T05:37:37Z</time>
      </trkpt>
      <trkpt lat="-20.89434" lon="55.38048">
        <ele>173</ele>
        <time>2013-01-07T05:37:42Z</time>
      </trkpt>
      <trkpt lat="-20.89429" lon="55.38047">
        <ele>174</ele>
        <time>2013-01-07T05:37:47Z</time>
      </trkpt>
      <trkpt lat="-20.89425" lon="55.38046">
        <ele>175</ele>
        <time>2013-01-07T05:37:53Z</time>
      </trkpt>
      <trkpt lat="-20.89422" lon="55.38046">
        <ele>175</ele>
        <time>2013-01-07T05:37:58Z</time>
      </trkpt>
      <trkpt lat="-20.8942" lon="55.38047">
        <ele>176</ele>
        <time>2013-01-07T05:38:03Z</time>
      </trkpt>
      <trkpt lat="-20.8942" lon="55.38047">
        <ele>177</ele>
        <time>2013-01-07T05:38:08Z</time>
      </trkpt>
      <trkpt lat="-20.8942" lon="55.38047">
        <ele>177</ele>
        <time>2013-01-07T05:38:13Z</time>
      </trkpt>
      <trkpt lat="-20.8942" lon="55.38047">
        <ele>177</ele>
        <time>2013-01-07T05:38:18Z</time>
      </trkpt>
      <trkpt lat="-20.89421" lon="55.38047">
        <ele>176</ele>
        <time>2013-01-07T05:38:23Z</time>
      </trkpt>
      <trkpt lat="-20.89421" lon="55.38049">
        <ele>177</ele>
        <time>2013-01-07T05:38:28Z</time>
      </trkpt>
      <trkpt lat="-20.89421" lon="55.3805">
        <ele>177</ele>
        <time>2013-01-07T05:38:33Z</time>
      </trkpt>
      <trkpt lat="-20.89421" lon="55.38051">
        <ele>177</ele>
        <time>2013-01-07T05:38:38Z</time>
      </trkpt>
      <trkpt lat="-20.89421" lon="55.38052">
        <ele>176</ele>
        <time>2013-01-07T05:38:43Z</time>
      </trkpt>
      <trkpt lat="-20.89421" lon="55.38053">
        <ele>177</ele>
        <time>2013-01-07T05:38:48Z</time>
      </trkpt>
      <trkpt lat="-20.89421" lon="55.38055">
        <ele>177</ele>
        <time>2013-01-07T05:38:54Z</time>
      </trkpt>
      <trkpt lat="-20.8942" lon="55.38056">
        <ele>177</ele>
        <time>2013-01-07T05:38:59Z</time>
      </trkpt>
      <trkpt lat="-20.8942" lon="55.38057">
        <ele>177</ele>
        <time>2013-01-07T05:39:04Z</time>
      </trkpt>
      <trkpt lat="-20.8942" lon="55.38057">
        <ele>177</ele>
        <time>2013-01-07T05:39:09Z</time>
      </trkpt>
      <trkpt lat="-20.89421" lon="55.38057">
        <ele>177</ele>
        <time>2013-01-07T05:39:14Z</time>
      </trkpt>
      <trkpt lat="-20.89421" lon="55.38058">
        <ele>177</ele>
        <time>2013-01-07T05:39:19Z</time>
      </trkpt>
      <trkpt lat="-20.89421" lon="55.38059">
        <ele>177</ele>
        <time>2013-01-07T05:39:24Z</time>
      </trkpt>
      <trkpt lat="-20.89421" lon="55.38059">
        <ele>177</ele>
        <time>2013-01-07T05:39:29Z</time>
      </trkpt>
      <trkpt lat="-20.89421" lon="55.3806">
        <ele>176</ele>
        <time>2013-01-07T05:39:34Z</time>
      </trkpt>
      <trkpt lat="-20.89421" lon="55.3806">
        <ele>177</ele>
        <time>2013-01-07T05:39:39Z</time>
      </trkpt>
      <trkpt lat="-20.89421" lon="55.38059">
        <ele>177</ele>
        <time>2013-01-07T05:39:44Z</time>
      </trkpt>
      <trkpt lat="-20.89421" lon="55.38058">
        <ele>177</ele>
        <time>2013-01-07T05:39:49Z</time>
      </trkpt>
      <trkpt lat="-20.89422" lon="55.38058">
        <ele>177</ele>
        <time>2013-01-07T05:39:54Z</time>
      </trkpt>
      <trkpt lat="-20.89422" lon="55.38058">
        <ele>177</ele>
        <time>2013-01-07T05:39:59Z</time>
      </trkpt>
      <trkpt lat="-20.89423" lon="55.38057">
        <ele>177</ele>
        <time>2013-01-07T05:40:04Z</time>
      </trkpt>
      <trkpt lat="-20.89422" lon="55.38056">
        <ele>177</ele>
        <time>2013-01-07T05:40:09Z</time>
      </trkpt>
      <trkpt lat="-20.89418" lon="55.38056">
        <ele>177</ele>
        <time>2013-01-07T05:40:14Z</time>
      </trkpt>
      <trkpt lat="-20.89416" lon="55.38058">
        <ele>178</ele>
        <time>2013-01-07T05:40:19Z</time>
      </trkpt>
      <trkpt lat="-20.89418" lon="55.38062">
        <ele>179</ele>
        <time>2013-01-07T05:40:25Z</time>
      </trkpt>
      <trkpt lat="-20.89419" lon="55.38063">
        <ele>180</ele>
        <time>2013-01-07T05:40:30Z</time>
      </trkpt>
      <trkpt lat="-20.89421" lon="55.38065">
        <ele>181</ele>
        <time>2013-01-07T05:40:35Z</time>
      </trkpt>
      <trkpt lat="-20.89422" lon="55.38068">
        <ele>182</ele>
        <time>2013-01-07T05:40:40Z</time>
      </trkpt>
      <trkpt lat="-20.89425" lon="55.38069">
        <ele>183</ele>
        <time>2013-01-07T05:40:45Z</time>
      </trkpt>
      <trkpt lat="-20.89427" lon="55.38071">
        <ele>185</ele>
        <time>2013-01-07T05:40:50Z</time>
      </trkpt>
      <trkpt lat="-20.89429" lon="55.38073">
        <ele>185</ele>
        <time>2013-01-07T05:40:55Z</time>
      </trkpt>
      <trkpt lat="-20.89432" lon="55.38076">
        <ele>186</ele>
        <time>2013-01-07T05:41:00Z</time>
      </trkpt>
      <trkpt lat="-20.89434" lon="55.38077">
        <ele>187</ele>
        <time>2013-01-07T05:41:05Z</time>
      </trkpt>
      <trkpt lat="-20.89436" lon="55.38079">
        <ele>187</ele>
        <time>2013-01-07T05:41:10Z</time>
      </trkpt>
      <trkpt lat="-20.89438" lon="55.38081">
        <ele>189</ele>
        <time>2013-01-07T05:41:15Z</time>
      </trkpt>
      <trkpt lat="-20.89436" lon="55.38083">
        <ele>190</ele>
        <time>2013-01-07T05:41:21Z</time>
      </trkpt>
      <trkpt lat="-20.89433" lon="55.38083">
        <ele>191</ele>
        <time>2013-01-07T05:41:26Z</time>
      </trkpt>
      <trkpt lat="-20.89429" lon="55.38082">
        <ele>192</ele>
        <time>2013-01-07T05:41:31Z</time>
      </trkpt>
      <trkpt lat="-20.89426" lon="55.38082">
        <ele>193</ele>
        <time>2013-01-07T05:41:36Z</time>
      </trkpt>
      <trkpt lat="-20.89423" lon="55.38082">
        <ele>193</ele>
        <time>2013-01-07T05:41:41Z</time>
      </trkpt>
      <trkpt lat="-20.8942" lon="55.38082">
        <ele>194</ele>
        <time>2013-01-07T05:41:46Z</time>
      </trkpt>
      <trkpt lat="-20.89418" lon="55.38084">
        <ele>195</ele>
        <time>2013-01-07T05:41:51Z</time>
      </trkpt>
      <trkpt lat="-20.89419" lon="55.38086">
        <ele>197</ele>
        <time>2013-01-07T05:41:56Z</time>
      </trkpt>
      <trkpt lat="-20.8942" lon="55.38089">
        <ele>198</ele>
        <time>2013-01-07T05:42:01Z</time>
      </trkpt>
      <trkpt lat="-20.89422" lon="55.38092">
        <ele>198</ele>
        <time>2013-01-07T05:42:06Z</time>
      </trkpt>
      <trkpt lat="-20.89421" lon="55.38093">
        <ele>199</ele>
        <time>2013-01-07T05:42:11Z</time>
      </trkpt>
      <trkpt lat="-20.89417" lon="55.38093">
        <ele>201</ele>
        <time>2013-01-07T05:42:16Z</time>
      </trkpt>
      <trkpt lat="-20.89412" lon="55.38092">
        <ele>201</ele>
        <time>2013-01-07T05:42:21Z</time>
      </trkpt>
      <trkpt lat="-20.89408" lon="55.38091">
        <ele>202</ele>
        <time>2013-01-07T05:42:26Z</time>
      </trkpt>
      <trkpt lat="-20.89404" lon="55.38091">
        <ele>202</ele>
        <time>2013-01-07T05:42:31Z</time>
      </trkpt>
      <trkpt lat="-20.89399" lon="55.3809">
        <ele>204</ele>
        <time>2013-01-07T05:42:36Z</time>
      </trkpt>
      <trkpt lat="-20.89394" lon="55.38089">
        <ele>205</ele>
        <time>2013-01-07T05:42:41Z</time>
      </trkpt>
      <trkpt lat="-20.8939" lon="55.38089">
        <ele>205</ele>
        <time>2013-01-07T05:42:46Z</time>
      </trkpt>
      <trkpt lat="-20.89387" lon="55.38092">
        <ele>206</ele>
        <time>2013-01-07T05:42:52Z</time>
      </trkpt>
      <trkpt lat="-20.89389" lon="55.38096">
        <ele>207</ele>
        <time>2013-01-07T05:42:57Z</time>
      </trkpt>
      <trkpt lat="-20.89393" lon="55.38098">
        <ele>208</ele>
        <time>2013-01-07T05:43:02Z</time>
      </trkpt>
      <trkpt lat="-20.89397" lon="55.38101">
        <ele>209</ele>
        <time>2013-01-07T05:43:07Z</time>
      </trkpt>
      <trkpt lat="-20.89402" lon="55.38105">
        <ele>210</ele>
        <time>2013-01-07T05:43:12Z</time>
      </trkpt>
      <trkpt lat="-20.89407" lon="55.38107">
        <ele>210</ele>
        <time>2013-01-07T05:43:17Z</time>
      </trkpt>
      <trkpt lat="-20.89411" lon="55.3811">
        <ele>211</ele>
        <time>2013-01-07T05:43:22Z</time>
      </trkpt>
      <trkpt lat="-20.89414" lon="55.38113">
        <ele>212</ele>
        <time>2013-01-07T05:43:27Z</time>
      </trkpt>
      <trkpt lat="-20.89415" lon="55.38116">
        <ele>213</ele>
        <time>2013-01-07T05:43:32Z</time>
      </trkpt>
      <trkpt lat="-20.89413" lon="55.38121">
        <ele>214</ele>
        <time>2013-01-07T05:43:37Z</time>
      </trkpt>
      <trkpt lat="-20.89411" lon="55.38125">
        <ele>215</ele>
        <time>2013-01-07T05:43:42Z</time>
      </trkpt>
      <trkpt lat="-20.89408" lon="55.3813">
        <ele>215</ele>
        <time>2013-01-07T05:43:47Z</time>
      </trkpt>
      <trkpt lat="-20.89411" lon="55.38134">
        <ele>216</ele>
        <time>2013-01-07T05:43:52Z</time>
      </trkpt>
      <trkpt lat="-20.89414" lon="55.38138">
        <ele>217</ele>
        <time>2013-01-07T05:43:57Z</time>
      </trkpt>
      <trkpt lat="-20.89418" lon="55.38142">
        <ele>217</ele>
        <time>2013-01-07T05:44:02Z</time>
      </trkpt>
      <trkpt lat="-20.89421" lon="55.38145">
        <ele>219</ele>
        <time>2013-01-07T05:44:07Z</time>
      </trkpt>
      <trkpt lat="-20.89425" lon="55.38149">
        <ele>219</ele>
        <time>2013-01-07T05:44:12Z</time>
      </trkpt>
      <trkpt lat="-20.89429" lon="55.38153">
        <ele>220</ele>
        <time>2013-01-07T05:44:17Z</time>
      </trkpt>
      <trkpt lat="-20.89433" lon="55.38157">
        <ele>220</ele>
        <time>2013-01-07T05:44:22Z</time>
      </trkpt>
      <trkpt lat="-20.89436" lon="55.3816">
        <ele>221</ele>
        <time>2013-01-07T05:44:28Z</time>
      </trkpt>
      <trkpt lat="-20.89439" lon="55.38165">
        <ele>222</ele>
        <time>2013-01-07T05:44:33Z</time>
      </trkpt>
      <trkpt lat="-20.89443" lon="55.38169">
        <ele>223</ele>
        <time>2013-01-07T05:44:38Z</time>
      </trkpt>
      <trkpt lat="-20.89446" lon="55.38173">
        <ele>223</ele>
        <time>2013-01-07T05:44:43Z</time>
      </trkpt>
      <trkpt lat="-20.89449" lon="55.38177">
        <ele>225</ele>
        <time>2013-01-07T05:44:48Z</time>
      </trkpt>
      <trkpt lat="-20.89453" lon="55.38181">
        <ele>225</ele>
        <time>2013-01-07T05:44:53Z</time>
      </trkpt>
      <trkpt lat="-20.89457" lon="55.38184">
        <ele>226</ele>
        <time>2013-01-07T05:44:58Z</time>
      </trkpt>
      <trkpt lat="-20.8946" lon="55.38188">
        <ele>227</ele>
        <time>2013-01-07T05:45:03Z</time>
      </trkpt>
      <trkpt lat="-20.89464" lon="55.38192">
        <ele>227</ele>
        <time>2013-01-07T05:45:08Z</time>
      </trkpt>
      <trkpt lat="-20.89467" lon="55.38195">
        <ele>228</ele>
        <time>2013-01-07T05:45:13Z</time>
      </trkpt>
      <trkpt lat="-20.89471" lon="55.382">
        <ele>228</ele>
        <time>2013-01-07T05:45:18Z</time>
      </trkpt>
      <trkpt lat="-20.89475" lon="55.38203">
        <ele>229</ele>
        <time>2013-01-07T05:45:23Z</time>
      </trkpt>
      <trkpt lat="-20.89479" lon="55.38207">
        <ele>230</ele>
        <time>2013-01-07T05:45:28Z</time>
      </trkpt>
      <trkpt lat="-20.89482" lon="55.3821">
        <ele>231</ele>
        <time>2013-01-07T05:45:33Z</time>
      </trkpt>
      <trkpt lat="-20.89485" lon="55.38213">
        <ele>232</ele>
        <time>2013-01-07T05:45:38Z</time>
      </trkpt>
      <trkpt lat="-20.89489" lon="55.38217">
        <ele>232</ele>
        <time>2013-01-07T05:45:43Z</time>
      </trkpt>
      <trkpt lat="-20.89492" lon="55.38221">
        <ele>233</ele>
        <time>2013-01-07T05:45:48Z</time>
      </trkpt>
      <trkpt lat="-20.89496" lon="55.38225">
        <ele>234</ele>
        <time>2013-01-07T05:45:53Z</time>
      </trkpt>
      <trkpt lat="-20.89499" lon="55.38229">
        <ele>235</ele>
        <time>2013-01-07T05:45:58Z</time>
      </trkpt>
      <trkpt lat="-20.89502" lon="55.38233">
        <ele>235</ele>
        <time>2013-01-07T05:46:03Z</time>
      </trkpt>
      <trkpt lat="-20.89506" lon="55.38237">
        <ele>236</ele>
        <time>2013-01-07T05:46:08Z</time>
      </trkpt>
      <trkpt lat="-20.89509" lon="55.38241">
        <ele>238</ele>
        <time>2013-01-07T05:46:13Z</time>
      </trkpt>
      <trkpt lat="-20.89512" lon="55.38244">
        <ele>239</ele>
        <time>2013-01-07T05:46:18Z</time>
      </trkpt>
      <trkpt lat="-20.89515" lon="55.38248">
        <ele>240</ele>
        <time>2013-01-07T05:46:23Z</time>
      </trkpt>
      <trkpt lat="-20.89519" lon="55.38252">
        <ele>240</ele>
        <time>2013-01-07T05:46:28Z</time>
      </trkpt>
      <trkpt lat="-20.89522" lon="55.38256">
        <ele>241</ele>
        <time>2013-01-07T05:46:33Z</time>
      </trkpt>
      <trkpt lat="-20.89525" lon="55.3826">
        <ele>242</ele>
        <time>2013-01-07T05:46:38Z</time>
      </trkpt>
      <trkpt lat="-20.89528" lon="55.38263">
        <ele>243</ele>
        <time>2013-01-07T05:46:43Z</time>
      </trkpt>
      <trkpt lat="-20.89532" lon="55.38267">
        <ele>243</ele>
        <time>2013-01-07T05:46:48Z</time>
      </trkpt>
      <trkpt lat="-20.89535" lon="55.3827">
        <ele>244</ele>
        <time>2013-01-07T05:46:53Z</time>
      </trkpt>
      <trkpt lat="-20.89538" lon="55.38273">
        <ele>245</ele>
        <time>2013-01-07T05:46:58Z</time>
      </trkpt>
      <trkpt lat="-20.89541" lon="55.38277">
        <ele>246</ele>
        <time>2013-01-07T05:47:03Z</time>
      </trkpt>
      <trkpt lat="-20.89545" lon="55.38281">
        <ele>246</ele>
        <time>2013-01-07T05:47:08Z</time>
      </trkpt>
      <trkpt lat="-20.89548" lon="55.38284">
        <ele>247</ele>
        <time>2013-01-07T05:47:13Z</time>
      </trkpt>
      <trkpt lat="-20.89552" lon="55.38288">
        <ele>248</ele>
        <time>2013-01-07T05:47:18Z</time>
      </trkpt>
      <trkpt lat="-20.89556" lon="55.38291">
        <ele>249</ele>
        <time>2013-01-07T05:47:23Z</time>
      </trkpt>
      <trkpt lat="-20.89559" lon="55.38295">
        <ele>250</ele>
        <time>2013-01-07T05:47:28Z</time>
      </trkpt>
      <trkpt lat="-20.89563" lon="55.38299">
        <ele>251</ele>
        <time>2013-01-07T05:47:33Z</time>
      </trkpt>
      <trkpt lat="-20.89566" lon="55.38303">
        <ele>252</ele>
        <time>2013-01-07T05:47:38Z</time>
      </trkpt>
      <trkpt lat="-20.8957" lon="55.38306">
        <ele>253</ele>
        <time>2013-01-07T05:47:43Z</time>
      </trkpt>
      <trkpt lat="-20.89573" lon="55.3831">
        <ele>254</ele>
        <time>2013-01-07T05:47:48Z</time>
      </trkpt>
      <trkpt lat="-20.89577" lon="55.38313">
        <ele>255</ele>
        <time>2013-01-07T05:47:53Z</time>
      </trkpt>
      <trkpt lat="-20.8958" lon="55.38317">
        <ele>255</ele>
        <time>2013-01-07T05:47:58Z</time>
      </trkpt>
      <trkpt lat="-20.89583" lon="55.38321">
        <ele>256</ele>
        <time>2013-01-07T05:48:03Z</time>
      </trkpt>
      <trkpt lat="-20.89587" lon="55.38325">
        <ele>257</ele>
        <time>2013-01-07T05:48:09Z</time>
      </trkpt>
      <trkpt lat="-20.8959" lon="55.38329">
        <ele>258</ele>
        <time>2013-01-07T05:48:14Z</time>
      </trkpt>
      <trkpt lat="-20.89594" lon="55.38334">
        <ele>258</ele>
        <time>2013-01-07T05:48:19Z</time>
      </trkpt>
      <trkpt lat="-20.89597" lon="55.38338">
        <ele>259</ele>
        <time>2013-01-07T05:48:24Z</time>
      </trkpt>
      <trkpt lat="-20.89601" lon="55.38342">
        <ele>260</ele>
        <time>2013-01-07T05:48:29Z</time>
      </trkpt>
      <trkpt lat="-20.89604" lon="55.38347">
        <ele>261</ele>
        <time>2013-01-07T05:48:34Z</time>
      </trkpt>
      <trkpt lat="-20.89606" lon="55.38351">
        <ele>262</ele>
        <time>2013-01-07T05:48:39Z</time>
      </trkpt>
      <trkpt lat="-20.8961" lon="55.38356">
        <ele>263</ele>
        <time>2013-01-07T05:48:44Z</time>
      </trkpt>
      <trkpt lat="-20.89613" lon="55.3836">
        <ele>263</ele>
        <time>2013-01-07T05:48:49Z</time>
      </trkpt>
      <trkpt lat="-20.89615" lon="55.38366">
        <ele>264</ele>
        <time>2013-01-07T05:48:54Z</time>
      </trkpt>
      <trkpt lat="-20.89619" lon="55.38369">
        <ele>265</ele>
        <time>2013-01-07T05:48:59Z</time>
      </trkpt>
      <trkpt lat="-20.89623" lon="55.38374">
        <ele>265</ele>
        <time>2013-01-07T05:49:04Z</time>
      </trkpt>
      <trkpt lat="-20.89627" lon="55.38377">
        <ele>266</ele>
        <time>2013-01-07T05:49:09Z</time>
      </trkpt>
      <trkpt lat="-20.89631" lon="55.3838">
        <ele>267</ele>
        <time>2013-01-07T05:49:14Z</time>
      </trkpt>
      <trkpt lat="-20.89635" lon="55.38383">
        <ele>267</ele>
        <time>2013-01-07T05:49:19Z</time>
      </trkpt>
      <trkpt lat="-20.89638" lon="55.38385">
        <ele>269</ele>
        <time>2013-01-07T05:49:24Z</time>
      </trkpt>
      <trkpt lat="-20.89642" lon="55.38388">
        <ele>270</ele>
        <time>2013-01-07T05:49:29Z</time>
      </trkpt>
      <trkpt lat="-20.89646" lon="55.38391">
        <ele>270</ele>
        <time>2013-01-07T05:49:34Z</time>
      </trkpt>
      <trkpt lat="-20.8965" lon="55.38393">
        <ele>271</ele>
        <time>2013-01-07T05:49:39Z</time>
      </trkpt>
      <trkpt lat="-20.89654" lon="55.38395">
        <ele>272</ele>
        <time>2013-01-07T05:49:44Z</time>
      </trkpt>
      <trkpt lat="-20.89658" lon="55.38398">
        <ele>273</ele>
        <time>2013-01-07T05:49:49Z</time>
      </trkpt>
      <trkpt lat="-20.89661" lon="55.384">
        <ele>274</ele>
        <time>2013-01-07T05:49:54Z</time>
      </trkpt>
      <trkpt lat="-20.89665" lon="55.38403">
        <ele>275</ele>
        <time>2013-01-07T05:49:59Z</time>
      </trkpt>
      <trkpt lat="-20.89669" lon="55.38406">
        <ele>275</ele>
        <time>2013-01-07T05:50:04Z</time>
      </trkpt>
      <trkpt lat="-20.8967" lon="55.38408">
        <ele>276</ele>
        <time>2013-01-07T05:50:09Z</time>
      </trkpt>
      <trkpt lat="-20.89674" lon="55.38412">
        <ele>276</ele>
        <time>2013-01-07T05:50:14Z</time>
      </trkpt>
      <trkpt lat="-20.89678" lon="55.38415">
        <ele>277</ele>
        <time>2013-01-07T05:50:19Z</time>
      </trkpt>
      <trkpt lat="-20.89682" lon="55.3842">
        <ele>278</ele>
        <time>2013-01-07T05:50:24Z</time>
      </trkpt>
      <trkpt lat="-20.89686" lon="55.38424">
        <ele>278</ele>
        <time>2013-01-07T05:50:29Z</time>
      </trkpt>
      <trkpt lat="-20.89691" lon="55.38428">
        <ele>278</ele>
        <time>2013-01-07T05:50:34Z</time>
      </trkpt>
      <trkpt lat="-20.89694" lon="55.38434">
        <ele>278</ele>
        <time>2013-01-07T05:50:39Z</time>
      </trkpt>
      <trkpt lat="-20.89698" lon="55.38438">
        <ele>279</ele>
        <time>2013-01-07T05:50:44Z</time>
      </trkpt>
      <trkpt lat="-20.89702" lon="55.38442">
        <ele>279</ele>
        <time>2013-01-07T05:50:49Z</time>
      </trkpt>
      <trkpt lat="-20.89707" lon="55.38445">
        <ele>280</ele>
        <time>2013-01-07T05:50:54Z</time>
      </trkpt>
      <trkpt lat="-20.89709" lon="55.38449">
        <ele>280</ele>
        <time>2013-01-07T05:51:00Z</time>
      </trkpt>
      <trkpt lat="-20.89713" lon="55.38453">
        <ele>281</ele>
        <time>2013-01-07T05:51:05Z</time>
      </trkpt>
      <trkpt lat="-20.89718" lon="55.38458">
        <ele>281</ele>
        <time>2013-01-07T05:51:10Z</time>
      </trkpt>
      <trkpt lat="-20.89721" lon="55.38465">
        <ele>281</ele>
        <time>2013-01-07T05:51:15Z</time>
      </trkpt>
      <trkpt lat="-20.89726" lon="55.3847">
        <ele>282</ele>
        <time>2013-01-07T05:51:20Z</time>
      </trkpt>
      <trkpt lat="-20.8973" lon="55.38476">
        <ele>283</ele>
        <time>2013-01-07T05:51:25Z</time>
      </trkpt>
      <trkpt lat="-20.89734" lon="55.38481">
        <ele>284</ele>
        <time>2013-01-07T05:51:30Z</time>
      </trkpt>
      <trkpt lat="-20.89738" lon="55.38487">
        <ele>284</ele>
        <time>2013-01-07T05:51:35Z</time>
      </trkpt>
      <trkpt lat="-20.89742" lon="55.38491">
        <ele>284</ele>
        <time>2013-01-07T05:51:40Z</time>
      </trkpt>
      <trkpt lat="-20.89746" lon="55.38495">
        <ele>285</ele>
        <time>2013-01-07T05:51:45Z</time>
      </trkpt>
      <trkpt lat="-20.8975" lon="55.38499">
        <ele>286</ele>
        <time>2013-01-07T05:51:50Z</time>
      </trkpt>
      <trkpt lat="-20.89754" lon="55.38503">
        <ele>286</ele>
        <time>2013-01-07T05:51:55Z</time>
      </trkpt>
      <trkpt lat="-20.89759" lon="55.38505">
        <ele>286</ele>
        <time>2013-01-07T05:52:00Z</time>
      </trkpt>
      <trkpt lat="-20.89762" lon="55.38509">
        <ele>287</ele>
        <time>2013-01-07T05:52:05Z</time>
      </trkpt>
      <trkpt lat="-20.89767" lon="55.38511">
        <ele>288</ele>
        <time>2013-01-07T05:52:10Z</time>
      </trkpt>
      <trkpt lat="-20.89771" lon="55.38514">
        <ele>289</ele>
        <time>2013-01-07T05:52:15Z</time>
      </trkpt>
      <trkpt lat="-20.89776" lon="55.38518">
        <ele>290</ele>
        <time>2013-01-07T05:52:20Z</time>
      </trkpt>
      <trkpt lat="-20.89781" lon="55.38521">
        <ele>290</ele>
        <time>2013-01-07T05:52:25Z</time>
      </trkpt>
      <trkpt lat="-20.89786" lon="55.38524">
        <ele>291</ele>
        <time>2013-01-07T05:52:30Z</time>
      </trkpt>
      <trkpt lat="-20.89791" lon="55.38528">
        <ele>292</ele>
        <time>2013-01-07T05:52:35Z</time>
      </trkpt>
      <trkpt lat="-20.89795" lon="55.38531">
        <ele>292</ele>
        <time>2013-01-07T05:52:40Z</time>
      </trkpt>
      <trkpt lat="-20.89799" lon="55.38534">
        <ele>293</ele>
        <time>2013-01-07T05:52:45Z</time>
      </trkpt>
      <trkpt lat="-20.89804" lon="55.38537">
        <ele>294</ele>
        <time>2013-01-07T05:52:50Z</time>
      </trkpt>
      <trkpt lat="-20.89808" lon="55.3854">
        <ele>295</ele>
        <time>2013-01-07T05:52:55Z</time>
      </trkpt>
      <trkpt lat="-20.89812" lon="55.38543">
        <ele>296</ele>
        <time>2013-01-07T05:53:00Z</time>
      </trkpt>
      <trkpt lat="-20.89817" lon="55.38546">
        <ele>296</ele>
        <time>2013-01-07T05:53:05Z</time>
      </trkpt>
      <trkpt lat="-20.89821" lon="55.38548">
        <ele>297</ele>
        <time>2013-01-07T05:53:10Z</time>
      </trkpt>
      <trkpt lat="-20.89825" lon="55.38551">
        <ele>298</ele>
        <time>2013-01-07T05:53:16Z</time>
      </trkpt>
      <trkpt lat="-20.89829" lon="55.38552">
        <ele>299</ele>
        <time>2013-01-07T05:53:21Z</time>
      </trkpt>
      <trkpt lat="-20.89834" lon="55.38553">
        <ele>300</ele>
        <time>2013-01-07T05:53:26Z</time>
      </trkpt>
      <trkpt lat="-20.89838" lon="55.38554">
        <ele>301</ele>
        <time>2013-01-07T05:53:31Z</time>
      </trkpt>
      <trkpt lat="-20.89842" lon="55.38555">
        <ele>302</ele>
        <time>2013-01-07T05:53:36Z</time>
      </trkpt>
      <trkpt lat="-20.89846" lon="55.38557">
        <ele>303</ele>
        <time>2013-01-07T05:53:41Z</time>
      </trkpt>
      <trkpt lat="-20.8985" lon="55.3856">
        <ele>304</ele>
        <time>2013-01-07T05:53:46Z</time>
      </trkpt>
      <trkpt lat="-20.89854" lon="55.38563">
        <ele>306</ele>
        <time>2013-01-07T05:53:51Z</time>
      </trkpt>
      <trkpt lat="-20.89858" lon="55.38565">
        <ele>306</ele>
        <time>2013-01-07T05:53:56Z</time>
      </trkpt>
      <trkpt lat="-20.89861" lon="55.38568">
        <ele>307</ele>
        <time>2013-01-07T05:54:01Z</time>
      </trkpt>
      <trkpt lat="-20.89865" lon="55.38571">
        <ele>308</ele>
        <time>2013-01-07T05:54:06Z</time>
      </trkpt>
      <trkpt lat="-20.89869" lon="55.38574">
        <ele>309</ele>
        <time>2013-01-07T05:54:11Z</time>
      </trkpt>
      <trkpt lat="-20.89873" lon="55.38576">
        <ele>310</ele>
        <time>2013-01-07T05:54:16Z</time>
      </trkpt>
      <trkpt lat="-20.89877" lon="55.38578">
        <ele>311</ele>
        <time>2013-01-07T05:54:21Z</time>
      </trkpt>
      <trkpt lat="-20.89881" lon="55.3858">
        <ele>312</ele>
        <time>2013-01-07T05:54:26Z</time>
      </trkpt>
      <trkpt lat="-20.89885" lon="55.38583">
        <ele>313</ele>
        <time>2013-01-07T05:54:31Z</time>
      </trkpt>
      <trkpt lat="-20.89888" lon="55.38585">
        <ele>314</ele>
        <time>2013-01-07T05:54:36Z</time>
      </trkpt>
      <trkpt lat="-20.89892" lon="55.38586">
        <ele>315</ele>
        <time>2013-01-07T05:54:41Z</time>
      </trkpt>
      <trkpt lat="-20.89897" lon="55.3859">
        <ele>316</ele>
        <time>2013-01-07T05:54:46Z</time>
      </trkpt>
      <trkpt lat="-20.89901" lon="55.38592">
        <ele>317</ele>
        <time>2013-01-07T05:54:51Z</time>
      </trkpt>
      <trkpt lat="-20.89905" lon="55.38594">
        <ele>318</ele>
        <time>2013-01-07T05:54:56Z</time>
      </trkpt>
      <trkpt lat="-20.8991" lon="55.38596">
        <ele>319</ele>
        <time>2013-01-07T05:55:02Z</time>
      </trkpt>
      <trkpt lat="-20.89914" lon="55.38599">
        <ele>319</ele>
        <time>2013-01-07T05:55:07Z</time>
      </trkpt>
      <trkpt lat="-20.89918" lon="55.38601">
        <ele>320</ele>
        <time>2013-01-07T05:55:12Z</time>
      </trkpt>
      <trkpt lat="-20.89922" lon="55.38604">
        <ele>322</ele>
        <time>2013-01-07T05:55:17Z</time>
      </trkpt>
      <trkpt lat="-20.89926" lon="55.38606">
        <ele>323</ele>
        <time>2013-01-07T05:55:22Z</time>
      </trkpt>
      <trkpt lat="-20.89931" lon="55.38609">
        <ele>324</ele>
        <time>2013-01-07T05:55:27Z</time>
      </trkpt>
      <trkpt lat="-20.89935" lon="55.38611">
        <ele>324</ele>
        <time>2013-01-07T05:55:32Z</time>
      </trkpt>
      <trkpt lat="-20.8994" lon="55.38614">
        <ele>325</ele>
        <time>2013-01-07T05:55:37Z</time>
      </trkpt>
      <trkpt lat="-20.89945" lon="55.38616">
        <ele>326</ele>
        <time>2013-01-07T05:55:42Z</time>
      </trkpt>
      <trkpt lat="-20.89949" lon="55.38619">
        <ele>327</ele>
        <time>2013-01-07T05:55:47Z</time>
      </trkpt>
      <trkpt lat="-20.89953" lon="55.38621">
        <ele>327</ele>
        <time>2013-01-07T05:55:52Z</time>
      </trkpt>
      <trkpt lat="-20.89957" lon="55.38625">
        <ele>328</ele>
        <time>2013-01-07T05:55:57Z</time>
      </trkpt>
      <trkpt lat="-20.89961" lon="55.38628">
        <ele>329</ele>
        <time>2013-01-07T05:56:02Z</time>
      </trkpt>
      <trkpt lat="-20.89966" lon="55.38631">
        <ele>329</ele>
        <time>2013-01-07T05:56:07Z</time>
      </trkpt>
      <trkpt lat="-20.8997" lon="55.38634">
        <ele>330</ele>
        <time>2013-01-07T05:56:12Z</time>
      </trkpt>
      <trkpt lat="-20.89974" lon="55.38638">
        <ele>332</ele>
        <time>2013-01-07T05:56:17Z</time>
      </trkpt>
      <trkpt lat="-20.89978" lon="55.38641">
        <ele>333</ele>
        <time>2013-01-07T05:56:22Z</time>
      </trkpt>
      <trkpt lat="-20.89982" lon="55.38643">
        <ele>333</ele>
        <time>2013-01-07T05:56:27Z</time>
      </trkpt>
      <trkpt lat="-20.89987" lon="55.38646">
        <ele>334</ele>
        <time>2013-01-07T05:56:32Z</time>
      </trkpt>
      <trkpt lat="-20.8999" lon="55.38651">
        <ele>336</ele>
        <time>2013-01-07T05:56:37Z</time>
      </trkpt>
      <trkpt lat="-20.89995" lon="55.38658">
        <ele>336</ele>
        <time>2013-01-07T05:56:42Z</time>
      </trkpt>
      <trkpt lat="-20.9" lon="55.38664">
        <ele>336</ele>
        <time>2013-01-07T05:56:48Z</time>
      </trkpt>
      <trkpt lat="-20.90004" lon="55.38669">
        <ele>337</ele>
        <time>2013-01-07T05:56:53Z</time>
      </trkpt>
      <trkpt lat="-20.90008" lon="55.38675">
        <ele>337</ele>
        <time>2013-01-07T05:56:58Z</time>
      </trkpt>
      <trkpt lat="-20.90013" lon="55.3868">
        <ele>337</ele>
        <time>2013-01-07T05:57:03Z</time>
      </trkpt>
      <trkpt lat="-20.90018" lon="55.38685">
        <ele>338</ele>
        <time>2013-01-07T05:57:08Z</time>
      </trkpt>
      <trkpt lat="-20.90021" lon="55.38691">
        <ele>338</ele>
        <time>2013-01-07T05:57:13Z</time>
      </trkpt>
      <trkpt lat="-20.90024" lon="55.38698">
        <ele>338</ele>
        <time>2013-01-07T05:57:18Z</time>
      </trkpt>
      <trkpt lat="-20.90029" lon="55.38704">
        <ele>338</ele>
        <time>2013-01-07T05:57:23Z</time>
      </trkpt>
      <trkpt lat="-20.90033" lon="55.38709">
        <ele>339</ele>
        <time>2013-01-07T05:57:28Z</time>
      </trkpt>
      <trkpt lat="-20.90039" lon="55.38715">
        <ele>339</ele>
        <time>2013-01-07T05:57:33Z</time>
      </trkpt>
      <trkpt lat="-20.90043" lon="55.3872">
        <ele>339</ele>
        <time>2013-01-07T05:57:39Z</time>
      </trkpt>
      <trkpt lat="-20.90047" lon="55.38725">
        <ele>340</ele>
        <time>2013-01-07T05:57:44Z</time>
      </trkpt>
      <trkpt lat="-20.90051" lon="55.38729">
        <ele>341</ele>
        <time>2013-01-07T05:57:49Z</time>
      </trkpt>
      <trkpt lat="-20.90055" lon="55.38734">
        <ele>341</ele>
        <time>2013-01-07T05:57:54Z</time>
      </trkpt>
      <trkpt lat="-20.90059" lon="55.38739">
        <ele>342</ele>
        <time>2013-01-07T05:57:59Z</time>
      </trkpt>
      <trkpt lat="-20.90063" lon="55.38744">
        <ele>343</ele>
        <time>2013-01-07T05:58:04Z</time>
      </trkpt>
      <trkpt lat="-20.90067" lon="55.38749">
        <ele>344</ele>
        <time>2013-01-07T05:58:09Z</time>
      </trkpt>
      <trkpt lat="-20.9007" lon="55.38754">
        <ele>344</ele>
        <time>2013-01-07T05:58:14Z</time>
      </trkpt>
      <trkpt lat="-20.90073" lon="55.38758">
        <ele>346</ele>
        <time>2013-01-07T05:58:19Z</time>
      </trkpt>
      <trkpt lat="-20.90077" lon="55.3876">
        <ele>347</ele>
        <time>2013-01-07T05:58:24Z</time>
      </trkpt>
      <trkpt lat="-20.9008" lon="55.38764">
        <ele>348</ele>
        <time>2013-01-07T05:58:29Z</time>
      </trkpt>
      <trkpt lat="-20.90084" lon="55.38768">
        <ele>349</ele>
        <time>2013-01-07T05:58:34Z</time>
      </trkpt>
      <trkpt lat="-20.90088" lon="55.38773">
        <ele>350</ele>
        <time>2013-01-07T05:58:39Z</time>
      </trkpt>
      <trkpt lat="-20.90092" lon="55.38779">
        <ele>351</ele>
        <time>2013-01-07T05:58:44Z</time>
      </trkpt>
      <trkpt lat="-20.90095" lon="55.38784">
        <ele>351</ele>
        <time>2013-01-07T05:58:50Z</time>
      </trkpt>
      <trkpt lat="-20.90097" lon="55.3879">
        <ele>352</ele>
        <time>2013-01-07T05:58:55Z</time>
      </trkpt>
      <trkpt lat="-20.90098" lon="55.38796">
        <ele>352</ele>
        <time>2013-01-07T05:59:00Z</time>
      </trkpt>
      <trkpt lat="-20.90101" lon="55.38802">
        <ele>352</ele>
        <time>2013-01-07T05:59:05Z</time>
      </trkpt>
      <trkpt lat="-20.90104" lon="55.38806">
        <ele>352</ele>
        <time>2013-01-07T05:59:10Z</time>
      </trkpt>
      <trkpt lat="-20.90109" lon="55.38811">
        <ele>351</ele>
        <time>2013-01-07T05:59:15Z</time>
      </trkpt>
      <trkpt lat="-20.90113" lon="55.38818">
        <ele>351</ele>
        <time>2013-01-07T05:59:20Z</time>
      </trkpt>
      <trkpt lat="-20.90118" lon="55.38823">
        <ele>350</ele>
        <time>2013-01-07T05:59:25Z</time>
      </trkpt>
      <trkpt lat="-20.90121" lon="55.3883">
        <ele>350</ele>
        <time>2013-01-07T05:59:30Z</time>
      </trkpt>
      <trkpt lat="-20.90125" lon="55.38836">
        <ele>350</ele>
        <time>2013-01-07T05:59:35Z</time>
      </trkpt>
      <trkpt lat="-20.90127" lon="55.38844">
        <ele>349</ele>
        <time>2013-01-07T05:59:40Z</time>
      </trkpt>
      <trkpt lat="-20.9013" lon="55.3885">
        <ele>350</ele>
        <time>2013-01-07T05:59:45Z</time>
      </trkpt>
      <trkpt lat="-20.90134" lon="55.38857">
        <ele>349</ele>
        <time>2013-01-07T05:59:50Z</time>
      </trkpt>
      <trkpt lat="-20.90138" lon="55.38861">
        <ele>350</ele>
        <time>2013-01-07T05:59:55Z</time>
      </trkpt>
      <trkpt lat="-20.90145" lon="55.38863">
        <ele>350</ele>
        <time>2013-01-07T06:00:01Z</time>
      </trkpt>
      <trkpt lat="-20.90151" lon="55.38866">
        <ele>350</ele>
        <time>2013-01-07T06:00:06Z</time>
      </trkpt>
      <trkpt lat="-20.90158" lon="55.3887">
        <ele>350</ele>
        <time>2013-01-07T06:00:11Z</time>
      </trkpt>
      <trkpt lat="-20.90163" lon="55.38874">
        <ele>351</ele>
        <time>2013-01-07T06:00:16Z</time>
      </trkpt>
      <trkpt lat="-20.90169" lon="55.38879">
        <ele>351</ele>
        <time>2013-01-07T06:00:21Z</time>
      </trkpt>
      <trkpt lat="-20.90173" lon="55.38884">
        <ele>351</ele>
        <time>2013-01-07T06:00:26Z</time>
      </trkpt>
      <trkpt lat="-20.90177" lon="55.3889">
        <ele>352</ele>
        <time>2013-01-07T06:00:31Z</time>
      </trkpt>
      <trkpt lat="-20.9018" lon="55.38894">
        <ele>353</ele>
        <time>2013-01-07T06:00:36Z</time>
      </trkpt>
      <trkpt lat="-20.90183" lon="55.38898">
        <ele>354</ele>
        <time>2013-01-07T06:00:41Z</time>
      </trkpt>
      <trkpt lat="-20.90187" lon="55.38902">
        <ele>355</ele>
        <time>2013-01-07T06:00:46Z</time>
      </trkpt>
      <trkpt lat="-20.90192" lon="55.38906">
        <ele>356</ele>
        <time>2013-01-07T06:00:51Z</time>
      </trkpt>
      <trkpt lat="-20.90199" lon="55.3891">
        <ele>357</ele>
        <time>2013-01-07T06:00:56Z</time>
      </trkpt>
      <trkpt lat="-20.90204" lon="55.38913">
        <ele>358</ele>
        <time>2013-01-07T06:01:01Z</time>
      </trkpt>
      <trkpt lat="-20.9021" lon="55.38916">
        <ele>358</ele>
        <time>2013-01-07T06:01:06Z</time>
      </trkpt>
      <trkpt lat="-20.90215" lon="55.38923">
        <ele>359</ele>
        <time>2013-01-07T06:01:11Z</time>
      </trkpt>
      <trkpt lat="-20.90219" lon="55.38929">
        <ele>359</ele>
        <time>2013-01-07T06:01:16Z</time>
      </trkpt>
      <trkpt lat="-20.90223" lon="55.38935">
        <ele>359</ele>
        <time>2013-01-07T06:01:22Z</time>
      </trkpt>
      <trkpt lat="-20.90225" lon="55.38942">
        <ele>360</ele>
        <time>2013-01-07T06:01:27Z</time>
      </trkpt>
      <trkpt lat="-20.90228" lon="55.38948">
        <ele>360</ele>
        <time>2013-01-07T06:01:32Z</time>
      </trkpt>
      <trkpt lat="-20.9023" lon="55.38954">
        <ele>361</ele>
        <time>2013-01-07T06:01:37Z</time>
      </trkpt>
      <trkpt lat="-20.90232" lon="55.3896">
        <ele>361</ele>
        <time>2013-01-07T06:01:42Z</time>
      </trkpt>
      <trkpt lat="-20.90235" lon="55.38966">
        <ele>362</ele>
        <time>2013-01-07T06:01:47Z</time>
      </trkpt>
      <trkpt lat="-20.90237" lon="55.38972">
        <ele>363</ele>
        <time>2013-01-07T06:01:52Z</time>
      </trkpt>
      <trkpt lat="-20.9024" lon="55.38977">
        <ele>363</ele>
        <time>2013-01-07T06:01:57Z</time>
      </trkpt>
      <trkpt lat="-20.90243" lon="55.38982">
        <ele>365</ele>
        <time>2013-01-07T06:02:02Z</time>
      </trkpt>
      <trkpt lat="-20.90244" lon="55.38989">
        <ele>366</ele>
        <time>2013-01-07T06:02:07Z</time>
      </trkpt>
      <trkpt lat="-20.90246" lon="55.38994">
        <ele>367</ele>
        <time>2013-01-07T06:02:13Z</time>
      </trkpt>
      <trkpt lat="-20.9025" lon="55.38999">
        <ele>367</ele>
        <time>2013-01-07T06:02:18Z</time>
      </trkpt>
      <trkpt lat="-20.90253" lon="55.39004">
        <ele>368</ele>
        <time>2013-01-07T06:02:23Z</time>
      </trkpt>
      <trkpt lat="-20.90256" lon="55.3901">
        <ele>369</ele>
        <time>2013-01-07T06:02:28Z</time>
      </trkpt>
      <trkpt lat="-20.90258" lon="55.39015">
        <ele>370</ele>
        <time>2013-01-07T06:02:33Z</time>
      </trkpt>
      <trkpt lat="-20.90261" lon="55.39019">
        <ele>371</ele>
        <time>2013-01-07T06:02:38Z</time>
      </trkpt>
      <trkpt lat="-20.90265" lon="55.39025">
        <ele>371</ele>
        <time>2013-01-07T06:02:43Z</time>
      </trkpt>
      <trkpt lat="-20.90267" lon="55.3903">
        <ele>372</ele>
        <time>2013-01-07T06:02:48Z</time>
      </trkpt>
      <trkpt lat="-20.90271" lon="55.39037">
        <ele>372</ele>
        <time>2013-01-07T06:02:53Z</time>
      </trkpt>
      <trkpt lat="-20.90274" lon="55.39043">
        <ele>373</ele>
        <time>2013-01-07T06:02:58Z</time>
      </trkpt>
      <trkpt lat="-20.90279" lon="55.39049">
        <ele>374</ele>
        <time>2013-01-07T06:03:03Z</time>
      </trkpt>
      <trkpt lat="-20.90283" lon="55.39055">
        <ele>374</ele>
        <time>2013-01-07T06:03:08Z</time>
      </trkpt>
      <trkpt lat="-20.90287" lon="55.39062">
        <ele>374</ele>
        <time>2013-01-07T06:03:14Z</time>
      </trkpt>
      <trkpt lat="-20.90292" lon="55.39069">
        <ele>374</ele>
        <time>2013-01-07T06:03:19Z</time>
      </trkpt>
      <trkpt lat="-20.90298" lon="55.39075">
        <ele>375</ele>
        <time>2013-01-07T06:03:24Z</time>
      </trkpt>
      <trkpt lat="-20.90303" lon="55.3908">
        <ele>375</ele>
        <time>2013-01-07T06:03:29Z</time>
      </trkpt>
      <trkpt lat="-20.90308" lon="55.39087">
        <ele>375</ele>
        <time>2013-01-07T06:03:34Z</time>
      </trkpt>
      <trkpt lat="-20.90313" lon="55.39092">
        <ele>375</ele>
        <time>2013-01-07T06:03:39Z</time>
      </trkpt>
      <trkpt lat="-20.90318" lon="55.39097">
        <ele>376</ele>
        <time>2013-01-07T06:03:44Z</time>
      </trkpt>
      <trkpt lat="-20.90323" lon="55.39102">
        <ele>376</ele>
        <time>2013-01-07T06:03:49Z</time>
      </trkpt>
      <trkpt lat="-20.90327" lon="55.39108">
        <ele>377</ele>
        <time>2013-01-07T06:03:54Z</time>
      </trkpt>
      <trkpt lat="-20.90331" lon="55.39111">
        <ele>377</ele>
        <time>2013-01-07T06:03:59Z</time>
      </trkpt>
      <trkpt lat="-20.90338" lon="55.39115">
        <ele>378</ele>
        <time>2013-01-07T06:04:04Z</time>
      </trkpt>
      <trkpt lat="-20.90343" lon="55.39119">
        <ele>379</ele>
        <time>2013-01-07T06:04:09Z</time>
      </trkpt>
      <trkpt lat="-20.90347" lon="55.39123">
        <ele>380</ele>
        <time>2013-01-07T06:04:14Z</time>
      </trkpt>
      <trkpt lat="-20.90353" lon="55.39125">
        <ele>381</ele>
        <time>2013-01-07T06:04:19Z</time>
      </trkpt>
      <trkpt lat="-20.90361" lon="55.39127">
        <ele>381</ele>
        <time>2013-01-07T06:04:24Z</time>
      </trkpt>
      <trkpt lat="-20.90368" lon="55.39129">
        <ele>381</ele>
        <time>2013-01-07T06:04:30Z</time>
      </trkpt>
      <trkpt lat="-20.90373" lon="55.3913">
        <ele>382</ele>
        <time>2013-01-07T06:04:31Z</time>
      </trkpt>
      <trkpt lat="-20.90374" lon="55.3913">
        <ele>382</ele>
        <time>2013-01-07T06:04:36Z</time>
      </trkpt>
    </trkseg>
  </trk>
</gpx>